     2              OBSERVATION DATA    GPS                 RINEX VERSION / TYPE
TRRINEXO-V2.7.0-LH UCSD 02-JAN-1996                         PGM / RUN BY / DATE
                                                            COMMENT
Original Marker Name: 11D T8S/R12E 1987                     COMMENT
Campaign Name: DHL Surveys 94-96                            COMMENT
4-Character Station Name: 25SE                              COMMENT
6-Character Antenna Code: TRMSST                            COMMENT
Vertical Measurement Point: BGP                             COMMENT
Vertical Offset to Rinex Ref. Point: 0.0597                 COMMENT
Radial Measurement Point: NGP                               COMMENT
Radial Offset to Rinex Ref. Point: 0.2334                   COMMENT
Antenna Height from Field Measurement: 1.0830 m             COMMENT
After, crosshairs off 1 mm to SE of center.                 COMMENT
Original XYZ: -2317326.8229 -4797181.9421 3494764.4672      COMMENT
New XYZ position is based on association with SCEC monument COMMENT
E1D0L3E9+0011. Position of that monument is believed to be  COMMENT
valid to within 1 m horizontally; vertical accuracy         COMMENT
should be no worse than 3-times this value.                 COMMENT
                                                            COMMENT
Revised Rinex header created by UCSD GPS archive for        COMMENT
GSAC on 12-Apr-1999 (1999:102) 12:20:53 GMT                 COMMENT
For assistance contact dagnew@ucsd.edu or hjohnson@ucsd.edu COMMENT
                                                            COMMENT
11D T8S/R12E 1987                                           MARKER NAME
Dylewski/Elliott SCRIPPS INSTITUTION OF OCEANOGRAPHY        OBSERVER / AGENCY
491 TRIMBLE 4000 SST 4.81 / 4.20                            REC # / TYPE / VERS
27 TR 4000SST L1/L2 GEO                                     ANT # / TYPE
 -2317356.0000 -4797268.0000  3494790.0000                  APPROX POSITION XYZ
        0.9979        0.0000        0.0000                  ANTENNA: DELTA H/E/N
     1     2     0                                          WAVELENGTH FACT L1/2
     3    C1    L1    L2                                    # / TYPES OF OBSERV
    30                                                      INTERVAL
  1995    12    29     0    49   30.000000                  TIME OF FIRST OBS
  1995    12    29    15    33   30.000000                  TIME OF LAST OBS
     0                                                      # OF SATELLITES
                                                            END OF HEADER
 95 12 29  0 49 30.0000000  0  7 19 18 31 02 15 16 27
  20907085.828          -0.95917        -0.30513
  23304483.492          -0.85316        -0.37511
  23179412.672          -0.12216        -0.47011
  21715623.469          -0.07117        -0.39413
  25157099.867          -0.23813
  24548491.117          -0.97614
  20605910.102          -0.98617
 95 12 29  0 50  0.0000000  0  8 19 18 31 02 15 16 07 27
  20899691.992      -38859.209 7    -30279.456 3
  23312870.203       44076.117 6     34345.281 1
  23183387.742       20879.278 6     16269.211 1
  21697801.828      -93658.208 7    -72980.745 3
  25131912.141     -132366.807 3
  24544569.641      -20589.821 4        -0.24411
  23516132.008          -0.17515
  20587820.625      -95052.457 7        -0.49214
 95 12 29  0 50 30.0000000  0  8 19 18 31 02 15 16 07 27
  20892360.555      -77384.503 7    -60299.158 3
  23321301.570       88380.079 6     68867.838 1
  23187445.648       42196.810 6     32880.280 1
  21680033.375     -187037.573 7   -145743.860 3
  25106754.508     -264581.476 3        -0.24211
  24540723.875      -40794.985 4    -15744.524 1
  23484394.125     -166781.531 5        -0.03011
  20569793.391     -189777.757 7    -73812.401 4
 95 12 29  0 51  0.0000000  0  8 19 18 31 02 15 16 07 27
  20885116.281                          -0.35317
  23329794.820      133014.088 6    103647.816 1
  23191605.813       64055.974 6     49913.670 1
  21662341.148                          -0.93117
  25081645.828                          -0.96513
  24536976.133                          -0.80614
  23452715.875     -333263.317 5   -129725.807 1
  20551849.570                          -0.64517
 95 12 29  0 51 30.0000000  0  8 19 18 31 02 15 16 07 27
  20877961.070      -37596.659 7        -0.02213
  23338349.234      177956.319 6    138667.709 1
  23195867.734       86463.948 6     67374.439 1
  21644717.234      -92617.031 7        -0.01913
  25056583.711     -131689.172 2        -0.21711
  24533317.391      -19244.266 3        -0.25911
  23421092.320     -499443.839 5   -259217.071 1
  20533987.820      -93861.955 7        -0.32614
 95 12 29  0 52  0.0000000  0  8 19 18 31 02 15 16 07 27
  20870878.258      -74815.122 7    -29001.412 3
  23346938.445      223105.081 6    173848.528 1
  23200214.266      109302.822 6     85170.969 1
  21627140.508     -184962.632 7    -71957.614 3
  25031554.289     -263203.643 2   -102479.010 1
  24529723.063      -38116.311 3    -14705.752 1
  23389510.453     -665413.901 5   -388544.358 1
  20516194.484     -187380.965 7    -72872.267 4
 95 12 29  0 52 30.0000000  0  8 19 18 31 02 15 16 07 27
  20863856.609     -111706.947 7    -57748.282 3
  23355557.523      268392.991 5    209137.775 1
  23204627.352      132492.458 6    103240.824 1
  21609608.563     -277083.860 7   -143740.379 3
  25006545.945     -394604.451 2   -204869.195 1
  24526187.953      -56682.639 3    -29173.040 1
  23357953.195     -831239.538 5   -517759.093 1
  20498451.414     -280622.535 7   -145528.024 4
 95 12 29  0 53  0.0000000  0  7 19 18 31 02 16 07 27
  20856894.031     -148303.860 7    -86265.345 3
  23364196.156      313782.477 5    244506.179 1
  23209102.039      156003.064 6    121560.792 1
  21592119.531     -369008.046 7   -215369.597 3
  24522711.773      -74960.898 3    -43415.842 1
  23326421.063     -996938.197 5   -646874.873 1
  20480754.094     -373609.399 7   -217985.306 4
 95 12 29  0 53 30.0000000  0  7 19 18 31 02 16 07 27
  20849986.141     -184606.112 7   -114552.810 3
  23372853.516      359281.184 5    279959.684 1
  23213635.250      179832.962 6    140129.563 1
  21574665.148     -460728.234 7   -286839.859 3
  24519291.000      -92927.771 3    -57415.993 1
  23294913.258    -1162514.437 5   -775895.258 1
  20463109.227     -466332.541 7   -290237.093 4
 95 12 29  0 54  0.0000000  0  7 19 18 31 02 16 07 27
  20843140.250     -220584.006 7   -142587.530 3
  23381539.250      404931.291 5    315531.157 1
  23218233.938      203997.050 6    158958.728 1
  21557257.109     -552204.879 7   -358120.348 3
  24515940.578     -110555.689 4    -71152.047 1
  23263430.953    -1327953.334 5   -904808.638 1
  20445524.344     -558761.436 7   -362259.597 4
 95 12 29  0 54 30.0000000  0  7 19 18 31 02 16 07 27
  20836358.672     -256222.582 7   -170357.840 3
  23390259.047      450741.919 5    351227.720 1
  23222900.664      228522.019 6    178069.109 1
  21539900.289     -643433.548 7   -429207.607 3
  24512640.602     -127838.019 3    -84618.794 1
  23231975.195    -1493247.323 5  -1033609.093 1
  20427991.617     -650876.467 7   -434037.527 4
 95 12 29  0 55  0.0000000  0  7 19 18 31 02 16 07 27
  20829639.773     -291529.229 7   -197869.507 3
  23399008.094      496728.907 5    387061.705 1
  23227639.844      253431.984 6    197479.490 1
  21522583.125     -734414.720 7   -500102.008 3
  24509422.492     -144761.820 3    -97806.171 1
  23200554.492    -1658374.104 5  -1162279.240 1
  20410528.313     -742662.857 7   -505559.376 4
 95 12 29  0 55 30.0000000  0  7 19 18 31 02 16 07 27
  20822983.258     -326505.793 7   -225123.969 3
  23407791.516      542884.023 5    423026.690 1
  23232452.172      278714.920 6    217180.495 1
  21505317.086     -825166.597 7   -570817.737 3
  24506270.117     -161351.854 2   -110733.503 1
  23169160.430    -1823348.622 5  -1290830.762 1
  20393118.969     -834131.396 7   -576833.545 4
 95 12 29  0 56  0.0000000  0  7 19 18 31 02 16 07 27
  20816388.891     -361162.680 7   -252129.332 3
  23416604.477      589196.599 5    459114.393 1
  23237336.211      304377.621 6    237177.421 1
  21488085.797     -915696.674 7   -641360.634 3
  24503175.414     -177622.250 2   -123411.751 1
  23137799.383    -1988149.824 5  -1419247.235 1
  20375777.086     -925276.519 7   -647855.704 4
 95 12 29  0 56 30.0000000  0  7 19 18 31 02 16 07 27
  20809853.445     -395512.094 7   -278895.099 3
  23425441.305      635654.480 5    495315.306 1
  23242290.180      330421.622 6    257471.457 1
  21470903.859    -1006000.412 7   -711727.163 3
  24500137.141     -193574.098 2   -135841.768 1
  23106474.852    -2152759.819 5  -1547514.723 1
  20358492.297    -1016103.461 7   -718629.931 4
 95 12 29  0 57  0.0000000  0  7 19 18 31 02 16 07 27
  20803373.867     -429560.229 7   -305426.114 3
  23434311.758      682247.971 5    531621.872 1
  23247316.328      356822.682 6    278043.735 1
  21453763.977    -1096081.339 7   -781920.068 3
  24497160.336     -209222.450 2   -148035.331 1
  23075188.656    -2317176.660 5  -1675631.694 1
  20341264.508    -1106629.592 7   -789169.760 4
 95 12 29  0 57 30.0000000  0  7 19 18 31 02 16 07 27
  20796948.383     -463321.700 7   -331733.747 3
  23443198.023      728947.100 5    568010.784 1
  23252402.023      383555.636 6    298874.617 1
  21436660.586    -1185952.055 7   -851949.179 3
  24494231.109     -224587.947 2   -160008.453 1
  23043937.164    -2481401.347 6  -1803598.941 1
  20324095.469    -1196860.432 7   -859479.492 4
 95 12 29  0 58  0.0000000  0  7 19 18 31 02 16 07 27
  20790581.078     -496792.031 7   -357814.520 3
  23452106.266      775769.089 5    604495.420 1
  23257556.727      410641.120 6    319980.191 1
  21419601.094    -1275586.734 7   -921794.360 3
  24491374.375     -239654.355 2   -171748.538 1
  23012727.836    -2645411.238 6  -1931398.795 1
  20306988.234    -1286770.237 7   -929539.076 4
 95 12 29  0 58 29.9990000  0  7 19 18 31 02 15 07 27
  20784267.440     -529963.858 7   -383662.699 3
  23461039.753      822706.141 5    641069.702 1
  23262770.222      438041.781 6    341331.371 1
  21402585.417    -1365004.782 7
  24708471.737          -0.49213
  22981552.714    -2809224.543 6  -2059045.487 1
  20289937.089    -1376375.043 7
 95 12 29  0 58 59.9990000  0  7 19 18 31 02 15 07 27
  20778013.315     -562823.000 7   -409267.216 3
  23469993.729      869765.521 5    677739.316 1
  23268045.683      465752.446 6    362924.107 1
  21385606.831    -1454229.830 7
  24683825.644     -129517.131 3
  22950418.230    -2972848.268 6  -2186544.454 1
  20272945.284    -1465666.794 7
 95 12 29  0 59 29.9990000  0  8 19 18 31 02 15 16 07 27
  20771823.136     -595354.819 7   -434616.679 3
  23478975.354      916956.212 5    714511.233 1
  23273381.831      493796.336 5    384776.505 1
  21368667.776    -1543243.176 7
  24659209.347     -258855.779 4        -0.24511
  24483086.948          -0.41412
  22919317.448    -3136271.284 6  -2313887.018 1
  20256016.448    -1554625.762 7
 95 12 29  0 59 59.9990000  0  8 19 18 31 02 15 16 07 27
  20765696.237     -627551.568 7   -459705.050 3
  23487978.448      964269.668 5    751378.838 1
  23278776.034      522155.212 5    406874.327 1
  21351766.683    -1632059.204 7  -1199565.012 3
  24634637.612     -388024.714 5   -100651.333 1
  24480434.800      -13932.795 3        -0.02811
  22888253.480    -3299523.561 6  -2441096.534 1
  20239148.284    -1643272.208 7  -1207332.774 4
 95 12 29  1  0 29.9990000  0  8 19 18 31 02 15 16 07 27
  20759637.558     -659393.589 7   -484517.010 4
  23497008.706     1011723.325 5    788355.674 1
  23284234.448      550837.751 5    429224.369 1
  21334908.276    -1720663.321 7  -1268607.158 3
  24610093.417     -517004.738 5   -201155.248 1
  24477849.573      -27547.242 3    -10608.692 1
  22857223.737    -3462581.890 6  -2568154.918 1
  20222340.253    -1731592.629 7  -1276153.877 4
 95 12 29  1  0 59.9990000  0  8 19 18 31 02 15 16 07 27
  20753637.894     -690925.311 7   -509087.176 4
  23506058.901     1059280.850 5    825413.472 1
  23289751.855      579828.569 5    451814.626 1
  21318086.417    -1809068.592 7  -1337494.360 3
  24585577.269     -645821.030 5   -301531.563 1
  24475311.198      -40863.759 3    -20985.215 1
  22826226.104    -3625470.874 6  -2695081.347 1
  20205590.073    -1819610.628 7  -1344739.319 4
 95 12 29  1  1 29.9990000  0  8 19 18 31 02 15 16 07 27
  20747693.862     -722155.324 7   -533422.249 4
  23515125.534     1106935.810 5    862547.178 1
  23295328.628      609137.286 5    474652.595 1
  21301300.589    -1897261.427 7  -1406216.029 3
  24561095.081     -774473.229 5   -401780.003 1
  24472833.909      -53874.407 3    -31123.375 1
  22795263.276    -3788193.244 6  -2821877.930 1
  20188898.870    -1907328.868 7  -1413091.182 4
 95 12 29  1  1 59.9990000  0  8 19 18 31 02 15 16 07 27
  20741811.292     -753066.583 7   -557508.944 3
  23524215.933     1154699.767 5    899765.828 1
  23300966.581      638765.837 5    497739.783 1
  21284560.730    -1985231.785 7  -1474764.338 3
  24536653.706     -902947.631 5   -501889.847 1
  24470420.136      -66583.086 3    -41026.289 1
  22764333.604    -3950724.794 6  -2948525.823 1
  20172267.729    -1994730.103 7  -1481196.035 4
 95 12 29  1  2 29.9990000  0  8 19 18 31 02 15 16 07 27
  20735990.854     -783658.337 7   -581346.676 3
  23533329.925     1202589.237 5    937082.294 1
  23306671.128      668733.907 5    521091.534 1
  21267867.972    -2072959.611 7  -1543123.670 3
  24512234.308    -1031229.352 5   -601849.633 1
  24468056.597      -78989.359 3    -50693.519 1
  22733443.831    -4113052.080 6  -3075014.561 1
  20155697.714    -2081796.595 7  -1549040.042 4
 95 12 29  1  2 59.9990000  0  8 19 18 31 02 15 16 07 27
  20730226.159     -813950.509 7   -604950.960 3
  23542460.339     1250570.254 5    974470.077 1
  23312433.042      699015.562 5    544687.635 1
  21251213.237    -2160476.162 7  -1611318.359 3
  24487858.034    -1159347.743 5
  24465743.276      -91145.679 3    -60165.995 1
  22702586.440    -4275206.282 6  -3201368.428 1
  20139190.901    -2168550.137 7  -1616640.191 4
 95 12 29  1  3 29.9990000  0  8 19 18 31 02 15 16 07 27
  20724521.448     -843922.492 7   -628305.745 3
  23551613.542     1298661.668 5   1011943.889 1
  23318259.526      729624.679 5    568538.896 1
  21234603.620    -2247763.164 7  -1679334.181 3
  24463513.667    -1287282.502 5
  24463476.229     -103041.871 3    -69435.744 1
  22671766.800    -4437166.710 6  -3327571.300 1
  20122741.253    -2254975.015 7  -1683984.244 4
 95 12 29  1  3 59.9990000  0  8 19 18 31 02 15 16 07 27
  20718879.979     -873575.993 7   -651412.370 3
  23560783.495     1346858.393 5   1049499.763 1
  23324142.042      760543.598 5    592631.576 1
  21218038.058    -2334824.596 7  -1747174.237 3
  24439199.386    -1415031.282 5        -0.41211
  24461267.956     -114686.819 3    -78509.758 1
  22640981.776    -4598933.013 6  -3453622.902 1
  20106359.542    -2341066.377 7  -1751068.409 4
 95 12 29  1  4 29.9990000  0  8 19 18 31 02 15 16 07 27
  20713294.167     -902929.720 7   -674285.403 4
  23569970.151     1395146.129 5   1087126.541 1
  23330081.300      791752.098 5    616949.896 1
  21201507.604    -2421672.594 7  -1814847.979 3
  24414928.940    -1542599.601 5    -99404.260 1
  24459097.253     -126081.995 3
  22610235.081    -4760511.585 6  -3579528.228 1
  20090039.729    -2426835.194 7  -1817901.244 4
 95 12 29  1  4 59.9990000  0  8 19 18 31 02 15 16 07 27
  20707768.222     -931971.864 7   -696915.644 3
  23579175.065     1443513.841 5   1124815.669 1
  23336072.862      823251.459 5    641494.855 1
  21185023.292    -2508306.717 7  -1882355.060 3
  24390688.284    -1669975.807 5   -198658.388 1
  24456973.714     -137216.522 4        -0.35511
  22579529.878    -4921870.660 6  -3705262.517 1
  20073782.034    -2512273.643 7  -1884476.651 4
 95 12 29  1  5 29.9990000  0  8 19 18 31 02 15 16 07 27
  20702302.644     -960693.191 7   -719295.893 3
  23588395.198     1491955.553 5   1162562.454 1
  23342119.433      855041.103 5    666266.012 1
  21168581.050    -2594722.028 7  -1949691.641 3
  24366488.269    -1797146.233 5   -297752.216 1
  24454916.425     -148068.528 4     -8456.471 1
  22548870.003    -5082995.452 6  -3830814.251 1
  20057587.229    -2597375.861 7  -1950790.058 4
 95 12 29  1  5 59.9990000  0  8 19 18 31 02 15 16 07 27
  20696896.308     -989109.984 7   -741438.846 3
  23597618.425     1540433.560 5   1200337.505 1
  23348218.925      887082.498 5    691233.348 1
  21152170.206    -2680957.788 7  -2016888.315 3
  24342321.245    -1924136.114 5   -396705.358 1
  24452889.433     -158681.115 4    -16726.031 1
  22518248.456    -5243912.042 6  -3956203.749 1
  20041450.690    -2682163.966 7  -2016858.705 4
 95 12 29  1  6 29.9990000  0  8 19 18 31 02 15 16 07 27
  20691547.276    -1017213.832 7   -763337.947 3
  23606850.933     1588947.848 5   1238140.841 1
  23354364.847      919383.508 5    716402.968 1
  21135791.581    -2767025.209 7  -2083953.813 3
  24318188.003    -2050947.244 4   -495519.186 1
  24450916.105     -169079.584 4    -24828.724 1
  22487664.659    -5404622.475 6  -4081432.609 1
  20025372.370    -2766653.505 7  -2082694.700 4
 95 12 29  1  6 59.9990000  0  8 19 18 31 02 15 16 07 27
  20686262.597    -1044978.221 7   -784972.530 3
  23616092.378     1637511.935 5   1275982.993 1
  23360570.573      951976.261 5    741799.935 1
  21119446.597    -2852918.790 7  -2150883.853 3
  24294100.808    -2177562.353 5   -594180.265 1
  24448974.362     -179261.279 4    -32762.498 1
  22457123.675    -5565122.269 6  -4206497.331 1
  20009355.003    -2850821.879 7  -2148280.440 4
 95 12 29  1  7 29.9990000  0  8 19 18 31 02 15 16 07 27
  20681045.167    -1072402.051 7   -806341.749 3
  23625345.628     1686133.613 5   1313869.993 1
  23366825.753      984854.760 5    767419.553 1
  21103131.948    -2938642.599 7  -2217681.602 3
  24270040.886    -2303980.045 4   -692687.534 1
  24447081.503     -189232.776 4    -40532.484 1
  22426619.815    -5725425.948 6  -4331409.237 1
  19993403.542    -2934666.245 7  -2213613.702 4
 95 12 29  1  7 59.9990000  0  8 19 18 31 02 15 16 07 27
  20675888.144    -1099499.155 7   -827456.370 3
  23634609.394     1734824.202 5   1351810.697 1
  23373137.394     1018021.731 5    793263.951 1
  21086853.456    -3024198.010 7  -2284348.130 3
  24246019.229    -2430202.541 4   -791042.646 1
  24445215.620     -199012.079 4    -48152.677 1
  22396149.823    -5885542.277 6  -4456175.153 1
  19977506.269    -3018199.172 7  -2278704.284 4
 95 12 29  1  8 29.9990000  0  8 19 18 31 02 15 16 07 27
  20670793.683    -1126274.696 7   -848320.430 3
  23643889.323     1783593.678 5   1389812.872 1
  23379504.612     1051484.896 5    819339.151 1
  21070605.854    -3109578.634 7  -2350878.463 3
  24222039.659    -2556219.825 4   -889237.905 1
  24443396.464     -208576.167 3    -55605.230 1
  22365716.464    -6045464.917 6  -4580790.146 1
  19961670.558    -3101413.498 7  -2343546.607 4
 95 12 29  1  8 59.9990000  0  8 19 18 31 02 15 16 07 27
  20665754.917    -1152755.117 7   -868954.518 3
  23653183.729     1832423.897 5   1427862.381 1
  23385921.058     1085214.099 5    845621.646 1
  21054389.425    -3194792.735 7  -2417279.044 3
  24198098.190    -2682034.276 3   -987275.091 1
  24441617.839     -217911.359 3    -62879.397 1
  22335323.229    -6205190.746 6  -4705251.783 1
  19945898.597    -3184308.102 7  -2408139.795 4
 95 12 29  1  9 29.9990000  0  8 19 18 31 02 15 16 07 27
  20660768.425    -1178949.108 7   -889365.421 3
  23662486.237     1881309.979 5   1465955.407 1
  23392386.058     1119178.610 5    872087.510 1
  21038206.534    -3279835.061 7  -2483545.769 3
  24174199.229    -2807642.351 3  -1085151.473 1
  24439885.573     -227015.608 3    -69973.620 1
  22304966.792    -6364711.998 6  -4829554.021 1
  19930181.651    -3266893.609 7  -2472492.132 4
 95 12 29  1  9 59.9990000  0  8 19 18 31 02 15 26 07 27
  20655840.175    -1204857.381 7   -909553.690 3
  23671799.026     1930251.444 5   1504091.569 1
  23398894.214     1153381.278 5    898738.945 1
  21022059.409    -3364700.017 7  -2549674.288 3
  24150337.362    -2933033.708 3  -1182858.974 1
  24403348.800          -0.74314
  22274650.714    -6524019.663 6  -4953689.822 1
  19914524.386    -3349156.550 7  -2536593.116 4
 95 12 29  1 10 29.9990000  0  8 19 18 31 02 15 26 07 27
  20650959.487    -1230493.053 7   -929529.531 3
  23681115.136     1979212.704 5   1542243.182 1
  23405440.597     1187777.044 5    925540.845 1
  21005935.284    -3449418.338 7  -2615688.546 3
  24126507.183    -3058226.505 3  -1280411.776 1
  24374632.581     -150913.789 3
  22244373.456    -6683130.088 6  -5077671.932 1
  19898932.745    -3431105.445 7  -2600449.393 4
 95 12 29  1 10 59.9980000  0  8 19 18 31 02 15 26 07 27
  20646138.256    -1255841.743 7   -949281.758 3
  23690436.490     2028189.010 5   1580406.510 1
  23412023.178     1222376.995 5    952501.847 1
  20989846.717    -3533967.264 7  -2681570.810 3
  24102728.725    -3183202.551 3  -1377795.652 1
  24345959.834     -301596.316 3        -0.24111
  22214138.076    -6842013.910 6  -5201477.477 1
  19883401.678    -3512728.502 7  -2664051.763 4
 95 12 29  1 11 29.9980000  0  8 19 18 31 02 15 26 07 27
  20641370.482    -1280897.523 7   -968805.742 3
  23699756.529     2077174.510 5   1618577.010 1
  23418649.639     1257195.363 5    979633.051 1
  20973788.982    -3618344.920 7  -2747319.617 3
  24078983.061    -3307975.823 3  -1475021.546 1
  24317321.701     -452055.838 2   -117241.397 1
  22183943.709    -7000692.878 6  -5325123.384 1
  19867928.279    -3594038.193 7  -2727409.950 4
 95 12 29  1 11 59.9980000  0  8 19 18 31 02 15 26 07 27
  20636659.732    -1305646.837 7   -988090.908 3
  23709083.725     2126186.961 5   1656768.515 1
  23425322.654     1292255.718 5   1006952.822 1
  20957772.904    -3702520.124 7  -2812910.665 3
  24055283.717    -3432526.161 3  -1572073.706 1
  24288741.076     -602263.337 2   -234286.176 1
  22153791.193    -7159142.899 6  -5448590.900 1
  19852519.365    -3675011.941 7  -2790506.372 4
 95 12 29  1 12 29.9980000  0  8 19 18 31 02 15 26 07 27
  20632005.443    -1330101.414 7  -1007146.430 3
  23718412.545     2175208.552 5   1694967.135 1
  23432035.545     1327533.658 5   1034442.132 1
  20941791.256    -3786508.002 7  -2878355.746 3
  24031624.303    -3556866.973 3  -1668962.604 1
  24260206.092     -752236.451 2   -351148.281 1
  22123681.225    -7317369.776 6  -5571884.540 1
  19837167.826    -3755678.127 7  -2853363.129 4
 95 12 29  1 12 59.9980000  0  8 19 18 31 02 15 26 07 27
  20627406.896    -1354269.345 7  -1025978.590 3
  23727742.186     2224244.823 5   1733177.214 1
  23438791.678     1363048.930 5   1062116.377 1
  20925845.881    -3870296.253 7  -2943645.278 3
  24008006.529    -3680989.320 3  -1765681.266 1
  24231705.068     -901971.917 2   -467825.216 1
  22093617.701    -7475362.901 6  -5694996.025 1
  19821878.061    -3836026.612 7  -2915972.330 4
 95 12 29  1 13 29.9980000  0  8 19 18 31 02 15 26 07 27
  20622865.545    -1378135.553 7  -1044575.627 3
  23737082.990     2273325.402 4   1771421.784 1
  23445592.857     1398801.847 5   1089975.801 1
  20909937.014    -3953879.536 7  -3008775.089 3
  23984428.639    -3804873.938 3  -1862214.699 1
  24203263.857    -1051453.497 2   -584304.346 1
  22063599.545    -7633110.478 6  -5817916.177 1
  19806655.467    -3916038.175 7  -2978318.994 4
 95 12 29  1 13 59.9980000  0  8 19 18 31 02 15 26 07 27
  20618378.959    -1401707.586 7  -1062943.444 3
  23746431.865     2322446.483 4   1809697.942 1
  23452442.053     1434772.386 5   1118004.800 1
  20894071.209    -4037282.786 7  -3073764.617 3
  23960904.186    -3928522.841 3  -1958564.437 1
  24174866.787    -1200691.531 3   -700593.686 1
  22033627.334    -7790614.515 6  -5940646.555 1
  19791492.725    -3995706.654 7  -3040398.321 4
 95 12 29  1 14 29.9980000  0  8 19 18 31 02 15 26 07 27
  20613953.373    -1424979.602 7  -1081077.482 3
  23755783.350     2371592.708 4   1847993.683 1
  23459336.990     1470971.299 5   1146211.749 1
  20878224.045    -4120530.233 7  -3138632.740 3
  23937410.389    -4051935.772 3  -2054730.321 1
  24146509.951    -1349700.758 3   -816704.738 1
  22003699.061    -7947882.152 6  -6063192.719 1
  19776399.545    -4075033.059 7  -3102211.093 4
 95 12 29  1 14 59.9980000  0  8 19 18 31 02 15 26 07 27
  20609584.568    -1447930.019 7  -1098960.919 3
  23765144.701     2420786.863 4   1886326.781 1
  23466266.584     1507425.470 5   1174617.605 1
  20862421.123    -4203601.727 7  -3203363.752 3
  23913983.615    -4175097.107 4  -2150700.137 1
  24118198.717    -1498471.445 3   -932629.919 1
  21973818.701    -8104905.425 6  -6185548.476 1
  19761369.115    -4153995.626 7  -3163740.359 4
 95 12 29  1 15 29.9980000  0  8 19 18 31 02 15 26 07 27
  20605281.686    -1470540.118 7  -1116579.177 3
  23774515.006     2470023.114 5   1924692.696 1
  23473252.295     1544119.377 5   1203210.260 1
  20846643.670    -4286509.071 7  -3267966.860 3
  23890584.717    -4298013.626 4  -2246479.216 1
  24089928.600    -1647017.904 4  -1048380.365 1
  21943980.982    -8261701.328 6  -6307727.051 1
  19746410.936    -4232609.322 7  -3224997.780 4
 95 12 29  1 15 59.9980000  0  8 19 18 31 02 15 26 07 27
  20601042.068    -1492818.494 7  -1133938.943 3
  23783886.584     2519281.824 5   1963076.070 1
  23480280.553     1581049.141 5   1231986.710 1
  20830896.037    -4369261.871 7  -3332449.547 3
  23867241.654    -4420697.726 4  -2342077.172 1
  24061708.967    -1795352.592 4  -1163965.803 1
  21914182.115    -8418295.147 6  -6429748.170 2
  19731515.365    -4310884.901 7  -3285991.729 4
 95 12 29  1 16 29.9980000  0  8 19 18 31 02 15 26 07 27
  20596869.592    -1514742.570 7  -1151022.635 3
  23793271.654     2568586.654 5   2001495.434 1
  23487351.717     1618227.441 5   1260956.818 1
  20815184.740    -4451823.813 7  -3396783.504 3
  23843944.717    -4543123.285 4  -2437473.666 1
  24033522.240    -1943449.066 4  -1279365.631 1
  21884427.178    -8574657.361 6  -6551588.804 2
  19716689.147    -4388805.051 7  -3346708.728 4
 95 12 29  1 16 59.9980000  0  8 19 18 31 02 15 26 07 27
  20592760.748    -1536339.730 7  -1167851.587 3
  23802655.357     2617913.643 5   2039932.066 1
  23494461.514     1655603.043 5   1290080.672 1
  20799509.600    -4534208.402 7  -3460979.271 3
  23820694.928    -4665307.344 4  -2532681.982 1
  24005383.967    -2091306.958 4  -1394579.520 1
  21854715.178    -8730799.168 6  -6673257.700 2
  19701925.881    -4466378.083 7  -3407155.238 4
 95 12 29  1 17 29.9980000  0  8 19 18 31 02 15 26 07 27
  20588713.693    -1557613.965 7  -1184428.915 3
  23812045.248     2667249.808 5   2078375.807 1
  23501614.764     1693175.682 5   1319358.074 1
  20783866.717    -4616408.475 7  -3525031.258 3
  23797490.990    -4787229.356 4  -2627686.101 1
  23977307.318    -2238880.251 4  -1509571.666 1
  21825050.834    -8886690.762 6  -6794731.621 2
  19687234.436    -4543581.889 7  -3467314.041 4
 95 12 29  1 17 59.9980000  0  8 19 18 31 02 15 26 07 27
  20584718.318    -1578606.692 7  -1200786.880 3
  23821428.014     2716564.317 5   2116802.690 1
  23508800.600     1730932.033 5   1348778.619 1
  20768252.873    -4698437.990 7  -3588950.345 3
  23774335.795    -4908900.919 4  -2722495.080 1
  23949275.092    -2386169.862 4  -1624342.752 1
  21795432.725    -9042326.803 6  -6916006.417 2
  19672614.795    -4620425.291 7  -3527192.009 4
 95 12 29  1 18 29.9980000  0  8 19 18 31 02 15 26 07 27
  20580775.459    -1599319.755 7  -1216926.924 3
  23830810.568     2765849.824 5   2155206.997 1
  23516020.756     1768874.307 5   1378344.043 1
  20752679.553    -4780298.274 7  -3652737.563 3
  23751236.990    -5030311.221 5  -2817100.466 1
  23921305.389    -2533167.826 4  -1738886.585 1
  21765870.178    -9197672.860 6  -7037055.252 2
  19658056.498    -4696900.474 7  -3586783.055 4
 95 12 29  1 18 59.9980000  0  8 19 18 31 02 15 26 07 27
  20576885.928    -1619761.032 7  -1232855.191 3
  23840174.896     2815090.912 5   2193576.674 1
  23523276.670     1807014.795 5   1408063.911 1
  20737130.857    -4861994.879 7  -3716397.240 3
  23728178.459    -5151461.106 5  -2911502.944 1
  23893384.920    -2679876.439 4  -1853204.959 1
  21736366.029    -9352730.285 6  -7157879.171 2
  19643577.756    -4773016.376 7  -3646094.139 4
 95 12 29  1 19 29.9980000  0  8 19 18 31 02 15 26 07 27
  20573047.545    -1639933.765 7  -1248574.206 3
  23849539.459     2864285.864 5   2231910.396 1
  23530575.600     1845357.131 5   1437941.060 1
  20721615.498    -4943529.869 7  -3779930.982 3
  23705174.646    -5272354.751 5  -3005705.759 1
  23865521.795    -2826316.001 5  -1967313.682 1
  21706911.709    -9507509.237 6  -7278486.105 2
  19629158.928    -4848789.010 7  -3705137.751 4
 95 12 29  1 19 59.9980000  0  8 19 18 31 02 15 26 07 27
  20569265.443    -1659809.492 7  -1264061.782 3
  23858900.061     2913470.711 4   2270236.231 1
  23537905.326     1883908.598 5   1467981.172 1
  20706133.873    -5024885.121 7  -3843324.672 3
  23682223.498    -5392980.323 5  -3099699.673 1
  23837702.592    -2972497.852 5  -2081221.598 1
  21677511.154    -9662013.844 6  -7398879.249 2
  19614801.654    -4924219.602 7  -3763914.824 4
 95 12 29  1 20 29.9980000  0  8 19 18 31 02 15 26 07 27
  20565542.920    -1679367.957 7  -1279302.144 3
  23868260.647     2962662.052 4   2308567.128 1
  23545282.732     1922663.859 5   1498180.086 1
  20690691.186    -5106044.806 7  -3906565.971 3
  23659321.982    -5513323.707 5  -3193473.707 1
  23809936.264    -3118412.650 5  -2194921.413 1
  21648159.482    -9816253.389 6  -7519065.861 2
  19600513.475    -4999307.031 7  -3822424.501 4
 95 12 29  1 20 59.9980000  0  8 19 18 31 02 15 26 07 27
  20561880.568    -1698617.412 7  -1294301.721 3
  23877620.475     3011862.082 4   2346904.788 1
  23552694.943     1961604.707 5   1528523.612 1
  20675282.693    -5187013.885 7  -3969658.742 3
  23636470.225    -5633387.777 5  -3287030.096 1
  23782219.092    -3264054.285 5  -2308408.385 1
  21618854.428    -9970256.155 6  -7639067.966 2
  19586289.147    -5074056.338 7  -3880670.715 4
 95 12 29  1 21 29.9980000  0  8 19 18 31 02 15 26 07 27
  20558279.100    -1717543.424 7  -1309049.264 3
  23886989.147     3061084.099 4   2385259.579 1
  23560141.975     2000727.873 5   1559009.197 1
  20659910.248    -5267786.187 7  -4032598.177 3
  23613684.232    -5753159.436 5  -3380358.637 1
  23754563.232    -3409403.638 5  -2421667.607 1
  21589594.771   -10124017.108 6  -7758881.642 2
  19572133.850    -5148450.607 7  -3938640.264 4
 95 12 29  1 21 59.9980000  0  8 19 18 31 02 15 26 07 27
  20554738.873    -1736144.791 7  -1323543.835 3
  23896358.326     3110318.673 4   2423624.153 1
  23567623.490     2040030.230 5   1589634.430 1
  20644573.709    -5348376.480 7  -4095395.801 3
  23590947.701    -5872639.243 5  -3473459.772 1
  23726958.014    -3554457.306 5  -2534696.415 1
  21560379.396   -10277535.609 6  -7878506.390 2
  19558045.178    -5222489.680 7  -3996333.046 4
 95 12 29  1 22 29.9980000  0  8 19 18 31 02 15 26 07 27
  20551261.709    -1754417.207 7  -1337782.084 3
  23905725.154     3159549.036 4   2461985.427 1
  23575130.311     2079518.078 5   1620404.178 1
  20629273.584    -5428798.513 7  -4158062.304 3
  23568262.842    -5991823.381 5  -3566330.516 1
  23699413.350    -3699208.408 5  -2647489.459 1
  21531216.873   -10430795.760 6  -7997929.830 2
  19544024.357    -5296153.290 7  -4053733.257 4
 95 12 29  1 22 59.9980000  0  8 19 18 31 02 15 26 07 27
  20547851.022    -1772339.848 7  -1351747.778 3
  23915097.779     3208783.385 3   2500349.830 1
  23582684.904     2119206.167 5   1651329.975 1
  20613998.553    -5509056.201 7  -4220600.749 3
  23545646.857    -6110705.673 5  -3658966.036 1
  23671931.701    -3843655.546 4  -2760045.653 1
  21502104.607   -10583773.914 6  -8117133.527 2
  19530083.998    -5369425.178 7  -4110828.229 4
 95 12 29  1 23 29.9970000  0  8 19 18 31 02 15 26 07 27
  20544515.993    -1789872.898 7  -1365409.905 3
  23924467.579     3258032.613 3   2538725.790 1
  23590276.821     2159109.429 5   1682423.425 1
  20598761.774    -5589126.501 7  -4282993.180 3
  23523083.126    -6229263.320 5  -3751348.608 1
  23644498.626    -3987793.122 4  -2872360.612 1
  21473056.009   -10736431.680 6  -8236087.578 2
  19516216.517    -5442289.091 7  -4167605.301 4
 95 12 29  1 23 59.9970000  0  8 19 18 31 02 15 26 07 27
  20541253.790    -1807015.370 7  -1378767.673 3
  23933846.431     3307303.231 3   2577118.405 1
  23597911.149     2199224.704 5   1713682.076 1
  20583557.743    -5669027.156 7  -4345253.417 3
  23500581.798    -6347507.352 5  -3843486.781 1
  23617122.165    -4131643.222 4  -2984451.563 1
  21444065.782   -10888771.342 6  -8354793.752 2
  19502425.938    -5514747.848 7  -4224066.669 4
 95 12 29  1 24 29.9970000  0  8 19 18 31 02 15 26 07 27
  20538059.665    -1823798.046 7  -1391845.083 3
  23943218.376     3356573.210 3   2615510.547 1
  23605577.079     2239526.372 4   1745085.962 1
  20568386.251    -5748766.275 7  -4407387.782 3
  23478139.439    -6465447.523 5  -3935388.194 1
  23589800.673    -4275220.566 4  -3096329.979 1
  21415137.548   -11040800.979 6  -8473258.355 2
  19488711.454    -5586820.619 7  -4280227.265 4
 95 12 29  1 24 59.9970000  0  8 19 18 31 02 15 26 07 27
  20534930.345    -1840240.735 7  -1404657.576 3
  23952592.767     3405838.734 3   2653899.215 1
  23613285.673     2280008.221 4   1776630.257 1
  20553244.204    -5828330.583 7  -4469385.932 3
  23455753.923    -6583077.583 5  -4027047.941 1
  23562536.642    -4418514.553 4  -3207987.617 1
  21386265.907   -11192519.519 6  -8591480.547 2
  19475069.337    -5658518.437 7  -4336095.689 4
 95 12 29  1 25 29.9970000  0  8 19 18 31 02 15 26 07 27
  20531864.126    -1856361.806 7  -1417219.451 3
  23961966.251     3455080.575 4   2692269.433 1
  23621024.751     2320672.164 4   1808316.441 1
  20538135.228    -5907708.593 7  -4531238.913 3
  23433430.243    -6700389.596 5  -4118459.868 1
  23535323.564    -4561505.180 4  -3319408.839 1
  21357452.868   -11343929.174 6  -8709462.051 2
  19461498.798    -5729837.539 7  -4391669.012 4
 95 12 29  1 25 59.9970000  0  8 19 18 31 02 15 26 07 27
  20528851.837    -1872191.270 7  -1429554.102 3
  23971328.634     3504280.065 3   2730606.640 1
  23628791.243     2361517.531 4   1840143.994 1
  20523067.524    -5986909.757 7  -4592954.095 3
  23411166.329    -6817384.393 5  -4209624.619 1
  23508172.540    -4704177.043 4  -3430581.688 1
  21328695.259   -11495046.728 6  -8827215.944 2
  19448000.946    -5800771.158 7  -4446941.958 4
 95 12 29  1 26 29.9970000  0  8 19 18 31 02 15 26 07 27
  20525892.837    -1887733.134 7  -1441664.646 3
  23980678.399     3553423.003 4   2768899.779 1
  23636614.579     2402544.558 4   1872113.103 1
  20508032.009    -6065917.965 7  -4654518.919 3
  23388964.454    -6934050.819 5  -4300533.514 1
  23481087.438    -4846509.947 4  -3541490.429 1
  21299994.345   -11645874.221 6  -8944743.805 2
  19434576.196    -5871316.982 7  -4501912.730 4
 95 12 29  1 26 59.9970000  0  8 19 18 31 02 15 26 07 27
  20522992.657    -1902968.505 7  -1453536.369 3
  23990022.806     3602520.530 4   2807157.547 1
  23644441.235     2443765.154 4   1904233.052 1
  20493035.743    -6144734.088 7  -4715934.073 3
  23366830.798    -7050377.688 5  -4391177.790 1
  23454073.931    -4988483.665 4  -3652119.259 1
  21271347.564   -11796411.372 6  -9062045.450 2
  19421227.040    -5941458.849 7  -4556568.726 4
 95 12 29  1 27 29.9970000  0  8 19 18 31 02 15 26 07 27
  20520149.368    -1917910.689 7  -1465179.636 3
  23999354.079     3651552.924 3   2845364.520 1
  23652323.415     2485151.259 4   1936481.955 1
  20478063.134    -6223402.160 7  -4777233.852 3
  23344749.564    -7166389.492 5  -4481576.581 1
  23427116.860    -5130126.105 4  -3762489.960 1
  21242752.509   -11946685.761 6  -9179142.337 2
  19407955.228    -6011221.409 7  -4610929.158 4
 95 12 29  1 27 59.9970000  0  8 19 18 31 02 15 26 07 27
  20517363.423    -1932551.141 7  -1476587.786 3
  24008676.610     3700541.061 3   2883537.062 1
  23660228.774     2526691.316 4   1968850.845 1
  20463118.384    -6301931.082 7  -4838425.219 3
  23322739.032    -7282087.013 5  -4571730.469 1
  23400229.485    -5271440.613 4  -3872605.136 1
  21214207.579   -12096689.369 6  -9296028.230 2
  19394750.017    -6080610.091 7  -4664998.260 4
 95 12 29  1 28 29.9970000  0  8 19 18 31 02 15 26 07 27
  20514641.415    -1946857.933 7  -1487735.947 3
  24017995.915     3749516.984 3   2921700.090 1
  23668161.642     2568403.695 5   2001353.995 1
  20448209.118    -6380288.834 7  -4899483.199 3
  23300786.837    -7397448.886 5  -4661622.822 1
  23373401.243    -5412408.670 4  -3982450.354 1
  21185720.438   -12246385.899 6  -9412674.843 2
  19381619.626    -6149612.287 7  -4718766.203 4
 95 12 29  1 28 59.9970000  0  8 19 18 31 02 15 26 07 27
  20511980.001    -1960845.635 7  -1498635.458 3
  24027310.196     3798466.076 4
  23676135.735     2610273.166 5   2033979.568 1
  20433328.595    -6458497.677 7  -4960425.146 3
  23278891.712    -7512492.457 5  -4751267.129 1
  23346635.103    -5553052.630 4  -4092043.016 1
  21157292.563   -12395780.898 6  -9529086.497 2
  19368557.079    -6218237.990 7  -4772240.773 4
 95 12 29  1 29 29.9970000  0  8 19 18 31 02 15 26 07 27
  20509379.985    -1974510.334 7  -1509283.280 3
  24036616.767     3847387.204 4        -0.46111
  23684127.837     2652287.444 5   2066717.979 1
  20418477.392    -6536536.935 7  -5021234.947 4
  23257061.157    -7627210.017 5  -4840657.437 1
  23319936.103    -5693369.480 4  -4201380.799 1
  21128924.665   -12544842.622 6  -9645238.449 2
  19355572.571    -6286481.109 7  -4825417.226 4
 95 12 29  1 29 59.9970000  0  8 19 18 31 02 15 26 07 27
  20506841.657    -1987847.193 7  -1519675.642 3
  24045924.571     3896279.938 3     38097.646 1
  23692149.907     2694452.394 5   2099573.832 1
  20403663.501    -6614382.286 7  -5081893.655 3
  23235296.282    -7741588.523 4  -4929783.543 1
  23293301.376    -5833351.509 4  -4310457.675 1
  21100626.282   -12693556.393 6  -9761119.278 2
  19342664.579    -6354321.015 7  -4878279.490 4
 95 12 29  1 30 29.9970000  0  8 19 18 31 02 15 26 07 27
  20504362.759    -2000876.098 7  -1529828.041 3
  24055215.298     3945112.369 3     76148.863 1
  23700199.095     2736750.433 5   2132533.360 1
  20388881.556    -6692053.220 7  -5142416.454 3
  23213591.681    -7855637.341 5  -5018652.742 1
  23266720.110    -5973027.085 5  -4419295.762 1
  21072391.095   -12841934.393 6  -9876738.465 2
  19329829.095    -6421768.464 7  -4930835.939 4
 95 12 29  1 30 59.9970000  0  8 19 18 31 02 15 26 07 27
  20501942.446    -2013591.829 7  -1539736.411 3
  24064494.704     3993880.810 3    114150.210 1
  23708273.142     2779168.089 5   2165586.087 1
  20374133.985    -6769563.221 7  -5202813.845 3
  23191956.243    -7969344.407 4  -5107255.631 1
  23240200.564    -6112393.833 5  -4527893.205 1
  21044219.923   -12989973.549 6  -9992093.618 2
  19317068.813    -6488815.234 7  -4983080.175 4
 95 12 29  1 31 29.9970000  0  8 19 18 31 02 15 26 07 27
  20499580.790    -2025995.764 7  -1549401.815 3
  24073762.017     4042572.048 3    152091.515 1
  23716361.290     2821692.660 5   2198722.151 1
  20359414.993    -6846912.961 7  -5263086.361 3
  23170380.743    -8082712.448 4  -5195594.339 1
  23213736.438    -6251462.571 5  -4636258.448 1
  21016109.610   -13137695.401 6 -10107201.523 2
  19304383.853    -6555470.941 7  -5035019.679 4
 95 12 29  1 31 59.9970000  0  8 19 18 31 02 15 26 07 27
  20497282.329    -2038073.910 7  -1558813.369 3
  24083011.290     4091194.849 3    189979.480 1
  23724478.985     2864337.619 5   2231952.013 1
  20344723.524    -6924110.623 7  -5323240.374 4
  23148869.134    -8195734.681 4  -5283663.613 1
  23187332.274    -6390227.383 5  -4744386.862 1
  20988054.892   -13285129.473 6 -10222085.191 2
  19291777.767    -6621726.362 7  -5086647.279 3
 95 12 29  1 32 29.9970000  0  8 19 18 31 02 15 26 07 27
  20495047.415    -2049822.856 7  -1567968.391 3
  24092253.720     4139754.815 2    227818.460 1
  23732616.189     2907088.784 5   2265264.634 1
  20330059.548    -7001160.156 7  -5383278.963 3
  23127433.938    -8308408.088 4  -5371461.054 1
  23160984.954    -6528683.511 5  -4852274.748 1
  20960051.845   -13432283.047 6 -10336750.283 2
  19279248.595    -6687577.737 7  -5137960.035 3
 95 12 29  1 32 59.9970000  0  7 19 31 02 15 26 07 27
  20492876.845    -2061232.671 7  -1576859.165 3
  23740772.509     2949953.706 5   2298665.889 1
  20315432.337    -7078044.944 7  -5443189.179 4
  23106054.634    -8420730.282 4  -5458984.809 1
  23134699.603    -6666809.991 5  -4959905.754 1
  20932101.618   -13579157.486 6 -10451197.863 2
  19266794.126    -6753009.253 7  -5188945.630 4
 95 12 29  1 33 29.9970000  0  7 19 31 02 15 26 07 27
  20490775.032    -2072286.078 7  -1585472.216 3
  23748957.267     2992969.145 5   2332184.446 1
  20300836.017    -7154736.338 7  -5502948.699 3
  23084757.259    -8532685.057 5  -5546222.266 1
  23108480.423    -6804580.297 5  -5067259.227 1
  20904210.462   -13725734.827 6 -10565413.941 2
  19254429.892    -6818000.651 7  -5239588.277 3
 95 12 29  1 33 59.9970000  0  7 19 31 02 15 26 07 27
  20488734.345    -2083002.350 7  -1593822.564 3
  23757166.767     3036112.054 4   2365802.311 1
  20286275.532    -7231254.243 7  -5562573.029 4
  23063521.751    -8644280.910 5  -5633180.053 1
  23082331.337    -6941996.840 5  -5174337.037 1
  20876375.946   -13871999.088 6 -10679386.057 2
  19242139.993    -6882569.654 7  -5289901.784 3
 95 12 29  1 34 29.9970000  0  7 19 31 02 15 26 07 27
  20486758.384    -2093387.111 7  -1601914.591 3
  23765405.954     3079384.961 4   2399521.446 1
  20271749.962    -7307587.063 7  -5622053.143 3
  23042352.079    -8755512.517 5  -5719854.017 1
  23056252.353    -7079052.006 5  -5281133.261 1
  20848609.431   -14017916.147 6 -10793087.637 2
  19229932.939    -6946716.854 7  -5339886.617 4
 95 12 29  1 34 59.9970000  0  8 19 18 31 02 15 26 07 27
  20484847.962    -2103434.461 7  -1609743.702 2
  24138327.540          -0.39312
  23773667.040     3122817.224 3   2433364.770 1
  20257261.251    -7383725.958 7  -5681382.142 4
  23021256.063    -8866369.228 5  -5806235.833 1
  23030241.829    -7215732.941 5  -5387637.862 1
  20820910.571   -14163476.365 6 -10906511.153 2
  19217805.759    -7010445.097 7  -5389544.987 3
 95 12 29  1 35 29.9960000  0  8 19 18 31 02 15 26 07 27
  20482997.020    -2113150.634 7  -1617314.752 2
  24147507.941       48250.807 2
  23781960.207     3166391.312 3   2467318.617 1
  20242805.379    -7459684.060 7  -5740570.267 3
  23000235.824    -8976842.865 5  -5892319.156 1
  23004303.129    -7352037.843 5  -5493849.464 1
  20793280.707   -14308669.503 6 -11019648.627 2
  19205758.129    -7073775.753 7  -5438893.554 3
 95 12 29  1 35 59.9960000  0  8 19 18 31 02 15 26 07 27
  20481209.707    -2122544.902 7  -1624634.964 3
  24156673.449       96421.352 2        -0.28011
  23790272.926     3210093.117 2   2501371.957 1
  20228385.105    -7535486.737 7  -5799637.275 4
  22979285.027    -9086942.368 5  -5978110.946 1
  22978428.293    -7487984.489 5  -5599781.888 1
  20765719.098   -14453506.377 6 -11132508.489 2
  19193776.746    -7136724.270 7  -5487944.344 3
 95 12 29  1 36 29.9960000  0  8 19 18 31 02 15 26 07 27
  20479480.824    -2131632.827 7  -1631716.476 2
  24165821.012      144482.263 2     37449.783 1
  23798617.566     3253922.929 2   2535525.050 1
  20213983.926    -7611148.720 7  -5858594.647 4
  22958406.762    -9196675.549 5  -6063617.290 1
  22952630.559    -7623583.863 5  -5705443.730 1
  20738221.379   -14598014.453 6 -11245112.151 3
  19181871.645    -7199289.177 7  -5536696.216 3
 95 12 29  1 36 59.9960000  0  8 19 18 31 02 15 26 07 27
  20477812.871    -2140401.975 7  -1638549.588 3
  24174949.871      192450.248 3     74827.474 1
  23806979.246     3297881.144 2   2569778.181 1
  20199615.512    -7686668.381 7  -5917441.135 4
  22937591.059    -9306026.900 5  -6148826.103 1
  22926895.027    -7758831.646 5  -5810831.585 1
  20710783.981   -14742189.648 6 -11357456.420 2
  19170037.879    -7261459.075 7  -5585140.288 3
 95 12 29  1 37 29.9960000  0  8 19 18 31 02 15 26 07 27
  20476205.840    -2148842.378 7  -1645126.533 3
  24184063.340      240336.109 3    112141.103 1
  23815367.582     3341948.485 2   2604116.367 1
  20185267.551    -7762059.271 7  -5976187.272 4
  22916856.191    -9414995.304 5  -6233736.517 1
  22901221.441    -7893732.292 5  -5915948.979 1
  20683415.176   -14886017.235 6 -11469529.829 2
  19158286.754    -7323226.777 7  -5633270.964 3
 95 12 29  1 37 59.9960000  0  8 19 18 31 02 15 26 07 27
  20474663.746    -2156944.501 7  -1651439.883 2
  24193161.488      288158.228 3    149405.131 1
  23823774.238     3386147.716 2   2638557.317 1
  20170951.137    -7837293.775 7  -6034811.555 4
  22896198.816    -9523565.772 5  -6318336.852 1
  22875618.777    -8028269.230 5  -6020782.936 1
  20656113.527   -15029485.871 6 -11581323.539 2
  19146614.129    -7384555.727 7  -5681059.759 3
 95 12 29  1 38 29.9960000  0  8 19 18 31 02 15 26 07 27
  20473186.387    -2164706.405 7  -1657488.134 2
  24202246.832      335915.886 3    186618.912 1
  23832208.652     3430466.468 3   2673091.391 1
  20156669.613    -7912350.339 7  -6093297.177 4
  22875608.051    -9631738.671 5  -6402627.386 1
  22850089.457    -8162435.623 5  -6125328.149 1
  20628879.887   -15172601.493 6 -11692842.172 3
  19135028.848    -7445435.776 7  -5728498.751 3
 95 12 29  1 38 59.9960000  0  8 19 18 31 02 15 26 07 27
  20471772.895    -2172138.595 7  -1663279.457 2
  24211324.785      383614.293 4    223786.556 1
  23840662.980     3474878.371 3   2707698.063 1
  20142416.293    -7987232.946 7  -6151647.250 4
  22855101.410    -9739519.017 5  -6486612.045 1
  22824630.809    -8296225.147 5  -6229579.719 1
  20601711.895   -15315365.141 6 -11804086.542 3
  19123529.340    -7505881.781 7  -5775599.537 3
 95 12 29  1 39 29.9960000  0  8 19 18 31 02 15 26 07 27
  20470419.176    -2179246.942 7  -1668818.436 2
  24220387.535      431256.750 4    260910.576 1
  23849128.699     3519389.374 4   2742381.949 1
  20128204.949    -8061929.374 7  -6209852.251 4
  22834671.988    -9846899.114 5  -6570284.826 1
  22799245.402    -8429616.901 5  -6333521.343 1
  20574614.770   -15457767.433 6 -11915049.339 3
  19112105.340    -7565895.115 7  -5822363.174 3
 95 12 29  1 39 59.9960000  0  8 19 18 31 02 15 26 07 27
  20469123.027    -2186064.037 7  -1674130.475 2
  24229442.238      478815.693 5    297969.547 1
  23857617.191     3563984.203 4   2777131.158 1
  20114023.121    -8136442.884 7  -6267914.718 3
  22814309.035    -9953897.685 5  -6653660.299 1
  22773934.332    -8562622.300 5  -6437161.892 1
  20547579.887   -15599838.547 6 -12025754.073 3
  19100766.465    -7625501.842 7  -5868809.972 3
 95 12 29  1 40 29.9960000  0  8 19 18 31 02 15 26 07 27
  20467881.371    -2192587.331 6  -1679213.571 2
  24238478.879      526296.412 4    334967.471 1
  23866117.590     3608660.135 5   2811943.588 1
  20099875.621    -8210780.951 7  -6325840.478 4
  22794018.184   -10060510.477 5  -6736735.175 1
  22748698.957    -8695245.113 5  -6540504.335 1
  20520609.527   -15741570.287 6 -12136194.359 3
  19089501.207    -7684705.921 7  -5914943.023 3
 95 12 29  1 40 59.9960000  0  8 19 18 31 02 15 26 07 27
  20466698.434    -2198803.556 6  -1684057.393 2
  24247495.926      573693.851 4
  23874641.707     3653436.777 5   2846834.495 1
  20085762.410    -8284956.830 7  -6383639.854 4
  22773806.004   -10166724.718 5  -6819499.496 1
  22723535.418    -8827485.283 5  -6643548.605 1
  20493706.301   -15882945.966 6 -12246357.203 3
  19078311.715    -7743503.027 7  -5960758.949 3
 95 12 29  1 41 29.9960000  0  8 19 18 31 02 15 26 07 27
  20465576.598    -2204691.954 6  -1688645.773 2
  24256501.074      621004.589 4
  23883183.457     3698336.397 5   2881821.222 1
  20071680.238    -8358956.758 7  -6441302.126 3
  22753674.254   -10272528.380 5  -6901943.888 1
  22698442.543    -8959335.879 5  -6746289.329 1
  20466872.871   -16023948.303 6 -12356229.127 3
  19067203.840    -7801878.571 7  -6006246.386 3
 95 12 29  1 41 59.9960000  0  8 19 18 31 02 15 26 07 27
  20464519.082    -2210251.655 6  -1692978.013 2
  24265483.957      668211.153 4
  23891755.613     3743349.644 5   2916896.506 1
  20057631.270    -8432795.444 7  -6498838.756 3
  22733616.379   -10377930.722 5  -6984075.551 1
  22673423.707    -9090816.717 5  -6848741.922 1
  20440109.223   -16164590.971 6 -12465820.785 3
  19056174.348    -7859826.741 7  -6051400.811 3
 95 12 29  1 42 29.9960000  0  8 19 18 31 02 15 26 07 27
  20463526.309    -2215470.870 6  -1697044.945 2
  24274445.270      715305.698 4
  23900333.488     3788474.679 5   2952058.877 1
  20043608.004    -8506475.705 7  -6556251.937 4
  22713633.262   -10482923.557 5  -7065888.121 1
  22648475.543    -9221927.422 5  -6950906.083 1
  20413417.629   -16304868.128 6 -12575127.639 3
  19045233.488    -7917333.740 7  -6096211.451 3
 95 12 29  1 42 59.9960000  0  8 19 18 31 02 15 26 07 27
  20462596.152    -2220357.497 6  -1700852.716 2
  24283379.426      762269.706 3
  23908939.418     3833684.504 5   2987287.297 1
  20029614.754    -8580015.803 7  -6613555.901 4
  22693733.832   -10587517.122 5  -7147389.578 1
  22623595.277    -9352673.086 5  -7052785.814 1
  20386788.574   -16444798.596 6 -12684164.343 3
  19034368.770    -7974411.093 7  -6140687.310 3
 95 12 29  1 43 29.9960000  0  8 19 18 31 02 15 26 07 27
  20461728.910    -2224915.588 6  -1704404.490 2
  24292295.129      809107.498 3
  23917556.879     3878975.375 5   3022578.916 1
  20015652.035    -8653404.004 7  -6670741.508 3
  22673907.988   -10691707.010 5  -7228576.479 1
  22598783.270    -9483046.491 5  -7154375.480 1
  20360226.215   -16584381.452 6 -12792930.178 3
  19023589.457    -8031055.757 7  -6184826.016 3
 95 12 29  1 43 59.9960000  0  8 19 18 31 02 15 26 07 27
  20460923.887    -2229136.360 6  -1707693.407 2
  24301189.379      855829.590 3
  23926192.004     3924345.886 5   3057932.616 1
  20001716.348    -8726634.546 7  -6727804.256 3
  22654159.316   -10795478.609 5  -7309437.429 1
  22574045.957    -9613046.334 5  -7255674.046 1
  20333732.848   -16723609.779 7 -12901419.761 3
  19012897.145    -8087250.771 7  -6228614.344 3
 95 12 29  1 44 29.9960000  0  7 19 31 02 15 26 07 27
  20460184.074    -2233037.050 6  -1710732.916 2
  23934838.801     3969775.070 5
  19987805.832    -8799725.900 7  -6784758.551 4
  22634493.691   -10898836.689 5  -7389976.172 1
  22549378.285    -9742672.555 5  -7356681.476 1
  20307305.520   -16862480.451 7 -13009630.652 3
  19002286.676    -8143014.129 7  -6272066.311 3
 95 12 29  1 44 59.9960000  0  7 19 31 02 15 26 07 27
  20459500.262    -2236626.356 6  -1713529.787 2
  23943493.207     4015266.939 4
  19973921.684    -8872689.514 7  -6841613.308 4
  22614907.145   -11001774.742 5  -7470187.613 1
  22524785.098    -9871913.280 5  -7457388.504 1
  20280950.770   -17000976.912 7 -13117549.949 3
  18991757.840    -8198344.085 7  -6315180.565 3
 95 12 29  1 45 29.9960000  0  7 19 31 02 15 26 07 27
  20458873.316    -2239918.564 6  -1716095.157 2
  23952166.895     4060826.187 4
  19960061.285    -8945526.273 7  -6898369.220 4
  22595394.840   -11104296.976 5  -7550075.040 1
  22500265.645   -10000764.049 5  -7557791.693 1
  20254668.090   -17139093.856 7 -13225173.519 3
  18981309.613    -8253250.866 7  -6357965.072 3
 95 12 29  1 45 59.9960000  0  7 19 31 02 15 26 07 27
  20458301.887    -2242926.755 6  -1718439.219 2
  23960844.582     4106433.329 3
  19946219.856    -9018258.835 7  -6955043.940 4
  22575960.004   -11206417.269 5  -7629649.271 1
  22475819.965   -10129231.420 5  -7657896.130 1
  20228454.832   -17276844.786 7 -13332511.889 3
  18970938.668    -8307743.856 7  -6400427.144 3
 95 12 29  1 46 29.9960000  0  7 19 31 02 15 26 07 27
  20457791.191    -2245617.492 6  -1720535.906 2
  23969536.004     4152119.217 2
  19932405.121    -9090860.246 7  -7011616.465 4
  22556609.457   -11308106.378 5  -7708887.501 1
  22451457.387   -10257268.744 5  -7757665.459 1
  20202320.332   -17414193.342 7 -13439536.726 3
  18960653.332    -8361795.291 7  -6442545.149 3
 95 12 29  1 46 59.9960000  0  6 19 02 15 26 07 27
  20457339.723    -2247972.120 6  -1722370.694 2
  19918619.324    -9163299.559 7  -7068062.678 3
  22537342.535   -11409355.589 5  -7787782.957 1
  22427175.254   -10384875.290 5  -7857099.111 1
  20176260.051   -17551137.131 7 -13546246.149 3
  18950454.824    -8415392.410 7  -6484309.141 3
 95 12 29  1 47 29.9960000  0  6 19 02 15 26 07 27
  20456956.645    -2250000.799 6  -1723951.493 2
  19904867.816    -9235575.540 7  -7124381.619 4
  22518155.981   -11510191.222 5  -7866356.144 1
  22402967.871   -10512086.106 5  -7956224.405 1
  20150269.832   -17687711.519 6 -13652667.730 3
  18940333.574    -8468564.194 7  -6525741.701 3
 95 12 29  1 47 59.9950000  0  6 19 02 15 26 07 27
  20456634.437    -2251684.447 6  -1725263.444 2
  19891143.319    -9307676.749 7  -7180564.378 3
  22499049.007   -11610594.875 5  -7944592.730 1
  22378836.194   -10638897.868 5  -8055038.757 1
  20124356.374   -17823899.219 7 -13758787.998 3
  18930302.765    -8521293.681 7  -6566829.612 3
 95 12 29  1 48 29.9950000  0  6 19 02 15 26 07 27
  20456379.226    -2253021.228 6  -1726305.102 2
  19877461.812    -9379590.914 7  -7236601.384 3
  22480024.569   -11710561.540 5  -8022488.805 1
  22354779.366   -10765315.923 5  -8153546.322 1
  20098511.312   -17959703.160 7 -13864609.237 3
  18920351.093    -8573584.619 7  -6607575.803 3
 95 12 29  1 48 59.9950000  0  6 19 02 15 26 07 27
  20456189.983    -2254022.485 6  -1727085.320 2
  19863812.148    -9451322.844 7  -7292496.391 4
  22461083.210   -11810091.540 5  -8100044.621 1
  22330793.968   -10891352.559 5  -8251756.684 1
  20072738.890   -18095138.841 6 -13970143.514 3
  18910482.015    -8625446.481 7  -6647987.647 3
 95 12 29  1 49 29.9950000  0  6 19 02 15 26 07 27
  20456061.616    -2254694.395 6  -1727608.896 2
  19850190.710    -9522896.650 7  -7348268.179 4
  22442233.249   -11909181.016 5  -8177257.172 1
  22306886.866   -11016989.958 5  -8349655.936 1
  20047035.226   -18230210.140 7 -14075393.858 3
  18900694.116    -8676878.503 7  -6688064.548 3
 95 12 29  1 49 59.9950000  0  6 19 02 15 26 07 27
  20455992.538    -2255051.511 6
  19836596.733    -9594327.587 7  -7403928.644 3
  22423458.952   -12007830.695 5  -8254127.038 1
  22283056.116   -11142207.367 5  -8447227.929 1
  20021400.874   -18364918.770 6 -14180361.603 3
  18890990.749    -8727882.146 7  -6727807.649 3
 95 12 29  1 50 29.9950000  0  6 19 02 15 26 07 27
  20455990.843    -2255080.943 6
  19823036.827    -9665600.461 7  -7459465.941 4
  22404773.374   -12106025.440 5  -8330642.403 1
  22259312.343   -11266978.923 5  -8544452.513 1
  19995838.437   -18499256.960 6 -14285040.689 3
  18881367.569    -8778439.180 7  -6767202.738 3
 95 12 29  1 50 59.9950000  0  6 19 02 15 26 07 27
  20456044.210    -2254782.151 6
  19809500.952    -9736719.651 7  -7514883.486 3
  22386174.577   -12203762.511 5  -8406801.136 1
  22235659.077   -11391292.493 5  -8641320.219 1
  19970348.077   -18633211.830 7 -14389421.089 3
  18871836.429    -8828542.160 7  -6806244.023 3
 95 12 29  1 51 29.9950000  0  6 19 02 15 26 07 27
  20456157.874    -2254186.483 6  -1727213.182 2
  19795992.991    -9807701.323 7  -7570193.871 4
  22367657.046   -12301058.701 5  -8482616.337 1
  22212087.952   -11515154.748 5  -8737836.256 1
  19944926.702   -18766791.117 7 -14493508.826 3
  18862384.358    -8878210.117 7  -6844946.330 3
 95 12 29  1 51 59.9950000  0  6 19 02 15 26 07 27
  20456332.390    -2253290.205 6  -1726514.792 2
  19782514.069    -9878535.662 7  -7625389.452 4
  22349228.983   -12397902.437 5  -8558078.961 1
  22188601.632   -11638571.927 5  -8834005.474 1
  19919580.765   -18899984.618 7 -14597295.969 3
  18853016.233    -8927435.479 7  -6883303.757 3
 95 12 29  1 52 29.9950000  0  6 19 02 15 26 07 27
  20456556.249    -2252098.854 6  -1725586.481 2
  19769061.038    -9949232.289 7  -7680477.730 3
  22330886.819   -12494297.188 5  -8633191.743 1
  22165196.772   -11761569.067 5  -8929847.405 1
  19894309.991   -19032788.924 7 -14700779.815 3
  18843731.843    -8976227.203 7  -6921323.285 3
 95 12 29  1 52 59.9950000  0  6 19 02 15 26 07 27
  20456837.632    -2250621.795 6  -1724435.550 2
  19755635.788   -10019789.331 7  -7735457.235 3
  22312627.444   -12590238.871 5  -8707951.474 1
  22141869.077   -11884151.735 5  -9025366.355 1
  19869114.397   -19165191.131 7 -14803950.361 3
  18834526.999    -9024586.699 7  -6959006.011 3
 95 12 29  1 53 29.9950000  0  6 19 02 15 26 07 27
  20457177.194    -2248842.207 6  -1723048.875 2
  19742239.257   -10090189.316 7  -7790314.361 4
  22294466.171   -12685707.135 5  -8782342.305 1
  22118623.171   -12006314.364 5  -9120558.006 1
  19843999.476   -19297181.607 7 -14906800.061 3
  18825413.101    -9072488.903 7  -6996332.406 3
 95 12 29  1 53 59.9950000  0  6 19 02 15 26 07 27
  20457572.226    -2246767.134 6  -1721431.948 2
  19728867.773   -10160445.796 7  -7845059.670 4
  22276380.874   -12780713.756 5  -8856373.420 1
  22095455.218   -12128071.739 5  -9215433.876 1
  19818957.155   -19428758.750 7 -15009327.689 3
  18816385.335    -9119936.494 7  -7033304.554 3
 95 12 29  1 54 29.9950000  0  6 19 02 15 26 07 27
  20458022.694    -2244396.927 6  -1719585.048 2
  19715527.882   -10230548.588 7  -7899685.219 4
  22258391.741   -12875259.356 5  -8930045.298 1
  22072361.882   -12249422.243 5  -9309992.717 1
  19794003.147   -19559906.574 7 -15111520.779 3
  18807442.929    -9166930.912 7  -7069923.588 3
 95 12 29  1 54 59.9950000  0  6 19 02 15 26 07 27
  20458533.085    -2241727.688 6  -1717505.138 2
  19702216.366   -10300503.558 7  -7954195.583 4
  22240489.944   -12969341.703 5  -9003356.188 1
  22049346.632   -12370358.457 5  -9404228.732 1
  19769125.858   -19690633.694 7 -15213386.059 4
  18798587.210    -9213458.817 7  -7106179.099 3
 95 12 29  1 55 29.9950000  0  6 19 02 15 26 07 27
  20459098.812    -2238736.814 6  -1715174.595 2
  19688934.398   -10370307.274 7  -8008588.086 4
  22222674.983   -13062954.761 5  -9076301.405 1
  22026418.522   -12490859.737 5  -9498125.816 1
  19744330.194   -19820938.673 7 -15314922.394 3
  18789819.796    -9259518.370 7  -7142069.664 3
 95 12 29  1 55 59.9950000  0  6 19 02 15 26 07 27
  20459733.046    -2235407.947 6  -1712580.682 2
  19675680.647   -10439949.485 7  -8062854.741 4
  22204947.319   -13156094.231 5  -9148877.611 1
  22003569.093   -12610916.956 5  -9591676.899 1
  19719613.741   -19950822.404 7 -15416130.481 4
  18781144.108    -9305126.451 7  -7177608.432 3
 95 12 29  1 56 29.9950000  0  6 19 02 15 26 07 27
  20460431.835    -2231737.719 6  -1709720.776 2
  19662456.116   -10509440.247 7  -8117003.388 4
  22187314.569   -13248766.001 5  -9221089.366 1
  21980806.858   -12730542.877 5  -9684891.897 1
  19694969.976   -20080316.640 7 -15517035.071 3
  18772549.288    -9350294.545 7  -7212804.351 4
 95 12 29  1 56 59.9950000  0  6 19 02 15 26 07 27
  20461195.726    -2227730.219 6  -1706598.070 2
  19649260.515   -10578787.418 7  -8171040.152 4
  22169769.921   -13340968.985 5  -9292935.834 1
  21958126.648   -12849729.505 5  -9777764.599 1
  19670401.741   -20209440.873 7 -15617651.352 4
  18764040.132    -9395013.913 7  -7247650.623 3
 95 12 29  1 57 29.9950000  0  6 19 02 15 26 07 27
  20462019.882    -2223382.003 6  -1703209.873 2
  19636097.038   -10647973.027 7  -8224951.014 4
  22152313.632   -13432692.963 5  -9364409.054 1
  21935531.702   -12968472.307 5  -9870291.458 1
  19645899.976   -20338183.022 7 -15717969.902 4
  18755614.116    -9439287.449 7  -7282149.491 3
 95 12 29  1 57 59.9950000  0  6 19 02 15 26 07 27
  20462909.601    -2218714.845 6  -1699573.141 2
  19622960.108   -10717013.645 7  -8278748.904 4
  22134951.249   -13523942.558 5  -9435512.630 1
  21913013.179   -13086785.930 5  -9962483.898 1
  19621475.577   -20466541.523 7 -15817989.500 4
  18747274.733    -9483103.015 7  -7316291.496 3
 95 12 29  1 58 29.9950000  0  6 19 02 15 26 07 27
  20463855.280    -2213743.240 6  -1695699.193 2
  19609845.812   -10785925.943 7  -8332446.812 4
  22117677.140   -13614716.350 5  -9506245.465 1
  21890583.413   -13204667.968 5 -10054340.052 1
  19597126.327   -20594499.212 7 -15917696.793 4
  18739028.968    -9526439.288 7  -7350060.041 3
 95 12 29  1 58 59.9950000  0  6 19 02 15 26 07 27
  20464856.882    -2208480.664 6  -1691598.426 2
  19596751.694   -10854724.325 7  -8386055.865 4
  22100489.983   -13705022.580 5  -9576613.873 1
  21868234.390          -0.34915
  19572853.733   -20722049.751 7 -16017086.730 4
  18730871.038    -9569312.551 7  -7383467.710 3
 95 12 29  1 59 29.9950000  0  6 19 02 15 26 07 27
  20465917.546    -2202914.013 6  -1687260.793 2
  19583683.476   -10923400.526 7  -8439569.790 4
  22083397.062   -13794849.258 5  -9646608.672 1
  21845966.218     -117017.151 5        -0.07711
  19548662.796   -20849172.631 7 -16116143.521 4
  18722802.554    -9611719.267 7  -7416511.914 3
 95 12 29  1 59 59.9950000  0  6 19 02 15 26 07 27
  20467036.132    -2197031.060 6  -1682676.694 1
  19570643.343   -10991939.430 7  -8492976.729 4
  22066397.233   -13884184.657 5  -9716220.656 1
  21823781.812     -233580.888 5    -90828.969 1
  19524557.116   -20975851.937 7 -16214854.662 4
  18714821.491    -9653646.164 7  -7449182.230 3
 95 12 29  2  0 29.9940000  0  4 19 02 07 27
  20468215.088    -2190837.782 6  -1677850.778 1
  19557624.721   -11060338.455 7  -8546274.666 3
  19500532.236   -21102106.392 7 -16313234.755 3
  18706930.627    -9695121.844 7  -7481500.941 3
 95 12 29  2  0 59.9940000  0  6 19 02 15 26 07 27
  20469452.072    -2184336.315 6  -1672784.686 2
  19544639.627   -11128586.736 7  -8599455.112 4
  22032673.557      -88375.898 5
  21779678.955     -115671.013 5
  19476583.924   -21227953.391 7 -16411297.307 4
  18699120.424    -9736152.996 7  -7513473.247 3
 95 12 29  2  1 29.9940000  0  6 19 02 15 26 07 27
  20470745.885    -2177533.128 6  -1667483.514 2
  19531682.971   -11196670.454 7  -8652507.358 4
  22015947.322     -176260.830 5        -0.28011
  21757750.900     -230881.142 5        -0.19011
  19452717.658   -21353378.136 7 -16509030.863 4
  18691397.971    -9776733.076 7  -7545094.091 3
 95 12 29  2  1 59.9940000  0  6 19 02 15 26 07 27
  20472096.674    -2170432.406 6  -1661950.507 1
  19518756.393   -11264597.177 7  -8705437.268 4
  21999315.018     -263659.002 5    -68102.741 1
  21735914.908     -345632.190 5    -89416.589 1
  19428929.619   -21478386.026 7 -16606439.596 4
  18683760.565    -9816870.652 7  -7576370.132 3
 95 12 29  2  2 29.9940000  0  6 19 02 15 26 07 27
  20473505.932    -2163022.230 6  -1656176.354 1
  19505859.330   -11332372.573 7  -8758249.261 4
  21982782.135     -350557.397 5   -135815.757 1
  21714171.299     -459899.150 5   -178455.780 1
  19405219.119   -21602974.307 7 -16703521.358 4
  18676209.338    -9856556.256 7  -7607293.976 4
 95 12 29  2  2 59.9940000  0  6 19 02 15 26 07 27
  20474975.424    -2155316.790 6  -1650172.134 1
  19492987.783   -11400011.178 7  -8810954.665 4
  21966339.213     -436964.737 5   -203146.127 1
  21692517.065     -573689.183 5   -267123.340 1
  19381592.518   -21727144.239 7 -16800277.133 4
  18668743.424    -9895799.111 7  -7637872.833 3
 95 12 29  2  3 29.9940000  0  6 19 02 15 26 07 27
  20476499.885    -2147296.563 6  -1643922.621 1
  19480145.729   -11467501.176 7  -8863544.270 4
  21949992.799     -522868.842 5   -270084.383 1
  21670956.135     -686995.234 5   -355413.774 1
  19358046.291   -21850884.134 7 -16896697.818 4
  18661361.275    -9934591.476 7  -7668100.654 3
 95 12 29  2  3 59.9940000  0  6 19 02 15 26 07 27
  20478093.033    -2138932.184 6  -1637404.938 2
  19467336.979   -11534817.439 7  -8915998.496 4
  21933743.369     -608249.519 5   -336614.757 1
  21649490.525     -799797.823 5   -443311.894 1
  19334581.143   -21974184.449 7 -16992775.971 4
  18654067.955    -9972903.651 7  -7697954.302 3
 95 12 29  2  4 29.9940000  0  6 19 02 15 26 07 27
  20479742.182    -2130251.935 6  -1630641.122 2
  19454556.736   -11601975.800 7  -8968329.687 4
  21917589.135     -693131.142 5   -402756.270 1
  21628115.354     -912132.675 5   -530845.544 1
  19311196.283   -22097067.205 7 -17088528.751 4
  18646866.736   -10010752.106 7  -7727446.613 3
 95 12 29  2  4 59.9940000  0  6 19 02 15 26 07 27
  20481454.236    -2121260.890 6  -1623635.130 1
  19441807.111   -11668964.441 7  -9020528.622 4
  21901534.705     -777505.347 5   -468502.378 1
  21606826.119    -1024013.311 5   -618025.262 1
  19287895.822   -22219518.299 7 -17183945.172 4
  18639755.525   -10048127.113 7  -7756570.000 3
 95 12 29  2  5 29.9940000  0  6 19 02 15 26 07 27
  20483223.479    -2111965.971 6  -1616392.360 1
  19429090.424   -11735795.316 7  -9072604.626 4
  21885575.127     -861377.718 5   -533857.462 1
  21585615.861    -1135453.041 5   -704861.412 1
  19264672.791   -22341550.692 7 -17279035.339 4
  18632730.908   -10085037.290 7  -7785331.180 3
 95 12 29  2  5 59.9940000  0  6 19 02 15 26 07 27
  20485047.049    -2102386.307 6  -1608927.704 1
  19416393.822   -11802506.977 7  -9124587.737 4
  21869710.557     -944763.732 5   -598833.560 1
  21564489.065    -1246475.019 5   -791372.055 1
  19241528.135   -22463178.623 7 -17373810.335 4
  18625794.049   -10121502.006 7  -7813745.252 3
 95 12 29  2  6 29.9940000  0  6 19 02 15 26 07 27
  20486929.549    -2092492.251 6  -1601218.070 1
  19403727.869   -11869077.058 7  -9176460.521 4
  21853945.635    -1027625.334 5   -663401.031 1
  21543450.596    -1357038.552 5   -877525.457 1
  19218468.760   -22584354.134 7 -17468232.800 4
  18618942.572   -10157494.041 7  -7841790.994 3
 95 12 29  2  6 59.9940000  0  6 19 02 15 26 07 27
  20488869.369    -2082292.622 6  -1593270.324 1
  19391082.775   -11935530.274 7  -9228242.246 4
  21838273.135    -1109969.839 5   -727565.573 1
  21522500.393    -1467151.414 5   -963327.685 1
  19195494.940   -22705086.721 7 -17562310.125 4
  18612182.174   -10193023.950 7  -7869476.644 3
 95 12 29  2  7 29.9940000  0  6 19 02 15 26 07 27
  20490867.338    -2071793.220 6  -1585088.999 1
  19378453.768   -12001890.013 7  -9279951.130 4
  21822695.557    -1191814.091 5   -791340.295 1
  21501631.025    -1576810.500 5  -1048776.325 1
  19172600.979   -22825398.613 7 -17656059.638 4
  18605506.338   -10228112.866 7  -7896818.665 3
 95 12 29  2  7 59.9940000  0  6 19 02 15 26 07 27
  20492925.065    -2060980.190 6  -1576663.279 1
  19365848.986   -12068130.531 7  -9331567.114 4
  21807219.986    -1273136.320 5   -854708.262 1
  21480860.502    -1685981.522 5  -1133844.655 1
  19149791.322   -22945261.857 7 -17749459.559 4
  18598915.971   -10262733.271 7  -7923795.611 3
 95 12 29  2  8 29.9940000  0  6 19 02 15 26 07 27
  20495040.197    -2049866.452 6  -1568003.247 1
  19353270.674   -12134233.758 7  -9383076.119 4
  21791845.869    -1353933.821 5   -917667.346 1
  21460179.229    -1794649.978 5  -1218521.377 1
  19127067.815   -23064674.403 7 -17842508.288 4
  18592420.291   -10296864.199 7  -7950391.146 3
 95 12 29  2  8 59.9940000  0  6 19 02 15 26 07 27
  20497208.908    -2038462.601 6  -1559117.144 1
  19340718.369   -12200193.989 7  -9434473.700 4
  21776567.814    -1434213.545 5   -980222.954 1
  21439592.057    -1902819.518 5  -1302809.324 1
  19104428.283   -23183647.439 7 -17935214.538 4
  18586020.244   -10330502.154 7  -7976602.542 3
 95 12 29  2  9 29.9940000  0  6 19 02 15 26 07 27
  20499433.307    -2026783.906 6  -1550016.877 1
  19328196.697   -12265995.431 7  -9485747.544 4
  21761383.033    -1513979.065 5  -1042377.897 1
  21419109.127    -2010478.013 5  -1386699.059 1
  19081871.752   -23302179.068 7 -18027576.835 4
  18579711.744   -10363657.039 7  -8002437.522 3
 95 12 29  2  9 59.9940000  0  6 19 02 15 26 07 27
  20501704.658    -2014848.461 6  -1540716.541 1
  19315703.791   -12331640.194 7  -9536899.307 4
  21746302.775    -1593238.360 5  -1104138.365 1
  21398715.400    -2117648.608 5  -1470208.607 1
  19059400.666   -23420264.604 7 -18119591.527 4
  18573496.432   -10396323.889 7  -8027892.219 3
 95 12 29  2 10 29.9940000  0  6 19 02 15 26 07 27
  20504029.111    -2002627.447 6  -1531193.691 1
  19303247.408   -12397103.299 7  -9587909.521 4
  21731325.955    -1671963.001 5  -1165482.245 1
  21378414.760    -2224322.736 5  -1553331.298 1
  19037018.307   -23537882.047 7 -18211241.473 4
  18567375.135   -10428483.251 7  -8052951.467 3
 95 12 29  2 10 59.9940000  0  6 19 02 15 26 07 27
  20506407.807    -1990125.833 6  -1521452.183 1
  19290823.518   -12462394.484 7  -9638785.768 4
  21716447.518    -1750161.924 5  -1226416.445 1
  21358201.010    -2330528.282 5  -1636088.876 1
  19014723.916   -23655049.330 7 -18302540.651 4
  18561344.252   -10460172.824 7  -8077644.652 3
 95 12 29  2 11 29.9940000  0  6 19 02 15 26 07 27
  20508844.236    -1977327.705 6  -1511479.632 1
  19278429.010   -12527531.824 7  -9689542.134 4
  21701666.799    -1827833.142 5  -1286939.459 1
  21338080.986    -2436271.992 5  -1718486.569 1
  18992509.900   -23771772.018 7 -18393493.380 4
  18555404.244   -10491393.781 7  -8101972.683 3
 95 12 29  2 11 59.9940000  0  6 19 02 15 26 07 27
  20511340.205    -1964216.047 6  -1501262.781 1
  19266060.815   -12592526.556 7  -9740187.376 4
  21686988.510    -1904972.695 5  -1347048.195 1
  21318046.400    -2541558.436 5  -1800527.956 1
  18970382.846   -23888063.324 7 -18484109.970 4
  18549552.479   -10522142.880 7  -8125933.030 3
 95 12 29  2 12 29.9930000  0  6 19 02 15 26 07 27
  20513892.544    -1950798.987 6  -1490807.941 1
  19253718.169   -12657383.132 7  -9790724.967 4
  21672406.731    -1981588.338 5  -1406748.683 1
  21298101.333    -2646381.479 5  -1882208.238 1
  18948332.138   -24003943.524 7 -18574406.222 4
  18543785.927   -10552452.713 7  -8149551.092 3
 95 12 29  2 12 59.9930000  0  6 19 02 15 26 07 27
  20516506.505    -1937062.155 6  -1480103.931 1
  19241401.771   -12722101.711 7  -9841155.028 4
  21657927.302    -2057678.434 5  -1466039.650 1
  21278245.114    -2750713.412 5  -1963505.854 1
  18926360.591   -24119409.313 7 -18664379.555 4
  18538104.216   -10582304.996 7  -8172812.624 3
 95 12 29  2 13 29.9930000  0  6 19 02 15 26 07 27
  20519183.169    -1922994.851 6  -1469142.410 1
  19229112.786   -12786688.477 7  -9891482.376 4
  21643550.036    -2133235.822 5  -1524915.526 1
  21258487.231    -2854533.717 5  -2044404.786 1
  18904466.271   -24234444.565 7 -18754017.409 4
  18532512.185   -10611688.854 7  -8195709.145 3
 95 12 29  2 13 59.9930000  0  6 19 02 15 26 07 27
  20521917.653    -1908624.748 6  -1457944.947 1
  19216848.755   -12851132.322 7  -9941698.366 4
  21629272.450    -2208258.055 5  -1583374.406 1
  21238831.599    -2957842.270 5  -2124904.962 1
  18882662.122   -24349042.810 7 -18843314.730 4
  18527008.372   -10640611.004 7  -8218245.896 3
 95 12 29  2 14 29.9930000  0  6 19 02 15 26 07 27
  20524710.271    -1893956.290 6  -1446514.999 1
  19204613.052   -12915426.744 7  -9991797.909 4
  21615101.216    -2282736.750 5  -1641409.743 1
  21219269.028    -3060633.836 5  -2205002.292 1
  18860938.224   -24463185.595 7 -18932257.153 4
  18521596.450   -10669054.983 7  -8240410.043 3
 95 12 29  2 14 59.9930000  0  6 19 02 15 26 07 27
  20527556.989    -1878990.357 6  -1434853.243 1
  19192401.489   -12979595.725 7 -10041799.711 4
  21601028.052    -2356673.423 5  -1699022.731 1
  21199801.981    -3162916.790 5  -2284703.285 1
  18839306.263   -24576869.739 7 -19020842.187 4
  18516276.802   -10697006.835 7  -8262190.714 3
 95 12 29  2 15 29.9930000  0  6 19 02 15 26 07 27
  20530457.778    -1863748.263 6  -1422976.309 1
  19180211.560   -13043660.601 7 -10091720.390 4
  21587059.044    -2430084.277 5  -1756225.984 1
  21180435.739    -3264721.808 5  -2364031.875 1
  18817758.841   -24690108.931 7 -19109080.512 4
  18511045.849   -10724499.813 7  -8283613.822 3
 95 12 29  2 15 59.9930000  0  6 19 02 15 26 07 27
  20533413.021    -1848217.501 6  -1410874.431 1
  19168047.591   -13107587.972 7 -10141533.929 4
  21573194.583    -2502948.106 5  -1813002.992 1
  21161154.364    -3366023.954 5  -2442968.610 1
  18796297.802   -24802881.335 7 -19196955.106 4
  18505909.216   -10751500.924 7  -8304653.659 3
 95 12 29  2 16 29.9930000  0  6 19 02 15 26 07 27
  20536430.153    -1832364.302 6  -1398521.306 1
  19155912.310   -13171365.132 7 -10191230.416 4
  21559432.646    -2575253.092 5  -1869344.526 1
  21141979.521    -3466798.069 5  -2521493.898 1
  18774932.192   -24915167.537 7 -19284450.841 4
  18500863.278   -10778002.927 7  -8325304.583 3
 95 12 29  2 16 59.9930000  0  6 19 02 15 26 07 27
  20539508.481    -1816191.887 6  -1385919.443 1
  19143799.997   -13234997.689 7 -10240814.228 4
  21545780.263    -2647009.071 5  -1925258.271 1
  21122898.153    -3567052.212 5  -2599614.014 1
  18753656.263   -25026973.146 7 -19371572.084 4
  18495912.317   -10804029.765 7  -8345585.242 3
 95 12 29  2 17 29.9930000  0  6 19 02 15 26 07 27
  20542641.091    -1799721.071 6  -1373085.055 1
  19131723.302   -13298469.453 7 -10290272.744 4
  21532230.622    -2718215.937 5  -1980744.138 1
  21103921.146    -3666787.892 5  -2677330.130 1
  18732469.575   -25138300.834 7 -19458320.923 4
  18491047.700   -10829589.226 7  -8365501.718 3
 95 12 29  2 17 59.9930000  0  6 19 02 15 26 07 27
  20545829.583    -1782967.826 6  -1360030.601 1
  19119676.841   -13361775.469 7 -10339602.107 4
  21518782.067    -2788866.913 5  -2035796.841 1
  21085039.786    -3765996.776 5  -2754635.751 1
  18711373.763   -25249159.907 7 -19544704.604 4
  18486274.739   -10854668.495 7  -8385044.014 3
 95 12 29  2 18 29.9930000  0  6 19 02 15 26 07 27
  20549069.966    -1765937.788 6  -1346760.458 1
  19107658.177   -13424930.746 7 -10388814.010 4
  21505446.747    -2858962.216 5  -2090416.532 1
  21066263.638    -3864686.455 5  -2831536.808 1
  18690365.942   -25359559.724 7 -19630730.428 4
  18481593.325   -10879272.249 7  -8404215.780 3
 95 12 29  2 18 59.9930000  0  6 19 02 15 26 07 27
  20552357.286    -1748661.645 6  -1333298.544 1
  19095667.692   -13487945.865 7 -10437916.696 4
  21492214.146    -2928508.739 5  -2144608.618 1
  21047577.036    -3962886.750 5  -2908056.516 1
  18669441.606   -25469522.293 7 -19716415.542 4
  18477002.856   -10903389.638 7  -8423008.562 3
 95 12 29  2 19 29.9930000  0  6 19 02 15 26 07 27
  20555690.825    -1731147.572 6  -1319651.226 1
  19083701.692   -13550815.933 7 -10486906.359 4
  21479082.310    -2997500.884 5  -2198368.729 1
  21028978.442    -4060605.415 5  -2984200.935 1
  18648600.935   -25579052.386 7 -19801763.658 4
  18472510.567   -10927004.850 7  -8441410.033 3
 95 12 29  2 19 59.9930000  0  6 19 02 15 26 07 27
  20559074.958    -1713365.313 6  -1305794.945 1
  19071769.130   -13613529.411 7 -10535774.001 4
  21466068.536    -3065932.793 5  -2251692.285 1
  21010477.677    -4157839.599 5  -3059967.837 1
  18627840.294   -25688133.839 7 -19886762.181 4
  18468113.755   -10950110.130 7  -8459414.159 3
 95 12 29  2 20 29.9930000  0  6 19 02 15 26 07 27
  20562513.677    -1695291.885 5  -1291711.770 1
  19059866.560   -13676074.831 7 -10584510.691 4
  21453145.333    -3133812.170 5  -2304585.301 1
  20992063.911    -4254604.506 5  -3135369.063 1
  18607167.778   -25796757.689 7 -19971404.135 4
  18463811.396   -10972715.859 7  -8477029.021 3
 95 12 29  2 20 59.9930000  0  6 19 02 15 26 07 27
  20566010.958    -1676914.237 5  -1277391.540 1
  19048000.263   -13738431.766 7 -10633100.511 4
  21440331.255    -3201135.883 5  -2357045.328 1
  20973741.513    -4350894.575 5  -3210400.285 1
  18586588.036   -25904911.365 7 -20055679.719 4
  18459603.083   -10994834.966 7  -8494264.695 3
 95 12 29  2 21 29.9930000  0  6 19 02 15 26 07 27
  20569569.497    -1658215.174 5  -1262820.862 1
  19036169.653   -13800607.854 7 -10681549.409 4
  21427627.638    -3267908.477 5  -2409075.908 1
  20955512.185    -4446682.294 6  -3285040.075 1
  18566099.271   -26012583.823 7 -20139580.334 4
  18455479.903   -11016497.453 7  -8511144.564 3
 95 12 29  2 21 59.9930000  0  6 19 02 15 26 07 27
  20573191.481    -1639180.090 5  -1247988.349 1
  19024374.036   -13862603.347 7 -10729857.585 4
  21415025.403    -3334121.693 5  -2460670.613 1
  20937383.653    -4541931.645 5  -3359260.351 1
  18545703.372   -26119756.877 7 -20223091.786 4
  18451443.317   -11037707.846 7  -8527672.154 3
 95 12 29  2 22 29.9930000  0  6 19 02 15 26 07 27
  20576873.450    -1619834.803 5  -1232914.117 1
  19012603.591   -13924447.295 7 -10778047.672 4
  21402534.856    -3399787.556 5  -2511838.806 1
  20919363.911    -4636651.633 6  -3433068.135 1
  18525400.810   -26226451.553 7 -20306230.488 4
  18447489.903   -11058485.656 7  -8543862.664 3
 95 12 29  2 22 59.9930000  0  6 19 02 15 26 07 27
  20580610.622    -1600190.884 5  -1217607.191 1
  19000861.310   -13986153.287 7 -10826130.268 4
  21390143.841    -3464893.879 5  -2562570.998 1
  20901442.575    -4730827.297 6  -3506451.773 1
  18505191.286   -26332653.458 7 -20388985.204 4
  18443621.567   -11078817.861 7  -8559705.945 3
 95 12 29  2 23 29.9930000  0  6 19 02 15 26 07 27
  20584401.388    -1580274.677 5  -1202088.079 1
  18989142.411   -14047746.951 7 -10874125.325 4
  21377858.427    -3529446.776 5  -2612871.949 1
  20883622.231    -4824465.590 6  -3579416.679 1
  18485073.692   -26438375.483 7 -20471365.990 4
  18439837.263   -11098698.801 7  -8575197.596 3
 95 12 29  2 23 59.9930000  0  6 19 02 15 26 07 27
  20588240.466    -1560094.556 5  -1186363.325 1
  18977442.942   -14109217.586 7 -10922024.523 4
  21365680.138    -3593437.690 5  -2662734.998 1
  20865902.981    -4917589.824 6  -3651981.025 1
  18465046.810   -26543621.079 7 -20553375.537 4
  18436145.724   -11118097.699 7  -8590313.630 3
 95 12 29  2 24 29.9930000  0  6 19 02 15 26 07 27
  20592126.583    -1539678.277 5  -1170454.547 1
  18965763.778   -14170585.413 7 -10969843.607 4
  21353607.239    -3656890.135 5  -2712178.454 1
  20848271.903    -5010238.226 6  -3724174.590 1
  18445101.505   -26648422.019 7 -20635038.598 4
  18432544.856   -11137022.948 7  -8605060.585 3
 95 12 29  2 24 59.9920000  0  6 19 02 15 26 07 27
  20596057.609    -1519009.746 5  -1154349.221 1
  18954111.297   -14231823.257 7 -11017561.411 4
  21341640.234    -3719777.219 5  -2761181.359 1
  20830735.766    -5102373.875 6  -3795968.608 1
  18425250.328   -26752755.604 7 -20716337.487 4
  18429041.305   -11155440.066 7  -8619411.597 3
 95 12 29  2 25 29.9920000  0  6 19 02 15 26 07 27
  20600043.695    -1498073.522 5  -1138035.298 1
  18942485.484   -14292921.371 7 -11065170.329 4
  21329782.531    -3782100.268 5  -2809744.756 1
  20813306.641    -5193991.158 6  -3867358.704 1
  18405479.586   -26856641.171 7 -20797287.270 4
  18425634.109   -11173349.620 7  -8633367.102 3
 95 12 29  2 25 59.9920000  0  6 19 02 15 26 07 27
  20604079.383    -1476863.338 5  -1121507.904 1
  18930888.039   -14353866.366 7 -11112659.937 4
  21318025.164    -3843859.576 5  -2857868.901 1
  20795975.453    -5285091.007 6  -3938345.603 1
  18385795.258   -26960073.229 7 -20877883.668 4
  18422318.609   -11190760.434 7  -8646933.977 3
 95 12 29  2 26 29.9920000  0  6 19 02 15 26 07 27
  20608169.992    -1455369.340 5  -1104759.351 1
  18919322.203   -14414643.163 7 -11160018.477 4
  21306381.211    -3905044.117 5  -2905545.146 1
  20778737.656    -5375639.825 6  -4008903.132 1
  18366203.133   -27063039.120 7 -20958116.825 4
  18419101.047   -11207673.791 7  -8660113.223 3
 95 12 29  2 26 59.9920000  0  6 19 02 15 26 07 27
  20612309.602    -1433605.024 5  -1087800.173 1
  18907785.063   -14475273.652 7 -11207263.013 4
  21294848.320    -3965674.676 5
  20761605.930    -5465659.334 6  -4079048.206 1
  18346699.656   -27165546.973 7 -21037993.063 4
  18415968.727   -11224130.220 7  -8672936.427 3
 95 12 29  2 27 29.9920000  0  6 19 02 15 26 07 27
  20616503.930    -1411562.348 5  -1070624.070 1
  18896276.734   -14535747.258 7 -11254385.306 4
  21283415.898    -4025749.454 5        -0.24411
  20744573.922    -5555166.349 6  -4148793.942 1
  18327280.188   -27267584.053 7 -21117502.464 4
  18412924.328   -11240134.221 7  -8685407.094 3
 95 12 29  2 27 59.9920000  0  6 19 02 15 26 07 27
  20620753.273    -1389241.563 5  -1053231.263 1
  18884800.500   -14596062.053 7 -11301383.845 4
  21272092.711    -4085256.421 5    -46369.298 1
  20727640.383    -5644155.390 6  -4218136.058 1
  18307952.969   -27369140.249 7 -21196637.156 4
  18409967.820   -11255662.539 7  -8697507.093 3
 95 12 29  2 28 29.9920000  0  6 19 02 15 26 07 27
  20625058.094    -1366624.077 5  -1035607.268 1
  18873348.555   -14656229.323 7 -11348267.437 4
  21260876.695    -4144186.783 5    -92289.056 1
  20710805.984    -5732615.433 6  -4287065.968 1
  18288717.914   -27470212.863 7 -21275395.030 4
  18407107.836   -11270703.673 7  -8709227.470 3
 95 12 29  2 28 59.9920000  0  7 19 04 02 15 26 07 27
  20629413.992    -1343718.497 5  -1017758.783 1
  22900070.508          -0.32813
  18861925.313   -14716270.454 7 -11395052.728 4
  21249774.484    -4202551.107 5   -137767.740 1
  20694071.719    -5820573.098 6  -4355604.416 1
  18269573.141   -27570819.175 7 -21353789.551 4
  18404334.766   -11285271.739 7  -8720579.218 3
 95 12 29  2 29 29.9920000  0  7 19 04 02 15 26 07 27
  20633827.133    -1320538.107 5   -999696.161 1
  22869239.227     -162010.047 3
  18850520.609   -14776196.527 7 -11441748.373 4
  21238770.258    -4260351.821 5   -182807.247 1
  20677427.375    -5908030.380 6  -4423752.954 1
  18250516.898   -27670985.681 7 -21431841.363 4
  18401654.328   -11299358.020 7  -8731555.551 3
 95 12 29  2 29 59.9920000  0  7 19 04 02 15 26 07 27
  20638291.758    -1297082.815 5   -981419.318 1
  22838380.984     -324159.178 3
  18839139.188   -14836010.915 7 -11488356.985 4
  21227882.055    -4317584.471 5   -227404.120 1
  20660884.180    -5994968.741 6  -4491497.145 1
  18231535.914   -27770713.462 7 -21509551.315 4
  18399065.195   -11312967.144 7  -8742160.075 3
 95 12 29  2 30 29.9920000  0  7 19 04 02 15 26 07 27
  20642804.180    -1273361.345 5   -962935.077 1
  22807499.016     -486456.831 4
  18827776.945   -14895708.459 7 -11534874.551 4
  21217097.852    -4374261.028 5   -271567.666 1
  20644436.609    -6081398.799 6  -4558845.242 1
  18212642.805   -27869994.279 7 -21586912.986 4
  18396558.766   -11326129.128 7  -8752416.180 3
 95 12 29  2 30 59.9920000  0  7 19 04 02 15 26 07 27
  20647365.758    -1249392.252 5   -944257.879 1
  22776585.031     -648906.099 4
  18816445.695   -14955266.321 7 -11581283.276 4
  21206419.375    -4430375.560 5   -315293.269 1
  20628088.320    -6167309.753 6  -4625788.856 1
  18193839.852   -27968810.557 7 -21663912.673 4
  18394139.508   -11338840.627 7  -8762321.250 3
 95 12 29  2 31 29.9920000  0  7 19 04 02 15 26 07 27
  20651975.523    -1225158.101 5   -925374.145 1
  22745649.188     -811474.961 4
  18805145.234   -15014642.556 7 -11627550.472 4
  21195850.633    -4485901.923 5   -358560.556 1
  20611847.188    -6252659.723 6  -4692295.330 1
  18175130.703   -28067125.253 7 -21740521.519 4
  18391814.859   -11351063.133 7  -8771845.289 3
 95 12 29  2 31 59.9920000  0  7 19 04 02 15 26 07 27
  20656637.234    -1200676.526 5   -906297.621 1
  22714688.898     -974166.625 4        -0.28811
  18793884.344   -15073824.343 7 -11673666.150 4
  21185393.273    -4540853.802 5   -401380.194 1
  20595710.648    -6337461.108 6  -4758374.340 1
  18156521.594   -28164931.580 7 -21816734.234 4
  18389581.500   -11362806.697 7  -8780996.140 3
 95 12 29  2 32 29.9920000  0  7 19 04 02 15 26 07 27
  20661343.719    -1175947.642 5   -887028.386 1
  22683706.789    -1136985.158 4   -126871.733 1
  18782660.078   -15132802.004 7 -11719622.769 4
  21175044.969    -4595226.800 5   -443748.766 1
  20579675.492    -6421716.533 6  -4824027.922 1
  18138005.250   -28262229.151 7 -21892550.514 4
  18387439.516   -11374056.236 7  -8789762.023 3
 95 12 29  2 32 59.9920000  0  7 19 04 02 15 26 07 27
  20666091.406    -1150984.952 5   -867576.962 1
  22652698.070    -1299936.023 3   -253846.346 1
  18771475.555   -15191593.159 7 -11765434.056 4
  21164811.836    -4649025.891 5   -485670.129 1
  20563745.820    -6505437.387 6  -4889264.956 1
  18119582.336   -28359037.644 7 -21967985.697 4
  18385395.055   -11384802.003 7  -8798135.361 3
 95 12 29  2 33 29.9920000  0  7 19 04 02 15 26 07 27
  20670891.344    -1125769.741 5   -847928.779 1
  22621667.492    -1462999.979 3   -380909.101 1
  18760319.656   -15250203.493 7 -11811104.448 4
  21154679.172    -4702247.403 5   -527141.433 1
  20547915.477    -6588633.302 6  -4954092.953 1
  18101254.711   -28455357.086 7 -22043039.795 4
  18383446.922   -11395037.025 7  -8806110.706 3
 95 12 29  2 33 59.9920000  0  7 19 04 02 15 26 07 27
  20675736.055    -1100294.982 5   -828078.341 1
  22590618.750    -1626183.191 3   -508064.787 1
  18749198.063   -15308652.260 7 -11856648.937 4
  21144665.539    -4754894.469 5   -568165.113 1
  20532178.500    -6671314.855 6  -5018520.145 1
  18083016.484   -28551190.797 7 -22117715.409 4
  18381592.773   -11404784.408 7  -8813706.082 3
 95 12 29  2 34 29.9920000  0  7 19 04 02 15 26 07 27
  20680638.820    -1074548.810 5   -808016.424 1
  22559535.742    -1789488.528 3   -635315.652 1
  18738105.078   -15366951.022 7 -11902076.543 4
  21134759.070    -4806956.273 5   -608732.753 1
  20516544.375    -6753466.223 6  -5082534.209 1
  18064872.406   -28646529.581 7 -22192005.361 4
  18379832.148   -11414042.998 7  -8820920.578 3
 95 12 29  2 34 59.9920000  0  6 19 02 15 26 07 27
  20685586.836    -1048536.921 5   -787747.442 1
  18727034.406   -15425123.758 7 -11947405.953 4
  21124957.031    -4858449.537 5   -648857.375 1
  20501015.891    -6835087.099 6  -5146134.896 1
  18046822.875   -28741390.705 7 -22265923.110 4
  18378156.102   -11422838.517 7  -8827774.236 3
 95 12 29  2 35 29.9920000  0  6 19 02 15 26 07 27
  20690592.805    -1022237.630 5   -767254.515 1
  18715993.070   -15483147.608 7 -11992619.338 4
  21115271.867    -4909360.882 5   -688528.537 1
  20485590.805    -6916147.070 6  -5209298.521 1
  18028865.867   -28835763.983 7 -22339460.718 4
  18376569.055   -11431175.591 7  -8834270.665 3
 95 12 29  2 35 59.9920000  0  6 19 02 15 26 07 27
  20695649.094     -995667.907 5   -746550.860 1
  18704978.969   -15541021.140 7 -12037715.597 4
  21105691.430    -4959696.806 5   -727751.320 1
  20470269.102    -6996648.054 6  -5272026.576 1
  18010994.719   -28929663.814 7 -22412629.410 4
  18375069.313   -11439061.203 7  -8840415.306 3
 95 12 29  2 36 29.9920000  0  6 19 02 15 26 07 27
  20700758.070     -968825.970 5   -725635.098 1
  18693998.164   -15598738.460 7 -12082690.131 4
  21096224.750    -5009450.663 5   -766520.560 1
  20455059.469    -7076581.423 6  -5334312.316 1
  17993214.945   -29023095.742 7 -22485433.502 4
  18373657.602   -11446481.262 7  -8846197.182 3
 95 12 29  2 36 59.9920000  0  6 19 02 15 26 07 27
  20705916.391     -941707.772 5   -704504.043 1
  18683042.938   -15656304.079 7 -12127546.460 4
  21086863.227    -5058626.679 5   -804839.529 1
  20439955.516    -7155961.983 6  -5396167.321 1
  17975522.648   -29116075.233 7 -22557885.046 4
  18372332.891   -11453437.271 7  -8851617.450 3
 95 12 29  2 37 29.9910000  0  6 19 02 15 26 07 27
  20711125.909     -914334.717 5   -683174.428 1
  18672116.370   -15713715.217 7 -12172282.411 4
  21077616.792    -5107227.803 5   -842710.526 1
  20424948.292    -7234823.941 6  -5457618.207 1
  17957917.433   -29208601.935 7 -22629983.762 4
  18371097.730   -11459923.706 7  -8856671.829 3
 95 12 29  2 37 59.9910000  0  6 19 02 15 26 07 27
  20716384.355     -886704.770 5   -661644.616 1
  18661218.800   -15770982.159 7 -12216905.997 4
  21068482.339    -5155251.982 5   -880131.952 1
  20410038.886    -7313180.314 6  -5518675.124 1
  17940395.472   -29300678.545 7 -22701731.761 4
  18369958.581   -11465923.532 7  -8861347.024 3
 95 12 29  2 38 29.9910000  0  6 19 02 15 26 07 27
  20721691.284     -858813.242 5   -639910.987 1
  18650349.784   -15828105.702 7 -12261417.848 4
  21059448.284    -5202694.125 5   -917099.852 1
  20395226.417    -7391023.769 6  -5579332.378 1
  17922960.128   -29392295.883 7 -22773121.888 4
  18368908.886   -11471437.676 7  -8865643.769 3
 95 12 29  2 38 59.9910000  0  7 19 04 02 15 26 07 27
  20727045.659     -830672.777 5   -617983.381 1
  22278912.394          -0.14012
  18639508.097   -15885076.576 7 -12305810.739 4
  21050531.605    -5249555.697 5   -953615.359 1
  20380504.597    -7468371.099 6  -5639603.036 1
  17905615.651   -29483443.663 7 -22844146.121 4
  18367952.284   -11476462.443 7  -8869559.183 3
 95 12 29  2 39 29.9910000  0  7 19 04 02 15 26 07 27
  20732444.159     -802298.816 5   -595873.836 1
  22247653.058     -164276.183 3
  18628695.972   -15941894.603 7 -12350084.524 4
  21041728.253    -5295838.184 5   -989679.635 1
  20365882.315    -7545215.702 6  -5699481.956 1
  17888360.292   -29574103.729 7 -22914790.323 4
  18367086.956   -11481007.216 7  -8873100.574 3
 95 12 29  2 39 59.9910000  0  7 19 04 02 15 26 07 27
  20737886.706     -773701.792 5   -573590.462 1
  22216369.980     -328664.530 3        -0.04211
  18617908.128   -15998585.104 7 -12394258.940 4
  21033026.167    -5341555.952 5  -1025303.856 1
  20351356.815    -7621547.745 6  -5758961.484 1
  17871202.815   -29664277.820 7 -22985055.838 4
  18366309.003   -11485094.687 7  -8876285.625 3
 95 12 29  2 40 29.9910000  0  7 19 04 02 15 26 07 27
  20743374.370     -744864.810 5   -551120.126 1
  22185066.542     -493153.673 3
  18607150.659   -16055119.741 7 -12438311.908 4
  21024433.573    -5386690.180 5  -1060473.382 1
  20336930.159    -7697348.043 6  -5818026.661 1
  17854142.112   -29753937.991 7 -23054920.899 4
  18365620.636   -11488709.964 7  -8879102.730 3
 95 12 29  2 40 59.9910000  0  7 19 04 02 15 26 07 27
  20748905.269     -715794.713 5   -528468.117 1
  22153747.284     -657753.264 3        -0.12711
  18596419.659   -16111505.236 7 -12482248.654 4
  21015956.722    -5431248.544 5  -1095194.180 1
  20322608.714    -7772617.322 6  -5876678.047 1
  17837179.597   -29843082.267 7 -23124383.960 4
  18365022.800   -11491859.392 7  -8881556.838 3
 95 12 29  2 41 29.9910000  0  7 19 04 02 15 26 07 27
  20754487.886     -686466.705 5   -505615.148 1
  22122407.761     -822446.627 4   -128332.559 1
  18585718.730   -16167726.751 7 -12526057.630 4
  21007594.800    -5475209.555 5  -1129449.513 1
  20308399.237    -7847306.062 6  -5934877.081 1
  17820315.222   -29931693.081 7 -23193431.337 4
  18364514.534   -11494525.167 7  -8883634.076 3
 95 12 29  2 41 59.9910000  0  7 19 04 02 15 26 07 27
  20760110.987     -656915.192 5   -482588.020 1
  22091043.425     -987267.635 4   -256764.498 1
  18575049.839   -16223808.865 7 -12569757.980 4
  20999330.355    -5518613.807 5  -1163271.003 1
  20294286.331    -7921449.607 6  -5992651.278 1
  17803546.776   -30019830.351 7 -23262109.722 4
  18364095.511   -11496738.796 7  -8885358.988 3
 95 12 29  2 42 29.9910000  0  7 19 04 02 15 26 07 27
  20765783.175     -627111.186 5   -459364.146 1
  22059664.292    -1152157.386 4   -385249.966 1
  18564414.355   -16279699.352 7 -12613309.009 4
  20991184.386    -5561427.530 5  -1196632.345 1
  20280289.698    -7995019.504 6  -6049978.486 1
  17786867.690   -30107467.261 7 -23330398.214 4
  18363765.573   -11498471.882 7  -8886709.464 3
 95 12 29  2 42 59.9910000  0  7 19 04 02 15 26 07 27
  20771500.956     -597057.525 5   -435945.734 1
  22028278.456    -1317104.603 4   -513780.226 1
  18553812.144   -16335404.351 7 -12656715.497 4
  20983152.136    -5603650.971 5  -1229533.719 1
  20266394.386    -8068010.360 6  -6106854.487 1
  17770286.401   -30194607.588 7 -23398299.763 4
  18363523.667   -11499731.244 7  -8887690.785 3
 95 12 29  2 43 29.9910000  0  7 19 04 02 15 26 07 27
  20777265.159     -566770.925 5   -412345.801 1
  21996876.480    -1482111.714 4   -642357.182 1
  18543247.362   -16390930.375 7 -12699982.529 4
  20975223.706    -5645293.592 5  -1261982.510 1
  20252613.065    -8140438.821 6  -6163292.253 1
  17753793.808   -30281279.380 7 -23465836.216 4
  18363371.995   -11500535.963 7  -8888317.848 2
 95 12 29  2 43 59.9910000  0  7 19 04 02 15 26 07 27
  20783072.511     -536252.317 5   -388565.081 1
  21965469.222    -1647170.723 4   -770974.573 1
  18532714.089   -16446282.494 7 -12743114.053 4
  20967413.331    -5686356.618 5  -1293979.663 1
  20238936.831    -8212328.835 6  -6219310.455 1
  17737387.722   -30367490.172 7 -23533013.449 4
  18363303.534   -11500889.292 7
 95 12 29  2 44 29.9910000  0  7 19 04 02 15 26 07 27
  20788924.972     -505508.527 5   -364608.902 1
  21934047.401    -1812276.081 4   -899628.092 1
  18522207.980   -16501491.006 7 -12786133.666 4
  20959705.472    -5726848.930 5  -1325532.114 1
  20225354.581    -8283697.542 6  -6274922.447 1
  17721066.948   -30453246.598 7 -23599836.629 4
  18363318.503   -11500809.384 7
 95 12 29  2 44 59.9910000  0  7 19 04 02 15 26 07 27
  20794820.542     -474509.077 5   -340453.497 1
  21902623.355    -1977414.187 3  -1028307.126 1
  18511730.753   -16556549.612 7 -12829036.479 4
  20952108.417    -5766750.330 5  -1356624.107 1
  20211874.019    -8354525.043 6  -6330112.714 1
  17704837.019   -30538541.751 7 -23666300.376 4
  18363421.862   -11500259.159 7  -8888102.186 3
 95 12 29  2 45 29.9910000  0  7 19 04 02 15 26 07 27
  20800771.261     -443262.713 5   -316105.707 1
  21871189.230    -2142600.071 4  -1157023.379 1
  18501281.769   -16611456.999 7 -12871821.463 4
  20944627.683    -5806068.724 5  -1387261.817 1
  20198497.292    -8424827.141 6  -6384893.578 1
  17688694.237   -30623382.376 7 -23732409.948 3
  18363618.347   -11499237.987 7  -8887306.480 3
 95 12 29  2 45 59.9910000  0  7 19 04 02 15 26 07 27
  20806763.370     -411759.879 5   -291558.065 1
  21839748.495    -2307825.579 4  -1285770.517 1
  18490865.776   -16666202.555 7 -12914480.332 4
  20937259.292    -5844802.243 5  -1417443.778 1
  20185218.128    -8494601.874 6  -6439263.511 1
  17672636.659   -30707749.341 7 -23798150.427 4
  18363905.175   -11497729.897 7  -8886131.360 3
 95 12 29  2 46 29.9910000  0  7 19 04 02 15 26 07 27
  20812804.394     -380007.228 4   -266815.765 1
  21808297.175    -2473093.901 3  -1414550.990 1
  18480479.355   -16720774.997 7 -12957004.313 4
  20929998.808    -5882956.643 5  -1447174.474 1
  20172042.144    -8563854.380 6  -6493226.507 1
  17656675.292   -30791634.126 7 -23863515.192 3
  18364286.855   -11495736.043 7  -8884577.720 3
 95 12 29  2 46 59.9910000  0  7 19 04 02 15 26 07 27
  20818895.878     -348017.732 4   -241888.917 1
  21776842.425    -2638404.645 3  -1543364.533 1
  18470130.706   -16775153.592 7 -12999377.246 4
  20922849.089    -5920524.772 5  -1476448.347 1
  20158961.050    -8632585.975 6  -6546783.606 1
  17640807.362   -30875019.514 7 -23928490.813 4
  18364760.823   -11493242.098 7  -8882634.393 3
 95 12 29  2 47 29.9910000  0  7 19 04 02 15 26 07 27
  20825027.628     -315783.494 4   -216771.361 1
  21745380.128    -2803735.781 3  -1672193.952 1
  18459824.815   -16829319.250 7 -13041584.247 4
  20915813.558    -5957489.165 5  -1505251.765 1
  20145987.136    -8700776.334 6  -6599918.959 1
  17625040.980   -30957873.673 7 -23993052.488 3
  18365326.183   -11490248.409 7  -8880301.671 3
 95 12 29  2 47 59.9910000  0  7 19 04 02 15 26 07 27
  20831204.448     -283316.440 5   -191472.360 1
  21713913.917    -2969095.740 3  -1801045.816 1
  18449553.753   -16883294.111 7 -13083642.580 4
  20908897.823    -5993863.437 5  -1533595.359 1
  20133111.089    -8768425.556 6  -6652632.650 1
  17609370.542   -31040210.054 7 -24057210.697 4
  18365988.815   -11486780.955 7  -8877599.772 2
 95 12 29  2 48 29.9910000  0  7 19 04 02 15 26 07 27
  20837428.050     -250614.959 5   -165990.725 1
  21682439.894    -3134490.317 3  -1929924.652 1
  18439319.706   -16937083.583 7 -13125556.450 4
  20902084.378    -6029641.688 5  -1561474.511 1
  20120348.042    -8835520.272 6  -6704914.259 1
  17593800.026   -31122031.462 7 -24120967.631 4
  18366738.300   -11482851.137 7  -8874537.590 3
 95 12 29  2 48 59.9910000  0  7 19 04 02 15 26 07 27
  20843696.245     -217679.175 5   -140326.489 1
  21650958.159    -3299930.051 3  -2058838.655 1
  18429113.308   -16990711.879 7 -13167344.735 4
  20895393.964    -6064831.247 5  -1588894.953 1
  20107681.972    -8902049.621 6  -6756755.322 1
  17578324.222   -31203356.072 7 -24184337.453 3
  18367568.315   -11478478.727 7  -8871130.534 3
 95 12 29  2 49 29.9900000  0  7 19 04 02 15 26 07 27
  20850010.607     -184493.534 5   -114467.576 1
  21619466.178    -3465406.424 3  -2187781.215 1
  18418939.381   -17044177.415 7 -13209006.197 4
  20888809.287    -6099438.142 5  -1615861.361 1
  20095131.647    -8967993.830 6  -6808140.433 1
  17562943.045   -31284196.452 7 -24247329.948 3
  18368482.068   -11473678.357 7  -8867389.994 2
 95 12 29  2 49 59.9900000  0  7 19 04 02 15 26 07 27
  20856370.904     -151067.507 4    -88421.358 1
  21587971.576    -3630927.174 3  -2316758.376 1
  18408793.342   -17097488.700 7 -13250547.455 4
  20882324.881    -6133475.049 5  -1642383.625 1
  20082694.498    -9033374.624 6  -6859086.522 1
  17547650.217   -31364568.579 7 -24309957.572 3
  18369475.709   -11468454.258 7  -8863319.280 3
 95 12 29  2 50 29.9900000  0  7 19 04 02 15 26 07 27
  20862776.522     -117403.586 5    -62189.739 1
  21556468.209    -3796468.698 4  -2445751.728 1
  18398677.795   -17150640.628 7 -13291964.543 4
  20875963.561    -6166936.517 5  -1668457.488 1
  20070363.529    -9098198.351 6  -6909598.524 1
  17532443.006   -31444476.330 7 -24372223.345 3
  18370556.084   -11462781.968 7  -8858899.325 2
 95 12 29  2 50 59.9900000  0  7 19 04 02 15 26 07 27
  20869225.951      -83515.758 5    -35783.678 1
  21524965.568    -3962016.468 4  -2574749.923 1
  18388593.389   -17203628.558 7 -13333253.838 4
  20869702.584    -6199825.947 5  -1694085.607 1
  20058127.889    -9162481.399 6  -6959689.219 1
  17517322.756   -31523923.024 7 -24434129.849 3
  18371722.826   -11456648.382 7  -8854119.918 3
 95 12 29  2 51 29.9900000  0  8 19 04 09 02 15 26 07 27
  20875711.764      -49426.662 5     -9220.764 1
  21493466.623    -4127557.148 4  -2703742.645 1
  22311273.568          -0.41513
  18378547.623   -17256436.979 7 -13374403.260 4
  20863549.897    -6232140.903 5  -1719266.087 1
  20045990.318    -9226246.038 6  -7009375.961 1
  17502293.826   -31602902.745 7 -24495672.482 3
  18372978.904   -11450042.669 7  -8848972.618 3
 95 12 29  2 51 59.9900000  0  8 19 04 09 02 15 26 07 27
  20882232.834      -15153.308 5     17485.721 1
  21461962.615    -4293092.409 4  -2832731.119 1
  22280159.959     -163498.405 3
  18368529.756   -17309068.282 7 -13415414.665 4
  20857514.350    -6263874.735 5  -1743993.753 1
  20033951.928    -9289507.875 6  -7058670.912 1
  17487356.436   -31681403.967 7 -24556842.263 3
  18374329.287   -11442950.562 7  -8843446.320 3
 95 12 29  2 52 29.9900000  0  8 19 04 09 02 15 26 07 27
  20888794.647       19311.358 5     44341.280 1
  21430465.014    -4458628.095 4  -2961719.910 1
  22249047.818     -326978.593 3
  18358552.404   -17361509.283 7 -13456277.784 4
  20851587.326    -6295021.210 5  -1768263.732 1
  20022011.053    -9352262.638 6  -7107570.736 1
  17472511.193   -31759425.779 7 -24617638.469 3
  18375772.412   -11435371.561 7  -8837540.621 2
 95 12 29  2 52 59.9900000  0  8 19 04 09 02 15 26 07 27
  20895388.482       53969.239 5     71347.397 1
  21398963.615    -4624176.257 5  -3090718.454 1
  22217944.334     -490436.562 3        -0.00611
  18348610.639   -17413754.157 7 -13496988.079 4
  20845773.904    -6325585.817 5  -1792080.306 1
  20010165.357    -9414505.755 6  -7156071.876 1
  17457759.131   -31836948.612 7 -24678045.865 3
  18377301.537   -11427334.465 7  -8831277.964 2
 95 12 29  2 53 29.9900000  0  8 19 04 09 02 15 26 07 27
  20902019.326       88820.797 5     98504.421 1
  21367452.975    -4789752.118 5  -3219738.565 1
  22186838.686     -653881.779 4
  18338702.092   -17465825.276 7 -13537562.977 4
  20840059.787    -6355583.373 5  -1815455.018 1
  19998419.873    -9476231.824 6  -7204170.126 1
  17443097.897   -31913979.596 7 -24738070.002 3
  18378913.732   -11418860.719 7  -8824675.056 2
 95 12 29  2 53 59.9900000  0  8 19 04 09 02 15 26 07 27
  20908696.045      123910.518 4    125847.044 1
  21335938.178    -4955347.033 5  -3348773.559 1
  22155747.193     -817292.271 4
  18328827.670   -17517714.952 7 -13577996.490 4
  20834465.772    -6384999.494 5  -1838376.671 1
  19986780.311    -9537402.330 6  -7251835.464 1
  17428534.279   -31990508.049 7 -24797702.556 3
  18380610.490   -11409941.789 7  -8817725.254 2
 95 12 29  2 54 29.9900000  0  8 19 04 09 02 15 26 07 27
  20915424.857      159255.577 5    153388.624 1
  21304427.592    -5120950.749 5  -3477815.401 1
  22124652.608     -980668.932 4        -0.27511
  18318985.983   -17569425.801 7 -13618290.659 4
  20828977.889    -6413832.574 5  -1860844.004 1
  19975248.357    -9598000.920 6  -7299055.157 1
  17414069.139   -32066539.936 7 -24856948.175 3
  18382394.154   -11400571.104 6  -8810423.437 2
 95 12 29  2 54 59.9900000  0  8 19 04 09 02 15 26 07 27
  20922193.404      194834.724 4    181112.617 1
  21272910.865    -5286567.825 5  -3606867.645 1
  22093568.295    -1144037.352 4   -127300.415 1
  18309174.623   -17620986.345 7 -13658467.709 4
  20823594.881    -6442101.980 5  -1882872.113 1
  19963825.998    -9658038.393 6  -7345837.615 1
  17399688.561   -32142099.316 7 -24915825.609 3
  18384264.326   -11390751.769 7  -8802772.017 2
 95 12 29  2 55 29.9900000  0  8 19 04 09 02 15 26 07 27
  20929011.045      230652.820 4    209022.794 1
  21241396.022    -5452190.583 5  -3735924.334 1
  22062476.865    -1307394.300 4   -254591.553 1
  18299390.404   -17672397.427 7 -13698528.293 4
  20818322.787    -6469801.570 5  -1904456.218 1
  19952506.357    -9717524.297 6  -7392190.282 1
  17385398.326   -32217207.743 7 -24974351.648 3
  18386218.076   -11380469.478 6  -8794759.855 2
 95 12 29  2 55 59.9900000  0  8 19 04 09 02 15 26 07 27
  20935865.959      266686.327 4    237100.824 1
  21209876.264    -5617828.592 5  -3864992.904 1
  22031398.076    -1470749.344 3   -381881.146 1
  18289635.678   -17723669.690 7 -13738480.709 4
  20813162.490    -6496944.054 5  -1925606.204 1
  19941285.912    -9776495.832 6  -7438142.132 1
  17371184.397   -32291893.896 7 -25032548.641 3
  18388260.061   -11369745.255 6  -8786403.333 2
 95 12 29  2 56 29.9900000  0  8 19 04 09 02 15 26 07 27
  20942762.029      302920.174 4    265334.979 1
  21178358.834    -5783457.632 5  -3994054.486 1
  22000311.795    -1634090.889 3   -509160.296 1
  18279906.889   -17774792.771 7 -13778316.870 4
  20808105.076    -6523525.734 5  -1946319.204 1
  19930162.803    -9834958.935 6  -7483697.811 1
  17357054.342   -32366140.308 7 -25090402.973 3
  18390384.850   -11358581.990 6  -8777704.697 2
 95 12 29  2 56 59.9900000  0  8 19 04 09 02 15 26 07 27
  20949693.365      339367.288 3    293735.283 1
  21146842.029    -5949066.753 5  -4123100.556 1
  21969242.615    -1797379.490 2   -636398.153 1
  18270210.084   -17825750.414 7 -13818024.129 4
  20803153.936    -6549537.575 5  -1966588.173 1
  19919126.889    -9892911.779 6  -7528855.879 1
  17343016.529   -32439918.186 7 -25147892.229 3
  18392589.717   -11346998.735 6  -8768678.797 2
 95 12 29  2 57 29.9900000  0  8 19 04 09 02 15 26 07 27
  20956665.381      376004.408 3    322283.682 1
  21115327.568    -6114674.630 4  -4252145.639 1
  21938177.553          -0.73512
  18260539.740   -17876562.311 7 -13857617.821 4
  20798306.584    -6574999.065 5  -1986428.289 1
  19908197.709    -9950373.426 6  -7573631.202 1
  17329064.756   -32513242.438 7 -25205028.003 3
  18394865.826   -11335025.489 6  -8759349.007 2
 95 12 29  2 57 59.9900000  0  7 19 04 02 15 26 07 27
  20963677.865      412843.235 3    350989.249 1
  21083824.272    -6280243.280 4  -4381160.146 1
  18250901.311   -17927210.997 7 -13897084.332 4
  20793572.467    -6599890.922 5  -2005824.529 1
  19897365.482   -10007300.541 6  -7617990.004 1
  17315204.522   -32586074.487 7 -25261780.238 3
  18397221.904   -11322642.883 6  -8749700.240 2
 95 12 29  2 58 29.9900000  0  7 19 04 02 15 26 07 27
  20970725.357      449868.723 3    379840.266 1
  21052320.522    -6445790.346 4  -4510157.863 1
  18241294.693   -17977703.663 7 -13936429.268 4
  20788942.709    -6624226.667 5  -2024787.447 1
  19886631.857   -10063686.032 6  -7661926.758 1
  17301438.334   -32658411.475 7 -25318146.715 3
  18399658.061   -11309850.535 6  -8739732.191 2
 95 12 29  2 58 59.9900000  0  7 19 04 02 15 26 07 27
  20977807.920      487085.931 3    408840.668 1
  21020819.279    -6611323.399 4  -4639144.630 1
  18231717.662   -18028031.447 7 -13975645.725 4
  20784414.709    -6647996.798 5  -2043309.632 1
  19876002.873   -10119528.869 6  -7705440.664 1
  17287763.889   -32730259.544 7 -25374132.213 3
  18402178.287   -11296611.937 6  -8729416.405 2
 95 12 29  2 59 29.9900000  0  7 19 04 02 15 26 07 27
  20984919.740      524461.583 3    437964.502 1
  20989322.201    -6776843.845 4  -4768121.578 1
  18222169.467   -18078199.180 7 -14014737.471 4
  20779997.154    -6671217.358 5  -2061403.568 1
  19865480.553   -10174851.580 6  -7748549.291 1
  17274182.647   -32801655.798 7 -25429765.654 3
  18404782.990   -11282918.256 6  -8718746.008 2
 95 12 29  2 59 59.9900000  0  7 19 04 02 15 26 07 27
  20992066.162      561998.869 3    467214.320 1
  20957828.100    -6942352.465 4  -4897089.307 1
  18212659.615   -18128179.694 7 -14053683.323 4
  20775684.412    -6693880.837 5  -2079063.416 1
  19855050.795   -10229649.522 6  -7791248.987 1
  17260684.061   -32872575.549 7 -25485027.792 3
  18407473.943   -11268766.836 6  -8707718.935 2
 95 12 29  3  0 29.9900000  0  7 19 04 02 15 26 07 27
  20999234.568      599692.841 3    496586.231 1
  20926329.967    -7107862.637 4  -5026058.255 1
  18203185.232   -18177961.900 7 -14092474.655 4
  20771476.514    -6715988.080 5  -2096289.841 1
  19844721.623   -10283941.195 6  -7833554.201 1
  17247279.592   -32943018.164 7 -25539918.128 3
  18410256.037   -11254156.540 6  -8696334.301 2
 95 12 29  3  0 59.9900000  0  7 19 04 02 15 26 07 27
  21006439.818      637555.942 4    526089.917 1
  20894839.475    -7273343.893 5  -5155004.663 1
  18193752.350   -18227543.091 7 -14131109.353 4
  20767379.311    -6737534.411 5  -2113079.185 1
  19834482.225   -10337731.116 6  -7875468.448 1
  17233963.779   -33012989.467 7 -25594441.213 3
  18413122.756   -11239097.834 6  -8684600.255 2
 95 12 29  3  1 29.9900000  0  7 19 04 02 15 26 07 27
  21013680.803      675596.398 3    555731.807 1
  20863360.170    -7438776.561 5  -5283913.229 1
  18184357.217   -18276912.212 7 -14169578.806 4
  20763383.248    -6758515.498 5  -2129428.072 1
  19824349.545   -10390993.377 6  -7916971.505 1
  17220739.959   -33082478.263 7 -25648588.318 3
  18416069.147   -11223612.340 6  -8672533.646 2
 95 12 29  3  1 59.9890000  0  8 19 04 09 02 15 26 07 27
  21020954.118      713819.532 4    585516.048 1
  20831884.564    -7604172.427 4  -5412793.085 1
  21659069.470          -0.91413
  18174997.735   -18326090.393 7 -14207899.467 4
  20759501.400    -6778941.860 5  -2145344.725 1
  19814312.790   -10443723.690 6  -7958060.078 1
  17207607.306   -33151487.498 7 -25702361.742 3
  18419093.626   -11207720.619 6  -8660150.499 2
 95 12 29  3  2 29.9890000  0  8 19 04 09 02 15 26 07 27
  21028266.564      752255.676 4    615466.266 1
  20800424.142    -7769513.501 5  -5541630.267 1
  21628092.665     -162779.223 4
  18165671.274   -18375091.954 7 -14246082.502 4
  20755720.548    -6798810.542 5  -2160826.804 1
  19804379.189   -10495921.960 6  -7998734.070 1
  17194566.298   -33220045.864 7 -25755783.841 3
  18422194.290   -11191419.522 6  -8647448.361 2
 95 12 29  3  2 59.9890000  0  8 19 04 09 02 15 26 07 27
  21035624.306      790921.496 4    645595.470 1
  20768974.439    -7934782.020 5  -5670410.908 1
  21597134.001     -325467.191 4        -0.26811
  18156385.282   -18423904.752 7 -14284118.453 4
  20752044.837    -6818113.963 5  -2175868.430 1
  19794553.071   -10547568.073 6  -8038977.801 1
  17181601.298   -33288153.947 7 -25808855.067 3
  18425375.009   -11174704.751 6  -8634423.879 2
 95 12 29  3  3 29.9890000  0  8 19 04 09 02 15 26 07 27
  21043027.665      829809.801 4    675898.037 1
  20737534.048    -8100004.916 5  -5799156.009 1
  21566197.220     -488063.090 4   -126698.379 1
  18147126.868   -18472539.908 7 -14322015.979 4
  20748475.845    -6836861.102 5  -2190476.594 1
  19784831.306   -10598673.818 6  -8078800.474 1
  17168729.868   -33355814.796 7 -25861577.800 3
  18428634.157   -11157577.852 6  -8621078.251 2
 95 12 29  3  3 59.9890000  0  8 19 04 09 02 15 26 07 27
  21050469.165      868915.910 3    706370.322 1
  20706099.306    -8265185.599 5  -5927868.195 1
  21535269.876     -650576.077 5
  18137902.118   -18521020.489 7 -14359793.056 4
  20745011.024    -6855062.087 5  -2204659.173 1
  19775198.157   -10649271.408 6  -8118227.177 1
  17155935.103   -33423040.333 7 -25913961.329 3
  18431970.689   -11140041.335 6  -8607413.455 2
 95 12 29  3  4 29.9890000  0  8 19 04 09 02 15 26 07 27
  21057946.376      908211.305 3    736990.060 1
  20674674.439    -8430313.310 5  -6056539.120 1
  21504360.235     -813003.416 4        -0.20311
  18128704.024   -18569352.992 7 -14397454.748 4
  20741652.564    -6872721.128 5  -2218419.462 1
  19765665.392   -10699371.695 6  -8157266.373 1
  17143225.384   -33489831.272 7 -25966006.214 3
  18435386.470   -11122094.507 6  -8593428.931 2
 95 12 29  3  4 59.9890000  0  8 19 04 09 02 15 26 07 27
  21065453.392      947677.894 3    767743.239 1
  20643268.095    -8595373.058 5  -6185157.064 1
  21473463.259     -975361.071 5   -126512.649 1
  18119541.103   -18617522.825 7 -14434989.685 4
  20738392.900    -6889828.251 5  -2231749.686 1
  19756226.032   -10748972.862 6  -8195916.648 1
  17130603.907   -33556161.377 7 -26017692.000 3
  18438882.993   -11103714.276 6  -8579106.683 2
 95 12 29  3  5 29.9890000  0  8 19 04 09 02 15 26 07 27
  21072996.821      987298.314 3    798616.266 1
  20611871.806    -8760361.507 5  -6313719.464 1
  21442576.251    -1137671.543 4   -252988.349 1
  18110404.587   -18665539.819 7 -14472405.526 4
  20735242.360    -6906390.153 5  -2244655.057 1
  19746884.267   -10798090.175 6  -8234189.881 1
  17118062.915   -33622044.904 7 -26069029.807 3
  18442464.032   -11084906.371 6  -8564451.192 2
 95 12 29  3  5 59.9890000  0  8 19 04 09 02 15 26 07 27
  21080560.978     1027055.479 4    829595.843 1
  20580492.673    -8925261.839 5  -6442213.200 1
  21411701.001    -1299936.106 4
  18101296.860   -18713392.424 7 -14509693.267 4
  20732197.775    -6922410.237 5  -2257138.245 1
  19737627.001   -10846722.617 6  -8272085.305 1
  17105612.751   -33687482.553 7 -26120020.175 3
  18446122.860   -11065676.789 6  -8549467.111 2
 95 12 29  3  6 29.9890000  0  8 19 04 09 02 15 26 07 27
  21088147.650     1066936.891 4    860672.244 1
  20549124.470    -9090090.513 5  -6570651.118 1
  21380827.282    -1462168.014 4        -0.30011
  18092223.571   -18761070.692 7 -14546845.167 4
  20729252.134    -6937897.173 5  -2269205.984 1
  19728468.485   -10894863.290 6  -8309597.532 1
  17093247.251   -33752474.559 7 -26170663.289 3
  18449857.790   -11046036.861 6  -8534163.288 2
 95 12 29  3  6 59.9890000  0  8 19 04 09 02 15 26 07 27
  21095767.806     1106975.893 4    891871.442 1
  20517773.329    -9254853.219 5  -6699037.609 1
  21349962.571    -1624358.453 3   -126382.482 1
  18083187.743   -18808545.935 7
  20726408.321    -6952839.985 5  -2280849.728 1
  19719402.626   -10942493.375 5
  17080963.915   -33817010.216 7 -26220950.808 3
  18453676.056   -11025980.304 6  -8518534.815 2
 95 12 29  3  7 29.9890000  0  8 19 04 09 02 15 26 07 27
  21103420.149     1147180.412 3    923199.609 1
  20486428.064    -9419566.237 5  -6827385.391 1
  21319115.767    -1786477.788 3   -252709.233 1
  18074192.079   -18855826.154 7 -14620680.594 4
  20723667.079    -6967243.788 5  -2292073.468 1
  19710437.579   -10989603.290 6  -8383420.939 1
  17068773.048   -33881087.510 7 -26270881.165 3
  18457569.032   -11005522.888 6  -8502593.983 2
 95 12 29  3  7 59.9890000  0  8 19 04 09 02 15 26 07 27
  21111102.884     1187547.638 3    954654.585 1
  20455094.384    -9584222.505 5  -6955688.930 1
  21288282.384    -1948508.856 3   -378967.173 1
  18065230.704   -18902918.232 7 -14657375.723 4
  20721027.407    -6981110.857 5  -2302878.962 1
  19701571.571   -11036186.965 6  -8419719.917 1
  17056668.134   -33944682.622 7 -26320435.791 3
  18461536.673   -10984671.595 6  -8486346.234 2
 95 12 29  3  8 29.9890000  0  8 19 04 09 02 15 26 07 27
  21118815.532     1228087.644 2    986244.163 1
  20423774.634    -9748819.519 5  -7083946.321 1
  21257465.759    -2110433.522 2   -505142.220 1
  18056306.360   -18949822.544 7 -14693924.537 4
  20718491.282    -6994434.319 5  -2313260.887 1
  19692811.384   -11082240.979 6  -8455606.178 1
  17044657.384   -34007787.442 7 -26369608.372 3
  18465582.618   -10963410.007 6  -8469778.777 2
 95 12 29  3  8 59.9890000  0  8 19 04 09 02 15 26 07 27
  21126560.876     1268786.807 3   1017957.752 1
  20392467.079    -9913337.397 5  -7212142.044 1
  21226677.650    -2272238.007 3   -631223.632 1
  18047412.274   -18996559.402 7 -14730342.870 4
  20716059.056    -7007216.582 5  -2323221.081 1
  19684142.689   -11127786.659 6  -8491096.322 1
  17032740.774   -34070417.430 7 -26418410.955 3
  18469703.821   -10941750.221 6  -8452901.033 2
 95 12 29  3  9 29.9890000  0  8 19 04 09 02 15 26 07 27
  21134335.876     1309637.612 2   1049789.519 1
  20361179.814   -10077755.468 5  -7340259.978 1
  21195908.681    -2433916.646 2   -757206.957 1
  18038551.735   -19043123.006 7 -14766626.194 4
  20713734.110    -7019451.880 5  -2332755.089 1
  19675570.829   -11172830.505 6  -8526195.445 1
  17020914.603   -34132575.827 7 -26466846.068 3
  18473902.407   -10919688.965 6  -8435710.457 2
 95 12 29  3  9 59.9890000  0  8 19 04 09 02 15 26 07 27
  21142139.689     1350642.744 2   1081741.538 1
  20329909.431   -10242071.591 5  -7468298.494 1
  21165159.009    -2595490.939 2   -883108.994 1
  18029724.712   -19089504.050 7 -14802767.272 4
  20711510.126    -7031142.553 5  -2341864.692 1
  19667091.673   -11217385.084 6  -8560913.303 1
  17009171.735   -34194283.471 7 -26514929.944 3
  18478176.720   -10897225.141 6  -8418206.193 2
 95 12 29  3 10 29.9890000  0  8 19 04 09 02 15 26 07 27
  21149970.618     1391797.764 2   1113810.368 1
  20298657.618   -10406309.587 5  -7596276.115 1
  21134429.189    -2756984.876 3  -1008948.407 1
  18020933.071   -19135709.974 7 -14838771.883 4
  20709384.423    -7042302.941 5  -2350561.099 1
  19658700.407   -11261475.375 6  -8595269.388 1
  16997506.329   -34255577.723 7 -26562691.693 3
  18482526.493   -10874372.177 6  -8400398.710 2
 95 12 29  3 10 59.9890000  0  8 19 04 09 02 15 26 07 27
  21157831.228     1433119.359 2   1146008.955 1
  20267420.142   -10570461.869 5  -7724186.945 1
  21103714.642    -2918390.535 3  -1134719.046 1
  18012176.298   -19181724.932 7 -14874627.695 4
  20707361.157    -7052922.647 5  -2358836.187 1
  19650404.845   -11305081.685 6  -8629248.342 1
  16985921.876   -34316459.234 7 -26610131.829 3
  18486951.884   -10851120.285 6  -8382280.368 2
 95 12 29  3 11 29.9890000  0  8 19 04 09 02 15 26 07 27
  21165730.165     1474615.803 2   1178343.846 1
  20236197.595   -10734544.270 5  -7852043.355 1
  21073013.267    -3079723.787 3  -1260433.259 1
  18003457.774   -19227537.080 7 -14910325.471 4
  20705440.603    -7063011.221 5  -2366697.413 1
  19642199.595   -11348190.923 6  -8662839.965 1
  16974417.204   -34376922.144 7 -26657245.777 3
  18491455.564   -10827455.704 6  -8363840.457 2
 95 12 29  3 11 59.9890000  0  8 19 04 09 02 15 26 07 27
  21173656.954     1516295.990 2   1210821.857 1
  20204992.017   -10898531.150 5  -7979825.307 1
  21042334.985    -3240966.438 4  -1386076.875 1
  17994776.618   -19273155.491 7 -14945872.281 4
  20703624.095    -7072566.050 5  -2374142.731 1
  19634091.189   -11390791.173 6  -8696034.978 1
  16962994.392   -34436949.373 7 -26704020.236 3
  18496038.392   -10803369.022 6  -8345071.629 2
 95 12 29  3 12 29.9890000  0  8 19 04 09 02 15 26 07 27
  21181625.853     1558145.368 2   1243431.787 1
  20173804.134   -11062398.805 5  -8107514.351 1
  21011672.157    -3402097.423 4  -1511633.487 1
  17986135.860   -19318580.404 7 -14981268.319 4
  20701910.001    -7081587.737 5  -2381172.606 1
  19626087.993   -11432875.145 6  -8728827.698 1
  16951656.751   -34496533.795 7 -26750449.646 3
  18500701.290   -10778861.183 6  -8325974.627 2
 95 12 29  3 12 59.9890000  0  8 19 04 09 02 15 26 07 27
  21189615.181     1600134.998 2   1276150.941 1
  20142644.431   -11226155.411 5  -8235116.883 1
  20981023.665    -3563136.861 4  -1637118.754 1
  17977524.993   -19363826.081 7 -15016524.690 4
  20700287.196    -7090102.247 5  -2387807.274 1
  19618173.485   -11474451.215 6  -8761224.643 1
  16940399.743   -34555684.541 7 -26796541.131 3
  18505439.993   -10753959.319 6  -8306570.592 2
 95 12 29  3 13 29.9890000  0  8 19 04 09 02 15 26 07 27
  21197630.642     1642266.615 3
  20111510.579   -11389776.478 5  -8362613.815 1
  20950397.017    -3724087.037 4  -1762534.470 1
  17968945.657   -19408892.550 7 -15051641.417 4
  20698761.267    -7098104.207 5  -2394042.568 1
  19610355.759   -11515529.621 6  -8793233.803 1
  16929230.814   -34614380.623 7 -26842278.333 3
  18510251.681   -10728673.858 6  -8286867.659 2
 95 12 29  3 13 59.9890000  0  8 19 04 09 02 15 26 07 27
  21205679.735     1684555.930 3
  20080405.415   -11553235.397 5  -8489984.380 1
  20919794.173    -3884911.853 5  -1887852.516 1
  17960410.525   -19453757.557 7 -15086601.162 4
  20697345.392    -7105566.384 5  -2399857.256 1
  19602635.228   -11556102.533 6  -8824849.067 1
  16918151.384   -34672602.333 7 -26887645.894 3
  18515137.915   -10702997.311 6  -8266859.976 2
 95 12 29  3 14 29.9880000  0  8 19 04 09 02 15 26 07 27
  21213749.363     1726968.836 3
  20049322.535   -11716573.133 5  -8617260.521 1
  20889208.340    -4045643.293 5  -2013097.765 1
  17951910.191   -19498434.878 7 -15121414.661 4
  20696026.949    -7112509.305 5  -2405267.319 1
  19595005.207   -11596194.303 6  -8856089.423 1
  16907157.309   -34730373.456 7 -26932662.346 3
  18520094.738   -10676950.723 6  -8246563.946 2
 95 12 29  3 14 59.9880000  0  8 19 04 09 02 15 26 07 27
  21221848.379     1769519.405 4
  20018258.231   -11879815.216 5  -8744462.141 1
  20858637.645    -4206296.243 5  -2138281.890 1
  17943441.027   -19542935.908 7 -15156090.782 4
  20694799.270    -7118927.875 5  -2410268.791 1
  19587469.981   -11635811.154 6  -8886959.708 1
  16896251.731   -34787682.331 7 -26977318.611 3
  18525124.887   -10650522.426 6  -8225970.492 2
 95 12 29  3 15 29.9880000  0  8 19 04 09 02 15 26 07 27
  21229971.949     1812215.717 4
  19987217.332   -12042942.844 5  -8871574.551 1
  20828085.715    -4366843.812 5  -2263383.868 1
  17935007.098   -19587253.477 7 -15190623.958 4
  20693680.613    -7124812.047 5  -2414853.859 1
  19580018.410   -11674957.757 5  -8917463.567 1
  16885433.637   -34844525.868 7 -27021612.272 3
  18530229.176   -10623697.176 6  -8205067.712 2
 95 12 29  3 15 59.9880000  0  8 19 04 09 02 15 26 07 27
  21238124.176     1855049.940 3
  19956195.168   -12205963.147 5  -8998603.360 1
  20797555.270    -4527280.601 5  -2388399.528 1
  17926609.090   -19631387.329 7 -15225013.974 4
  20692666.723    -7130167.265 5  -2419026.740 1
  19572659.238   -11713623.043 6  -8947592.373 1
  16874703.965   -34900914.157 7 -27065551.195 3
  18535408.824   -10596473.251 6  -8183854.283 2
 95 12 29  3 16 29.9880000  0  8 19 04 09 02 15 26 07 27
  21246300.652     1898014.224 4
  19925191.059   -12368883.551 5  -9125554.312 1
  20767042.723    -4687623.851 5  -2513342.324 1
  17918243.098   -19675353.413 7 -15259273.261 4
  20691744.598    -7135010.713 5  -2422800.853 1
  19565391.957   -11751809.835 5  -8977348.324 1
  16864055.957   -34956868.227 7 -27109151.763 3
  18540663.566   -10568857.826 6  -8162335.781 2
 95 12 29  3 16 59.9880000  0  8 19 04 09 02 15 26 07 27
  21254501.262     1941110.952 3
  19894206.918   -12531705.444 5  -9252428.500 1
  20736550.848    -4847864.208 5  -2638204.934 1
  17909905.965   -19719155.459 7 -15293404.726 4
  20690911.816    -7139361.474 5  -2426191.057 1
  19558214.027   -11789534.007 6  -9006743.790 1
  16853489.684   -35012407.852 7 -27152429.390 3
  18545985.559   -10540887.840 6  -8140541.011 2
 95 12 29  3 17 29.9880000  0  8 19 04 09 02 15 26 07 27
  21262735.527     1984372.258 2
  19863250.676   -12694377.643 5  -9379186.049 1
  20706082.863    -5007968.964 5  -2762961.877 1
  17901615.043   -19762744.923 7 -15327370.539 4
  20690187.574    -7143187.800 5  -2429172.610 1
  19551131.512   -11826763.755 6  -9035754.009 1
  16842999.309   -35067512.997 7 -27195368.462 3
  18551380.082   -10512545.901 6  -8118456.394 2
 95 12 29  3 17 59.9880000  0  8 19 04 09 02 15 26 07 27
  21270990.941     2027778.758 2        -0.11511
  19832320.340   -12856931.969 5  -9505851.743 1
  20675640.231    -5167954.957 4  -2887626.283 1
  17893352.887   -19806144.215 7 -15361188.171 3
  20689553.699    -7146509.289 5  -2431760.770 1
  19544137.965   -11863509.123 5  -9064386.764 1
  16832596.488   -35122206.088 7 -27237986.450 3
  18556839.848   -10483859.305 6  -8096103.222 2
 95 12 29  3 18 29.9880000  0  8 19 04 09 02 15 26 07 27
  21279278.856     2071323.073 2     33930.533 1
  19801408.043   -13019366.725 5  -9632424.270 1
  20645219.168    -5327810.612 4  -3012189.124 1
  17885131.816   -19849351.874 7 -15394856.478 4
  20689013.512    -7149332.673 5  -2433960.826 1
  19537234.582   -11899781.937 6  -9092651.304 1
  16822265.543   -35176489.946 7 -27280285.555 3
  18562363.285   -10454833.074 6  -8073485.395 2
 95 12 29  3 18 59.9880000  0  8 19 04 09 02 15 26 07 27
  21287592.652     2115009.226 2     67971.634 1
  19770527.168   -13181649.085 5  -9758878.043 1
  20614828.410    -5487522.888 4  -3136640.257 1
  17876950.215   -19892346.379 7 -15428358.690 4
  20688579.715    -7151642.579 5  -2435760.758 1
  19530427.832   -11935572.492 5  -9120540.070 1
  16812017.340   -35230340.609 7 -27322247.108 3
  18567952.223   -10425456.914 6  -8050594.897 2
 95 12 29  3 19 29.9880000  0  8 19 04 09 02 15 26 07 27
  21295926.840     2158797.538 2    102092.392 1
  19739673.981   -13343792.527 5  -9885223.548 1
  20584458.113    -5647128.696 4  -3261008.402 1
  17868801.801   -19935159.587 7 -15461719.631 4
  20688226.731    -7153464.107 5  -2437180.123 1
  19523704.504   -11970897.287 5  -9148065.902 1
  16801849.176   -35283784.755 7 -27363891.895 3
  18573607.942   -10395738.711 6  -8027437.872 1
 95 12 29  3 19 59.9880000  0  7 04 09 02 15 26 07 27
  19708846.246   -13505780.735 5 -10011448.108 1
  20554111.074    -5806594.519 4  -3385267.484 1
  17860689.895   -19977777.695 7 -15494928.547 4
  20687977.168    -7154785.655 5  -2438209.895 1
  19517077.207   -12005728.463 5  -9175207.088 1
  16791761.996   -35336798.888 7 -27405201.605 3
  18579334.301   -10365645.143 6  -8003988.355 1
 95 12 29  3 20 29.9880000  0  7 04 09 02 15 26 07 27
  19678055.395   -13667588.608 5 -10137532.136 1
  20523792.434    -5965927.272 4  -3509422.878 1
  17852618.051   -20020201.538 7 -15527986.085 4
  20687818.496    -7155612.077 5  -2438853.871 1
  19510539.090   -12040073.201 5  -9201969.234 1
  16781751.895   -35389381.710 7 -27446175.228 3
  18585134.191   -10335169.859 6  -7980241.394 2
 95 12 29  3 20 59.9880000  0  7 04 09 02 15 26 07 27
  19647298.356   -13829217.838 5 -10263476.962 1
  20493496.723    -6125132.465 4  -3633478.870 1
  17844583.621   -20062424.557 7 -15560887.137 3
  20687755.590    -7155939.680 5
  19504093.879   -12073933.237 5  -9228353.694 1
  16771830.152   -35441527.841 7 -27486808.573 3
  18591006.699   -10304304.636 6  -7956190.583 1
 95 12 29  3 21 29.9880000  0  7 04 09 02 15 26 07 27
  19616575.215   -13990677.018 5 -10389289.275 1
  20463228.043    -6284190.101 4  -3757419.849 1
  17836586.574   -20104444.910 7 -15593630.270 3
  20687794.184    -7155765.259 4
  19497747.902   -12107300.832 5  -9254354.439 1
  16761990.043   -35493231.591 7 -27527097.205 3
  18596955.481   -10273043.344 6  -7931831.146 2
 95 12 29  3 21 59.9880000  0  7 04 09 02 15 26 07 27
  19585875.645   -14151998.612 5 -10514994.373 1
  20432985.871    -6443118.265 4  -3881259.983 1
  17828627.074   -20146284.547 7 -15626232.590 4
  20687913.777    -7155115.405 4  -2438466.855 1
  19491486.738   -12140216.180 6  -9280002.776 1
  16752231.566   -35544513.650 7 -27567057.248 3
  18602973.270   -10241420.436 6  -7907189.940 1
 95 12 29  3 22 29.9880000  0  7 04 09 02 15 26 07 27
  19555207.426   -14313164.659 5 -10640578.280 1
  20402766.856    -6601913.288 4  -4004996.349 1
  17820701.551   -20187924.359 7 -15658679.196 4
  20688127.801    -7153977.775 4  -2437580.391 1
  19485308.465   -12172680.446 5  -9305299.629 1
  16742549.332   -35595369.833 7 -27606685.437 3
  18609057.067   -10209448.176 6  -7882276.499 1
 95 12 29  3 22 59.9880000  0  7 04 09 02 15 26 07 27
  19524566.574   -14474182.101 5 -10766046.389 1
  20372579.262    -6760562.103 4  -4128618.796 1
  17812816.043   -20229359.210 7 -15690966.097 4
  20688442.574    -7152352.578 4  -2436314.019 1
  19479216.301   -12204695.039 5  -9330246.078 1
  16732956.176   -35645812.215 7 -27645991.190 3
  18615205.098   -10177147.000 6  -7857106.765 1
 95 12 29  3 23 29.9880000  0  7 04 09 02 15 26 07 27
  19493954.309   -14635048.560 5 -10891396.854 1
  20342412.481    -6919066.341 4  -4252128.567 1
  17804967.168   -20270613.979 7 -15723112.671 3
  20688840.012    -7150258.100 4  -2434681.963 1
  19473203.512   -12236268.717 5  -9354848.965 1
  16723427.645   -35695881.216 7 -27685005.995 3
  18621407.551   -10144550.068 6  -7831706.585 1
 95 12 29  3 23 59.9880000  0  7 04 09 02 15 26 07 27
  19463376.879   -14795740.644 5 -11016611.428 1
  20312282.895    -7077421.524 5  -4375522.196 1
  17797153.168   -20311683.280 7 -15755114.724 3
  20689331.676    -7147684.811 4  -2432676.812 1
  19467281.684   -12267402.907 5  -9379109.386 1
  16713967.457   -35745580.352 7 -27723732.591 3
  18627666.895   -10111649.609 6  -7806069.868 1
 95 12 29  3 24 29.9880000  0  8 19 04 09 02 15 26 07 27
  21380342.824          -0.80212
  19432827.770   -14956271.234 5 -11141700.184 1
  20282171.192    -7235636.809 5  -4498806.831 1
  17789367.106   -20352582.458 7 -15786984.214 3
  20689913.981    -7144644.238 4  -2430307.539 1
  19461437.410   -12298102.694 5  -9403031.320 1
  16704584.168   -35794919.748 7 -27762178.875 3
  18633987.160   -10078445.858 6  -7780196.836 1
 95 12 29  3 24 59.9880000  0  8 19 04 09 02 15 26 07 27
  21388896.942       44949.552 2        -0.38011
  19402310.965   -15116636.346 5 -11266659.990 1
  20252094.293    -7393692.576 5  -4621967.163 1
  17781618.684   -20393306.387 7 -15818717.146 4
  20690574.035    -7141124.613 4  -2427564.975 1
  19455680.238   -12328357.451 5  -9426606.465 1
  16695261.887   -35843879.443 7 -27800329.288 4
  18640368.449   -10044904.680 6  -7754060.870 1
 95 12 29  3 25 29.9880000  0  8 19 04 09 02 15 26 07 27
  21397468.043       89993.708 3     35098.956 1
  19371825.676   -15276841.152 5 -11391494.893 1
  20222045.363    -7551604.400 5  -4745015.333 1
  17773901.176   -20433868.486 7 -15850323.985 4
  20691336.824    -7137136.071 4  -2424457.022 1
  19450005.840   -12358176.157 5  -9449841.837 1
  16686020.324   -35892449.839 7 -27838176.345 3
  18646821.832   -10011009.355 6  -7727648.946 1
 95 12 29  3 25 59.9880000  0  8 19 04 09 02 15 26 07 27
  21406056.551      135112.003 3     70256.058 1
  19341366.449   -15436905.537 6 -11516220.364 1
  20192020.051    -7709388.879 5  -4867964.269 1
  17766217.012   -20474256.546 7 -15881795.201 4
  20692183.277    -7132684.208 4  -2420988.024 1
  19444409.988   -12387575.040 5  -9472750.075 1
  16676856.645   -35940609.755 7 -27875703.547 3
  18653339.379    -9976744.657 6  -7700949.192 1
 95 12 29  3 26 29.9880000  0  8 19 04 09 02 15 26 07 27
  21414658.645      180313.691 3
  19310937.918   -15596813.902 6 -11640824.276 1
  20162022.629    -7867027.792 5  -4990799.773 1
  17758571.137   -20514443.252 7 -15913109.523 4
  20693121.567    -7127760.230 5  -2417151.153 1
  19438898.629   -12416541.788 5  -9495321.579 1
  16667773.043   -35988336.485 7 -27912893.206 3
  18659931.840    -9942108.987 6  -7673960.378 1
 95 12 29  3 26 59.9880000  0  8 19 04 09 02 15 26 07 27
  21423271.137      225593.108 3
  19280542.879   -15756538.767 6 -11765285.200 1
  20132054.051    -8024513.981 5  -5113516.285 1
  17750961.176   -20554422.166 7 -15944261.928 4
  20694148.137    -7122370.254 5  -2412951.171 1
  19433472.356   -12445083.339 5  -9517561.770 1
  16658772.676   -36035641.681 7 -27949754.393 3
  18666587.684    -9907126.038 6  -7646700.953 1
 95 12 29  3 27 29.9870000  0  8 19 04 09 02 15 26 07 27
  21431908.491      270951.305 4
  19250189.093   -15916044.234 5 -11889575.148 1
  20102118.515    -8181828.586 5  -5236099.085 1
  17743395.999   -20594173.406 7 -15975236.926 4
  20695259.937    -7116507.821 5  -2408383.038 1
  19428120.124   -12473190.903 5  -9539463.782 1
  16649853.499   -36082512.947 7 -27986277.455 3
  18673309.655    -9871806.782 6  -7619179.480 1
 95 12 29  3 27 59.9870000  0  8 19 04 09 02 15 26 07 27
  21440551.187      316378.820 3
  19219874.999   -16075343.331 6 -12013704.301 1
  20072212.327    -8338983.705 5  -5358557.616 1
  17735875.069   -20633704.906 7 -16006040.685 4
  20696468.296    -7110186.863 5  -2403457.602 1
  19422849.608   -12500885.732 5  -9561044.192 1
  16641009.858   -36128979.835 7 -28022485.417 4
  18680087.874    -9836185.305 6  -7591422.489 1
 95 12 29  3 28 29.9870000  0  8 19 04 09 02 15 26 07 27
  21449203.929      361869.973 3
  19189605.702   -16234418.225 6 -12137658.751 1
  20042341.288    -8495970.593 5  -5480885.044 1
  17728390.273   -20673034.036 7 -16036686.767 4
  20697754.648    -7103415.936 5  -2398181.537 1
  19417661.460   -12528159.539 5  -9582296.526 1
  16632243.062   -36175056.940 7 -28058389.650 4
  18686918.687    -9800283.603 6  -7563447.162 1
 95 12 29  3 28 59.9870000  0  8 19 04 09 02 15 26 07 27
  21457884.812      407451.004 2
  19159376.679   -16393264.053 6 -12261434.713 1
  20012500.007    -8652781.029 5  -5603074.986 1
  17720941.858   -20712159.345 7 -16067174.022 3
  20699125.421    -7096182.522 5  -2392545.109 1
  19412554.882   -12554999.780 5  -9603211.010 1
  16623551.319   -36220743.323 7 -28093989.426 3
  18693808.655    -9764073.004 6  -7535231.125 1
 95 12 29  3 29 29.9870000  0  8 19 04 09 02 15 26 07 27
  21466570.546      453120.794 3
  19129187.921   -16551915.679 6 -12385059.329 1
  19982688.905    -8809436.300 5  -5725144.017 1
  17713533.226   -20751095.747 7 -16097514.078 4
  20700592.624    -7088496.054 5  -2386555.631 1
  19407524.874   -12581418.153 5  -9623796.770 1
  16614930.733   -36266047.158 7 -28129291.112 4
  18700761.390    -9727543.451 6  -7506766.555 1
 95 12 29  3 29 59.9870000  0  7 04 09 02 15 26 07 27
  19099030.984   -16710390.820 6 -12508546.434 1
  19952906.476    -8965942.282 5  -5847096.734 1
  17706160.444   -20789847.655 7 -16127710.375 4
  20702138.905    -7080357.647 5  -2380213.992 1
  19402578.788   -12607399.580 5  -9644042.052 1
  16606379.155   -36310976.977 7 -28164301.355 3
  18707775.616    -9690683.252 6  -7478044.341 1
 95 12 29  3 30 29.9870000  0  7 04 09 02 15 26 07 27
  19068904.171   -16868695.707 6 -12631900.878 1
  19923150.484    -9122314.389 5  -5968945.122 1
  17698819.890   -20828417.739 7 -16157764.988 3
  20703777.851    -7071774.109 5  -2373525.508 1
  19397723.507   -12632940.213 5  -9663943.866 1
  16597900.249   -36355531.588 7 -28199019.232 4
  18714853.148    -9653487.714 6  -7449060.819 1
 95 12 29  3 30 59.9870000  0  7 04 09 02 15 26 07 27
  19038816.984   -17026811.012 6 -12755107.591 1
  19893421.749    -9278543.722 5  -6090682.255 1
  17691520.171   -20866792.306 7 -16187667.245 4
  20705491.710    -7062740.404 5  -2366486.215 1
  19392944.523   -12658040.525 5  -9683502.558 1
  16589494.608   -36399705.696 7 -28233440.611 4
  18721996.976    -9615949.129 6  -7419809.996 1
 95 12 29  3 31 29.9870000  0  7 04 09 02 15 26 07 27
  19008771.679   -17184703.312 6 -12878140.532 1
  19863725.569    -9434600.849 5  -6212285.214 1
  17684257.507   -20904951.067 7 -16217401.344 4
  20707300.898    -7053238.935 5  -2359082.467 1
  19388255.015   -12682666.508 5  -9702691.667 1
  16581166.187   -36443467.949 7 -28267541.066 4
  18729205.405    -9578067.880 6  -7390292.160 1
 95 12 29  3 31 59.9870000  0  7 04 09 02 15 26 07 27
  18978768.187   -17342366.252 6 -13000994.741 1
  19834055.530    -9590500.218 5  -6333765.242 1
  17677033.702   -20942910.930 7 -16246980.462 4
  20709193.366    -7043294.331 5  -2351333.412 1
  19383657.866   -12706839.239 5  -9721527.574 1
  16572912.554   -36486840.065 7 -28301337.518 4
  18736471.444    -9539885.862 6  -7360539.959 1
 95 12 29  3 32 29.9870000  0  7 04 09 02 15 26 07 27
  18948816.429   -17499771.833 6 -13123648.430 1
  19804421.413    -9746225.958 5  -6455109.974 1
  17669850.960   -20980663.736 7 -16276398.238 3
  20711173.960    -7032898.829 5  -2343232.979 1
  19379138.601   -12730576.702 5  -9740024.316 1
  16564733.218   -36529815.146 7 -28334824.594 3
  18743795.366    -9501402.509 6  -7330552.955 1
 95 12 29  3 32 59.9870000  0  7 04 09 02 15 26 07 27
  18918908.679   -17656934.237 6 -13246112.623 1
  19774825.398    -9901761.196 5  -6576306.268 1
  17662703.069   -21018220.444 7 -16305663.206 4
  20713237.765    -7022057.267 5  -2334784.997 1
  19374705.015   -12753895.851 5  -9758195.100 1
  16556632.062   -36572393.224 7 -28368002.318 4
  18751171.585    -9462626.970 6  -7300338.268 1
 95 12 29  3 33 29.9870000  0  7 04 09 02 15 26 07 27
  18889043.702   -17813871.645 6 -13368401.489 1
  19745267.562   -10057099.108 5  -6697348.781 1
  17655592.109   -21055590.611 7 -16334782.822 3
  20715380.226    -7010773.589 5  -2325992.534 1
  19370344.280   -12776813.484 5  -9776053.018 1
  16548603.343   -36614572.561 7 -28400869.339 4
  18758606.382    -9423561.373 6  -7269897.571 1
 95 12 29  3 33 59.9870000  0  7 04 09 02 15 26 07 27
  18859222.984   -17970590.107 6 -13490519.758 1
  19715745.101   -10212231.451 5  -6818231.118 1
  17648516.796   -21092770.081 7 -16363753.842 3
  20717617.421    -6999056.593 5  -2316862.378 1
  19366052.351   -12799363.175 5  -9793624.228 1
  16540651.890   -36656364.478 7 -28433434.464 4
  18766097.523    -9384196.738 6  -7239223.851 1
 95 12 29  3 34 29.9870000  0  7 04 09 02 15 26 07 27
  18829440.851   -18127094.447 6 -13612471.178 1
  19686267.234   -10367139.094 5  -6938938.373 1
  17641479.491   -21129758.827 7 -16392576.242 3
  20719922.233    -6986906.993 5  -2307395.156 1
  19361829.109   -12821546.950 5  -9810910.313 1
  16532771.257   -36697760.349 7 -28465690.983 4
  18773647.015    -9344524.971 6  -7208310.798 1
 95 12 29  3 34 59.9870000  0  7 04 09 02 15 26 07 27
  18799703.312   -18283366.988 6 -13734241.976 1
  19656832.390   -10521808.429 5  -7059459.927 1
  17634476.757   -21166548.790 7 -16421243.747 3
  20722321.530    -6974321.792 5  -2297588.502 1
  19357685.741   -12843338.811 5  -9827891.000 1
  16524974.929   -36738754.266 7 -28497634.293 4
  18781256.030    -9304544.276 6  -7177157.031 1
 95 12 29  3 35 29.9870000  0  7 04 09 02 15 26 07 27
  18770013.952   -18439387.189 6 -13855816.140 1
  19627444.179   -10676254.583 5  -7179807.578 1
  17627518.108   -21203125.177 7 -16449744.834 3
  20724799.210    -6961299.065 4  -2287440.927 1
  19353613.507   -12864724.136 5  -9844554.913 1
  16517247.679   -36779363.711 7 -28529278.016 4
  18788923.054    -9264255.868 6  -7145763.488 1
 95 12 29  3 35 59.9870000  0  7 04 09 02 15 26 07 27
  18740375.007   -18595139.272 6 -13977181.379 1
  19598093.351   -10830487.853 5  -7299989.346 1
  17620602.491   -21239469.739 7 -16478065.275 3
  20727360.007    -6947839.071 4  -2276952.627 1
  19349626.632   -12885680.664 5  -9860884.692 1
  16509587.312   -36819608.874 7 -28560637.882 4
  18796644.827    -9223665.463 6  -7114134.615 1
 95 12 29  3 36 29.9870000  0  7 04 09 02 15 26 07 27
  18710783.077   -18750642.298 6 -14098352.554 1
  19568778.843   -10984542.423 5  -7420031.863 1
  17613724.905   -21275599.649 7 -16506218.453 3
  20730000.679    -6933958.209 4  -2266136.372 1
  19345720.476   -12906203.212 5  -9876876.306 1
  16501994.749   -36859515.562 7 -28591734.002 4
  18804421.655    -9182803.208 6  -7082293.920 1
 95 12 29  3 36 59.9870000  0  7 04 09 02 15 26 07 27
  18681241.273   -18905889.302 6 -14219324.229 1
  19539497.874   -11138421.038 5  -7539937.286 1
  17606898.515   -21311483.775 7 -16534180.114 3
  20732724.030    -6919639.704 3  -2254979.119 1
  19341900.483   -12926277.886 5  -9892518.940 1
  16494465.155   -36899084.546 7 -28622566.976 4
  18812252.327    -9141651.932 6  -7050228.005 1
 95 12 29  3 37 29.9870000  0  7 04 09 02 15 26 07 27
  18651739.054   -19060916.106 6 -14340124.320 1
  19510245.601   -11292146.252 5  -7659723.156 1
  17600114.312   -21347132.249 7 -16561958.150 3
  20735528.257    -6904904.007 2  -2243496.765 1
  19338160.632   -12945937.950 5  -9907838.486 1
  16486993.866   -36938331.390 7 -28653148.928 4
  18820135.101    -9100223.404 6  -7017946.052 1
 95 12 29  3 37 59.9870000  0  7 04 09 02 15 26 07 27
  18622281.210   -19215724.357 6 -14460754.106 1
  19481024.687   -11445695.286 5  -7779371.755 1
  17593372.085   -21382550.275 7 -16589556.615 3
  20738419.171    -6889757.951 3  -2231694.651 1
  19334495.577   -12965201.158 5  -9922848.799 1
  16479596.616   -36977232.362 7 -28683461.375 4
  18828073.179    -9058517.688 6  -6985448.108 1
 95 12 29  3 38 29.9870000  0  7 04 09 02 15 26 07 27
  18592865.218   -19370303.230 6 -14581205.160 1
  19451844.304   -11599040.298 5  -7898861.368 1
  17586675.530   -21417737.385 7 -16616975.150 3
  20741369.109    -6874195.342 2  -2219567.957 1
  19330901.335   -12984072.361 5  -9937553.641 1
  16472265.569   -37015749.409 7 -28713474.655 4
  18836063.007    -9016523.459 6  -6952725.346 1
 95 12 29  3 38 59.9870000  0  7 04 09 02 15 26 07 27
  18563497.257   -19524639.336 6 -14701467.044 1
  19422704.468   -11752173.157 5  -8018185.676 1
  17580023.109   -21452708.360 7 -16644225.264 3
  20744412.015    -6858226.629 2  -2207124.819 1
  19327382.241   -13002572.832 5  -9951969.618 1
  16465010.319   -37053875.023 7 -28743182.924 4
  18844109.765    -8974237.147 6  -6919775.002 1
 95 12 29  3 39 29.9870000  0  7 04 09 02 15 26 07 27
  18534181.780   -19678694.051 6 -14821509.661 1
  19393609.788   -11905061.256 5  -8137319.250 1
  17573405.437   -21487473.816 7 -16671315.237 3
  20747528.140    -6841844.066 3  -2194359.200 1
  19323934.296   -13020688.252 5  -9966085.558 1
  16457833.507   -37091581.748 7 -28772564.792 4
  18852213.124    -8931654.638 6  -6886593.840 1
 95 12 29  3 39 59.9860000  0  7 04 09 02 15 26 07 27
  18504924.611   -19832436.650 6 -14941309.068 1
  19364567.361   -12057684.879 5  -8256246.755 1
  17566827.025   -21522045.464 7 -16698254.187 3
  20750727.174    -6825047.636 3  -2181271.088 1
  19320561.721   -13038418.464 5  -9979901.325 1
  16450739.604   -37128872.921 7 -28801622.845 4
  18860371.104    -8888791.171 5  -6853193.757 1
 95 12 29  3 40 29.9860000  0  7 04 09 02 15 26 07 27
  18475726.971   -19985878.453 6 -15060874.098 1
  19335566.111   -12210081.398 5  -8374997.284 1
  17560285.572   -21556439.022 7 -16725054.369 3
  20754002.471    -6807840.391 3  -2167862.864 1
  19317262.025   -13055766.861 5  -9993419.564 1
  16443712.307   -37165782.361 7 -28830383.446 4
  18868582.775    -8845645.125 5  -6819573.478 1
 95 12 29  3 40 59.9860000  0  8 24 04 09 02 15 26 07 27
  21084003.494          -0.95515
  18446587.791   -20139004.850 6 -15180193.354 1
  19306612.018   -12362241.666 5  -8493563.724 1
  17553773.979   -21590640.746 7 -16751705.070 3
  20757346.588    -6790210.604 3  -2154125.379 1
  19314032.979   -13072728.859 5 -10006636.716 1
  16436762.736   -37202318.389 7 -28858853.078 4
  18876846.721    -8802210.241 5  -6785728.131 1
 95 12 29  3 41 29.9860000  0  8 24 04 09 02 15 26 07 27
  21051815.166     -169159.156 4
  18417498.924   -20291859.943 6 -15299301.196 1
  19277696.127   -12514192.041 5  -8611966.607 1
  17547302.424   -21624660.517 7 -16778213.988 3
  20760786.502    -6772186.451 4  -2140080.593 1
  19310871.346   -13089328.855 5 -10019571.795 1
  16429870.049   -37238525.468 7 -28887066.382 4
  18885157.244    -8758533.727 5  -6751694.497 1
 95 12 29  3 41 59.9860000  0  8 24 04 09 02 15 26 07 27
  21019610.150     -338378.138 4        -0.18711
  18388463.080   -20444448.953 6 -15418201.709 1
  19248819.549   -12665926.390 5  -8730201.169 1
  17540868.307   -21658469.709 7 -16804558.827 3
  20764288.330    -6753757.472 4  -2125720.355 1
  19307786.221   -13105556.040 5 -10032216.364 1
  16423044.736   -37274397.774 7 -28915018.828 4
  18893518.815    -8714595.427 5  -6717456.886 1
 95 12 29  3 42 29.9860000  0  8 24 04 09 02 15 26 07 27
  20987392.354     -507678.300 3   -131922.397 1
  18359470.541   -20596801.296 6 -15536917.800 1
  19219985.299   -12817471.920 5  -8848288.591 1
  17534469.260   -21692080.237 7 -16830748.851 3
  20767867.815    -6734950.381 5  -2111065.483 1
  19304765.104   -13121422.824 5 -10044580.108 1
  16416282.619   -37309951.754 7 -28942723.230 4
  18901926.565    -8670415.211 5  -6683030.758 1
 95 12 29  3 42 59.9860000  0  8 24 04 09 02 15 26 07 27
  20955167.510     -677032.917 3   -263887.075 1
  18330527.104   -20748891.736 6 -15655429.815 1
  19191189.775   -12968777.893 5  -8966189.345 1
  17528120.041   -21725453.469 7 -16856753.975 3
  20771525.447    -6715745.208 5  -2096100.401 1
  19301821.244   -13136911.893 5 -10056649.522 1
  16409582.127   -37345149.068 7 -28970149.707 4
  18910381.533    -8625986.093 5  -6648410.691 1
 95 12 29  3 43 29.9860000  0  8 24 04 09 02 15 26 07 27
  20922930.252     -846450.949 3   -395901.115 1
  18301637.213   -20900713.219 6 -15773732.256 1
  19162442.432   -13119846.100 5  -9083904.832 1
  17521812.440   -21758603.322 7 -16882585.035 3
  20775253.955    -6696153.645 5  -2080834.255 1
  19298944.705   -13152023.208 5 -10068424.586 1
  16402952.268   -37379988.958 7 -28997297.670 4
  18918883.330    -8581304.650 5  -6613593.997 1
 95 12 29  3 43 59.9860000  0  8 24 04 09 02 15 26 07 27
  20890673.650    -1015948.581 3   -527977.208 1
  18272802.502   -21052248.192 6 -15891811.443 1
  19133741.150   -13270677.866 5  -9201436.076 1
  17515544.893   -21791539.794 7 -16908249.827 3
  20779056.650    -6676178.697 5  -2065269.342 1
  19296138.525   -13166763.421 5 -10079910.476 1
  16396390.963   -37414465.064 7 -29024162.168 4
  18927438.135    -8536356.557 5  -6578569.534 1
 95 12 29  3 44 29.9860000  0  8 24 04 09 02 15 26 07 27
  20858402.135    -1185545.055 3   -660130.312 1
  18244020.908   -21203498.244 6 -16009668.614 2
  19105082.072   -13421282.652 5  -9318790.448 1
  17509313.299   -21824273.378 7 -16933756.521 3
  20782924.385    -6655834.419 5  -2049416.651 1
  19293400.330   -13181149.645 5 -10091120.533 1
  16389896.338   -37448601.682 7 -29050762.132 4
  18936036.541    -8491158.833 5  -6543350.548 1
 95 12 29  3 44 59.9860000  0  8 24 04 09 02 15 26 07 27
  20826113.088    -1355221.818 3   -792345.991 1
  18215293.463   -21354460.658 6 -16127301.652 1
  19076465.002   -13571660.236 5  -9435967.785 1
  17503127.072   -21856795.446 7 -16959098.398 3
  20786866.432    -6635117.505 5  -2033273.583 1
  19290724.533   -13195190.014 5 -10102061.100 1
  16383465.299   -37482405.898 7 -29077103.074 4
  18944689.604    -8445701.611 5  -6507929.361 1
 95 12 29  3 45 29.9860000  0  8 24 04 09 02 15 26 07 27
  20793813.588    -1524957.485 2   -924607.543 1
  18186623.018   -21505122.886 6 -16244700.786 2
  19047896.791   -13721801.874 5  -9552961.280 1
  17496981.697   -21889102.208 7 -16984272.502 3
  20790885.471    -6614015.893 5  -2016830.752 1
  19288127.143   -13208861.732 5 -10112714.392 1
  16377092.486   -37515875.863 7 -29103183.563 4
  18953392.916    -8399961.995 5  -6472288.122 1
 95 12 29  3 45 59.9860000  0  8 24 04 09 02 15 26 07 27
  20761505.463    -1694741.397 2  -1056906.672 1
  18158006.705   -21655498.899 6 -16361876.884 2
  19019370.275   -13871711.838 5  -9669774.235 1
  17490875.322   -21921192.018 7 -17009277.558 3
  20794972.854    -6592542.370 5  -2000098.150 1
  19285595.908   -13222183.745 5 -10123095.211 1
  16370783.596   -37549030.172 7 -29129018.096 4
  18962143.932    -8353967.322 5  -6436448.138 1
 95 12 29  3 46 29.9860000  0  8 24 04 09 02 15 26 07 27
  20729186.252    -1864553.687 2  -1189227.885 1
  18129447.666   -21805580.514 6 -16478823.586 2
  18990886.791   -14021386.055 5  -9786403.500 1
  17484808.885   -21953059.201 7 -17034109.135 3
  20799124.838    -6570695.262 5  -1983074.382 1
  19283123.799   -13235156.928 5 -10133204.183 1
  16364537.525   -37581866.270 7 -29154604.661 4
  18970941.963    -8307731.406 5  -6400420.180 1
 95 12 29  3 46 59.9860000  0  8 24 04 09 02 15 26 07 27
  20696875.299    -2034386.836 2  -1321565.317 1
  18100943.854   -21955369.965 6 -16595542.636 2
  18962445.604   -14170833.878 5  -9902856.349 1
  17478785.963   -21984717.576 7 -17058778.002 3
  20803355.479    -6548486.652 5  -1965768.962 1
  19280714.986   -13247799.689 5 -10143055.716 1
  16358346.268   -37614381.761 7 -29179941.405 4
  18979784.400    -8261266.756 5  -6364213.977 1
 95 12 29  3 47 29.9860000  0  8 24 04 09 02 15 26 07 27
  20664557.119    -2204210.880 1  -1453895.702 1
  18072502.025   -22104829.005 6 -16712004.211 2
  18934057.565   -14320026.080 6 -10019110.008 1
  17472801.854   -22016146.597 7 -17083268.151 3
  20807653.393    -6525893.833 5  -1948164.230 1
  19278379.690   -13260097.375 5 -10152638.342 1
  16352230.604   -37646545.915 7 -29205004.380 4
  18988674.322    -8214555.008 5  -6327815.233 1
 95 12 29  3 47 59.9860000  0  7 04 09 02 15 26 07 27
  18044122.150   -22253966.470 6
  18905710.065   -14468997.560 6
  17466867.471   -22047355.150 7 -17107586.516 3
  20812017.361    -6502939.801 5
  19276094.447   -13272088.574 5 -10161982.138 1
  16346170.221   -37678375.032 7 -29229806.290 4
  18997603.541    -8167631.751 5  -6291251.671 1
 95 12 29  3 48 29.9860000  0  8 24 04 09 02 15 26 07 27
  20599915.979          -0.60413
  18015804.283   -22402780.982 6
  18877404.830   -14617748.833 6
  17460966.838   -22078348.104 7 -17131736.875 3
  20816458.072    -6479629.855 5
  19273872.729   -13283770.924 5 -10171085.295 1
  16340178.033   -37709871.190 7 -29254348.749 4
  19006571.119    -8120501.871 5  -6254527.107 1
 95 12 29  3 48 59.9860000  0  8 24 04 09 02 15 26 07 27
  20567592.650     -169861.530 3
  17987547.815   -22551270.171 6
  18849145.705   -14766247.282 6
  17455111.713   -22109114.808 7 -17155710.930 3
  20820960.158    -6455957.521 5
  19271711.447   -13295124.660 5 -10179932.379 1
  16334249.002   -37741028.915 7 -29278627.499 4
  19015582.080    -8073152.338 5  -6217631.388 1
 95 12 29  3 49 29.9860000  0  8 24 04 09 02 15 26 07 27
  20535261.799     -339746.975 3        -0.22111
  17959349.885   -22699445.196 6
  18820937.440   -14914480.641 6
  17449300.143   -22139659.229 7 -17179511.794 3
  20825532.674    -6431933.285 4
  19269614.893   -13306147.313 5 -10188521.474 1
  16328378.533   -37771869.773 7 -29302659.334 4
  19024630.104    -8025604.016 5  -6180580.759 1
 95 12 29  3 49 59.9860000  0  8 24 04 09 02 15 26 07 27
  20502927.361     -509670.886 3   -132408.448 1
  17931213.940   -22847300.915 6
  18792782.221   -15062430.710 6
  17443534.033   -22169976.669 7
  20830173.736    -6407556.536 4
  19267586.525   -13316815.162 5 -10196834.111 1
  16322569.041   -37802397.204 7
  19033714.322    -7977857.679 5  -6143375.848 1
 95 12 29  3 50 29.9860000  0  8 24 04 09 02 15 26 07 27
  20470576.682     -679639.911 3   -264851.811 1
  17903138.572   -22994838.678 6
  18764688.713   -15210077.760 6
  17437805.197   -22200074.618 7
  20834876.627    -6382827.116 3
  19265626.010   -13327116.885 5 -10204861.436 1
  16316821.611   -37832600.953 7
  19042842.447    -7929897.593 5  -6106004.358 1
 95 12 29  3 50 59.9860000  0  7 24 04 09 02 26 07 27
  20438230.080     -849654.138 4   -397330.404 1
  17875126.838   -23142049.361 6
  18736648.557   -15357421.984 6
  17432120.627   -22229945.848 7
  19263734.611   -13337059.611 5 -10212609.031 1
  16311135.213   -37862476.867 7
  19052014.518    -7881703.887 5  -6068450.847 1
 95 12 29  3 51 29.9860000  0  7 24 04 09 02 26 07 27
  20405866.643    -1019734.332 4   -529860.388 1
  17847176.525   -23288930.697 6 -17634680.749 2
  18708659.533   -15504497.553 6 -10550017.802 1
  17426476.275   -22259605.893 7
  19261902.213   -13346676.635 5 -10220102.831 1
  16305511.377   -37892030.585 7
  19061228.252    -7833276.214 5  -6030715.013 1
 95 12 29  3 51 59.9860000  0  7 24 04 09 02 26 07 27
  20373484.760    -1189883.850 4   -662444.395 1
  17819289.002   -23435478.252 6 -17748873.641 2
  18680719.557   -15651325.933 6 -10664429.527 1
  17420869.979   -22289059.317 7 -17295927.479 3
  19260133.307   -13355986.201 5 -10227357.044 1
  16299952.369   -37921249.970 7 -29419059.480 4
  19070489.572    -7784604.721 5  -5992789.195 1
 95 12 29  3 52 29.9860000  0  7 24 04 09 02 26 07 27
  20341106.854    -1360064.526 5   -795052.688 1
  17791465.893   -23581685.480 6 -17862801.340 2
  18652830.455   -15797892.523 6 -10778637.255 1
  17415306.510   -22318295.235 7 -17318708.728 3
  19258417.908   -13364998.822 5 -10234379.880 1
  16294459.783   -37950125.392 7 -29441559.812 4
  19079803.338    -7735672.947 5  -5954660.563 1
 95 12 29  3 52 59.9850000  0  7 24 04 09 02 26 07 27
  20308716.364    -1530250.328 4   -927664.985 1
  17763712.732   -23727534.748 6 -17976450.105 2
  18624990.630   -15944185.564 6 -10892631.835 1
  17409790.513   -22347300.514 7 -17341310.248 3
  19256756.614   -13373707.612 5 -10241165.962 1
  16289025.302   -37978667.406 7 -29463800.340 5
  19089163.575    -7686483.873 5  -5916331.432 1
 95 12 29  3 53 29.9850000  0  7 24 04 09 02 26 07 27
  20276327.388    -1700439.145 4  -1060279.600 1
  17736023.482   -23873038.952 6 -18089829.997 2
  18597201.669   -16090220.386 6 -11006425.207 1
  17404310.982   -22376078.094 7 -17363734.356 3
  19255159.739   -13382099.574 5 -10247705.166 1
  16283659.114   -38006873.261 7 -29485778.927 5
  19098569.224    -7637054.882 5  -5877815.361 1
 95 12 29  3 53 59.9850000  0  7 24 04 09 02 26 07 27
  20243948.107    -1870612.627 4  -1192882.329 1
  17708399.974   -24018198.535 6 -18202941.357 2
  18569465.505   -16235976.853 6 -11120001.663 1
  17398877.599   -22404628.344 7 -17385981.305 3
  19253626.263   -13390165.353 5 -10253990.214 1
  16278356.255   -38034760.577 7 -29507509.304 4
  19108014.825    -7587411.778 5  -5839132.433 1
 95 12 29  3 54 29.9850000  0  7 24 04 09 02 26 07 27
  20211566.521    -2040779.042 4  -1325479.537 1
  17680841.732   -24163021.392 6 -18315790.330 2
  18541781.583   -16381452.057 6 -11233358.969 1
  17393488.966   -22432957.268 7 -17408055.799 3
  19252153.567   -13397909.649 5 -10260024.742 1
  16273101.888   -38062351.202 7 -29529008.489 5
  19117497.763    -7537570.094 5  -5800294.792 1
 95 12 29  3 54 59.9850000  0  7 24 04 09 02 26 07 27
  20179189.841    -2210951.954 4  -1458081.790 1
  17653346.021   -24307506.720 6 -18428376.290 2
  18514150.114   -16526658.804 6 -11346507.089 1
  17388138.810   -22461065.044 7 -17429957.963 3
  19250737.216   -13405327.899 5 -10265805.216 1
  16267910.497   -38089648.159 7 -29550278.846 5
  19127018.880    -7487543.518 5  -5761313.071 1
 95 12 29  3 55 29.9850000  0  7 24 04 09 02 26 07 27
  20146803.567    -2381121.179 3  -1590681.170 1
  17625921.607   -24451632.456 6 -18540682.057 2
  18486573.872   -16671566.266 6 -11459421.990 1
  17382834.958   -22488944.771 7 -17451682.431 3
  19249392.005   -13412428.035 5 -10271337.812 1
  16262771.325   -38116638.820 7 -29571310.531 5
  19136575.857    -7437328.535 5  -5722184.528 1
 95 12 29  3 55 59.9850000  0  7 24 04 09 02 26 07 27
  20114421.544    -2551293.985 3  -1723283.394 1
  17598561.794   -24595396.203 6 -18652705.751 2
  18459061.013   -16816154.566 6 -11572088.193 1
  17377573.528   -22516596.375 7 -17473229.144 3
  19248094.552   -13419233.054 5 -10276640.432 1
  16257689.286   -38143336.233 7 -29592113.715 5
  19146165.716    -7386924.465 5  -5682908.642 1
 95 12 29  3 56 29.9850000  0  7 24 04 09 02 26 07 27
  20082036.458    -2721471.389 3  -1855889.179 1
  17571275.677   -24738800.951 6 -18764449.712 2
  18431605.497   -16960431.842 6 -11684512.051 1
  17372351.630   -22544017.949 7 -17494596.614 3
  19246857.427   -13425745.352 5 -10281714.972 1
  16252669.341   -38169731.253 7 -29612681.260 4
  19155795.450    -7336329.865 5  -5643484.291 1
 95 12 29  3 56 59.9850000  0  7 24 04 09 02 26 07 27
  20049654.982    -2891636.471 3  -1988485.323 1
  17544055.552   -24881836.167 6 -18875905.723 2
  18404211.521   -17104391.028 6 -11796688.034 1
  17367182.278   -22571202.200 7 -17515779.147 3
  19245673.028   -13431960.946 5 -10286558.305 1
  16247703.341   -38195820.161 7 -29633010.277 5
  19165457.427    -7285552.138 5  -5603917.259 1
 95 12 29  3 57 29.9850000  0  7 24 04 09 02 26 07 27
  20017272.060    -3061812.020 3  -2121089.645 1
  17516905.442   -25024516.730 6 -18987085.378 2
  18376874.138   -17248048.097 6 -11908628.614 1
  17362051.505   -22598161.930 7 -17536786.734 3
  19244542.185   -13437902.080 5 -10291187.767 1
  16242790.802   -38221624.096 7 -29653117.243 5
  19175150.505    -7234615.033 5  -5564226.020 1
 95 12 29  3 57 59.9850000  0  7 24 04 09 02 26 07 27
  19984890.286    -3231979.286 3  -2253687.485 1
  17489821.802   -25166840.231 6 -19097986.798 2
  18349592.942   -17391405.083 6 -12020335.362 1
  17356967.083   -22624875.224 7 -17557602.298 3
  19243469.396   -13443539.895 5 -10295580.893 1
  16237939.403   -38247132.324 7 -29672993.779 5
  19184876.896    -7183504.275 5  -5524399.476 1
 95 12 29  3 58 29.9850000  0  7 24 04 09 02 26 07 27
  19952513.497    -3402139.290 3  -2386279.659 1
  17462806.903   -25308807.084 6 -19208610.312 2
  18322371.146   -17534472.287 6 -12131816.299 1
  17351924.778   -22651355.838 7 -17578236.550 3
  19242455.622   -13448877.690 5 -10299740.231 1
  16233138.771   -38272358.929 7 -29692650.874 5
  19194633.614    -7132228.887 5  -5484444.664 1
 95 12 29  3 58 59.9850000  0  7 24 04 09 02 26 07 27
  19920133.099    -3572277.184 3  -2518854.603 1
  17435861.677   -25450393.398 6 -19318937.307 2
  18295205.833   -17677230.934 6 -12243056.808 1
  17346933.896   -22677584.054 7 -17598674.131 3
  19241494.646   -13453908.392 5 -10303660.280 1
  16228395.052   -38297289.256 7 -29712077.105 5
  19204425.380    -7080773.809 5  -5444349.823 1
 95 12 29  3 59 29.9850000  0  7 24 04 09 02 26 07 27
  19887765.802    -3742376.133 4  -2651399.188 1
  17408995.497   -25591583.975 6 -19428955.934 2
  18268099.708   -17819663.674 6 -12354043.353 1
  17341994.466   -22703552.447 7 -17618909.249 3
  19240595.302   -13458626.960 5 -10307337.091 1
  16223708.841   -38321911.050 7 -29731262.920 5
  19214255.107    -7029113.321 5  -5404094.901 1
 95 12 29  3 59 59.9850000  0  7 24 04 09 02 26 07 27
  19855402.091    -3912438.020 4  -2783914.919 1
  17382204.849   -25732377.615 6 -19538665.262 2
  18241056.200   -17961772.450 6 -12464777.467 1
  17337101.177   -22729274.142 7 -17638952.136 3
  19239756.271   -13463045.866 5 -10310780.416 1
  16219080.169   -38346229.733 7 -29750212.541 5
  19224128.114    -6977237.922 5  -5363672.524 1
 95 12 29  4  0 29.9850000  0  7 24 04 09 02 26 07 27
  19823047.411    -4082480.124 5  -2916415.199 1
  17355484.278   -25872786.239 6 -19648074.568 2
  18214069.536   -18103585.023 6 -12575280.772 1
  17332248.388   -22754775.742 7 -17658823.518 3
  19238968.325   -13467206.219 5 -10314022.259 1
  16214505.474   -38370261.210 7 -29768938.373 5
  19234032.614    -6925180.478 5  -5323108.292 1
 95 12 29  4  0 59.9850000  0  7 24 04 09 02 26 07 27
  19790694.427    -4252475.277 5  -3048878.925 1
  17328843.013   -26012795.826 6 -19757172.934 2
  18187142.786   -18245077.712 6 -12685534.812 1
  17327443.505   -22780024.887 7 -17678498.181 3
  19238226.755   -13471094.639 5 -10317052.230 1
  16209994.786   -38393981.355 7 -29787421.600 4
  19243977.560    -6872924.467 5  -5282389.360 1
 95 12 29  4  1 29.9850000  0  7 24 04 09 02 26 07 27
  19758354.341    -4422440.125 5  -3181318.992 1
  17302270.411   -26152431.687 6 -19865980.103 2
  18160277.685   -18386266.944 6 -12795552.396 1
  17322682.950   -22805050.806 7 -17697998.902 3
  19237534.208   -13474738.649 5 -10319891.738 1
  16205532.341   -38417428.206 7 -29805691.876 5
  19253953.075    -6820499.811 5  -5241538.997 1
 95 12 29  4  1 59.9850000  0  7 24 04 09 02 26 07 27
  19726014.755    -4592387.362 5  -3313745.396 1
  17275767.919   -26291706.045 6 -19974505.567 2
  18133462.591   -18527176.584 6 -12905352.119 1
  17317954.419   -22829872.294 7 -17717340.323 3
  19236881.153   -13478162.207 5 -10322559.452 1
  16201119.771   -38440611.984 7 -29823757.156 4
  19263953.107    -6767946.077 5  -5200588.065 1
 95 12 29  4  2 29.9850000  0  7 24 04 09 02 26 07 27
  19693685.482    -4762267.613 5  -3446119.580 1
  17249340.185   -26430586.348 6 -20082723.979 2
  18106712.825   -18667761.928 6 -13014899.134 1
  17313279.685   -22854448.841 7 -17736490.891 3
  19236277.505   -13481328.306 5 -10325026.550 1
  16196767.497   -38463498.531 7 -29841590.832 5
  19273985.677    -6715245.341 4  -5159522.572 1
 95 12 29  4  2 59.9850000  0  7 24 04 09 02 26 07 27
  19661371.325    -4932085.106 5  -3578444.879 1
  17222990.161   -26569052.087 6 -20190619.357 2
  18080024.341   -18808002.584 6 -13124177.575 1
  17308652.630   -22878767.462 7 -17755440.474 3
  19235726.911   -13484218.804 5 -10327278.900 1
  16192470.200   -38486082.793 7 -29859188.959 4
  19284045.567    -6662377.039 4  -5118326.512 1
 95 12 29  4  3 29.9850000  0  7 24 04 09 02 26 07 27
  19629069.833    -5101861.223 5  -3710737.913 1
  17196720.583   -26707092.996 6 -20298183.703 2
  18053398.482   -18947918.731 6 -13233203.143 1
  17304070.091   -22902854.201 7 -17774209.374 3
  19235230.169   -13486834.505 5 -10329317.120 1
  16188228.692   -38508366.948 7 -29876553.234 4
  19294135.099    -6609354.485 4  -5077010.286 1
 95 12 29  4  3 59.9850000  0  7 24 04 09 02 26 07 27
  19596762.216    -5271604.089 5  -3843005.062 1
  17170533.075   -26844708.852 6 -20405416.830 2
  18026834.396   -19087514.984 6 -13341979.450 1
  17299531.849   -22926708.406 7 -17792797.078 3
  19234784.599   -13489179.180 5 -10331144.153 1
  16184045.192   -38530353.075 7 -29893685.280 4
  19304252.567    -6556180.335 4  -5035575.911 1
 95 12 29  4  4 29.9850000  0  7 24 04 09 02 26 07 27
  19564467.130    -5441328.795 5  -3975258.075 1
  17144425.739   -26981912.524 6 -20512328.781 2
  18000331.747   -19226786.547 6 -13450502.739 1
  17295036.544   -22950332.315 7 -17811205.329 3
  19234394.130   -13491248.931 5 -10332756.965 1
  16179914.357   -38552063.864 7 -29910602.782 4
  19314397.614    -6502849.218 4  -4994019.223 1
 95 12 29  4  4 59.9850000  0  7 24 04 09 02 26 07 27
  19532174.989    -5611007.369 5  -4107475.124 1
  17118398.567   -27118679.998 6 -20618900.827 2
  17973898.021   -19365708.662 6 -13558753.739 1
  17290584.896   -22973707.980 7 -17829420.149 3
  19234048.716   -13493020.413 5 -10334137.364 1
  16175839.286   -38573480.297 7 -29927290.906 4
  19324588.099    -6449338.220 4  -4952322.368 1
 95 12 29  4  5 29.9840000  0  7 24 04 09 02 26 07 27
  19499898.016    -5780633.196 5  -4239651.061 1
  17092448.734   -27255050.800 6 -20725163.781 2
  17947523.563   -19504295.163 6 -13666743.225 1
  17286179.602   -22996863.559 7 -17847463.475 2
  19233765.977   -13494524.721 5 -10335309.544 1
  16171814.109   -38594634.664 7 -29943774.827 5
  19334796.141    -6395679.486 4  -4910510.376 1
 95 12 29  4  5 59.9840000  0  7 24 04 09 02 26 07 27
  19467638.281    -5950175.749 5  -4371762.114 1
  17066574.055   -27391021.340 6 -20831114.834 2
  17921222.820   -19642512.780 6 -13774445.266 1
  17281826.820   -23019761.001 7 -17865305.648 3
  19233536.922   -13495749.637 5 -10336264.063 1
  16167837.758   -38615511.466 7 -29960042.465 5
  19345038.734    -6341843.629 4  -4868560.370 1
 95 12 29  4  6 29.9840000  0  7 24 04 09 02 26 07 27
  19435388.375    -6119643.889 5  -4503815.189 1
  17040775.133   -27526597.062 6 -20936758.243 2
  17894989.922   -19780372.659 6 -13881868.541 1
  17277511.297   -23042405.545 7 -17882950.766 3
  19233348.891   -13496713.360 5 -10337015.027 1
  16163917.078   -38636123.002 7 -29976103.401 4
  19355312.859    -6287852.537 4  -4826489.392 1
 95 12 29  4  6 59.9840000  0  7 24 04 09 02 26 07 27
  19403148.875    -6289040.214 4  -4635812.296 1
  17015051.539   -27661773.305 6 -21042090.374 3
  17868820.156   -19917886.262 6 -13989022.001 1
  17273251.305   -23064797.068 7 -17900398.720 3
  19233217.000   -13497441.043 5 -10337582.077 1
  16160046.984   -38656468.927 7 -29991957.372 5
  19365614.352    -6233720.733 4  -4784308.750 1
 95 12 29  4  7 29.9840000  0  7 24 04 09 02 26 07 27
  19370928.375    -6458360.359 4  -4767750.047 1
  16989410.008   -27796520.864 6 -21147088.458 3
  17842722.305   -20055041.527 6 -14095896.233 1
  17269047.164   -23086916.195 7 -17917634.425 3
  19233120.711   -13497932.349 5 -10337964.909 1
  16156226.164   -38676532.715 7 -30007591.494 5
  19375940.727    -6179444.674 4  -4742015.755 1
 95 12 29  4  7 59.9840000  0  7 24 04 09 02 26 07 27
  19338715.016    -6627638.064 5  -4899654.715 1
  16963848.781   -27930839.875 6 -21251752.613 3
  17816685.008   -20191864.645 6 -14202511.652 1
  17264883.852   -23108779.250 7 -17934670.585 2
  19233066.063   -13498219.520 5
  16152461.141   -38696333.690 7 -30023020.824 5
  19386291.664    -6125047.681 4  -4699628.490 1
 95 12 29  4  8 29.9840000  0  7 24 04 09 02 26 07 27
  19306514.227    -6796861.139 4  -5031516.810 1
  16938376.070   -28064704.461 6 -21356062.673 2
  17790716.445   -20328339.458 6 -14308855.662 2
  17260771.469   -23130384.296 7 -17951505.698 3
  19233048.359   -13498292.421 5
  16148744.930   -38715859.711 7 -30038235.901 4
  19396673.102    -6070511.333 5  -4657132.662 1
 95 12 29  4  8 59.9840000  0  7 24 04 09 02 26 07 27
  19274319.586    -6966019.227 5  -5163328.274 1
  16912990.367   -28198116.142 6 -21460019.822 3
  17764812.086   -20464453.588 6 -14414918.625 2
  17256707.492   -23151757.071 7 -17968159.822 3
  19233075.453   -13498164.591 5
  16145077.406   -38735119.781 7 -30053243.747 4
  19407079.641    -6015833.558 5  -4614526.625 1
 95 12 29  4  9 29.9840000  0  7 24 04 09 02 26 07 27
  19242148.570    -7135111.992 5  -5295088.843 1
  16887686.477   -28331078.922 6 -21563627.174 3
  17738978.164   -20600205.065 6 -14520698.994 1
  17252678.547   -23172908.836 7 -17984641.737 3
  19233136.875   -13497832.982 5
  16141463.141   -38754126.690 7 -30068054.327 5
  19417508.617    -5961011.666 5  -4571808.245 1
 95 12 29  4  9 59.9840000  0  7 24 04 09 02 26 07 27
  19209984.828    -7304131.458 5  -5426792.297 1
  16862468.703   -28463595.449 6 -21666886.793 3
  17713219.469   -20735577.713 6 -14626184.173 1
  17248699.953   -23193826.855 7 -18000941.498 3
  19233243.547   -13497281.725 5 -10337458.022 1
  16137893.320   -38772883.560 7 -30082670.070 5
  19427971.430    -5906027.904 5  -4528963.782 1
 95 12 29  4 10 29.9840000  0  7 24 04 09 02 26 07 27
  19177837.047    -7473073.754 5  -5558435.610 1
  16837335.719   -28595676.490 6 -21769807.072 3
  17687531.656   -20870574.685 6 -14731376.626 2
  17244761.805   -23214519.459 7 -18017065.620 2
  19233391.422   -13496502.958 5 -10336851.195 1
  16134366.703   -38791395.837 7 -30097095.225 5
  19438464.797    -5850889.323 5  -4485998.687 1
 95 12 29  4 10 59.9840000  0  7 24 04 09 02 26 07 27
  19145704.258    -7641931.399 5  -5690012.981 1
  16812283.774   -28727320.917 6 -21872387.138 3
  17661915.242   -21005194.790 6 -14836275.406 2
  17240871.203   -23234962.246 7 -18032995.079 2
  19233587.102   -13495478.057 4 -10336052.598 1
  16130896.445   -38809652.513 7 -30111321.201 4
  19448986.656    -5795599.146 4  -4442915.434 1
 95 12 29  4 11 29.9840000  0  7 24 04 09 02 26 07 27
  19113587.024    -7810711.797 5  -5821530.149 1
  16787313.031   -28858536.733 6 -21974633.213 3
  17636364.719   -21139454.504 6 -14940893.369 2
  17237031.516   -23255139.485 7 -18048717.622 2
  19233827.195   -13494199.295 5 -10335056.161 1
  16127470.430   -38827652.983 7 -30125347.544 4
  19459532.703    -5740176.445 4  -4399728.979 1
 95 12 29  4 11 59.9840000  0  7 24 04 09 02 26 07 27
  19081484.039    -7979403.767 5  -5952978.419 1
  16762426.274   -28989327.476 7 -22076548.075 3
  17610882.586   -21273357.072 6 -15045233.033 1
  17233241.086   -23275052.866 7 -18064234.558 2
  19234119.586   -13492670.065 5 -10333864.572 1
  16124094.930   -38845385.871 7 -30139165.378 5
  19470105.734    -5684628.293 4  -4356444.698 1
 95 12 29  4 12 29.9840000  0  7 24 04 09 02 26 07 27
  19049402.453    -8147996.449 5  -6084349.315 1
  16737619.859   -29119682.907 7 -22178123.724 3
  17585470.492   -21406909.275 6 -15149299.690 2
  17229502.539   -23294705.857 7 -18079548.594 2
  19234458.922   -13490903.863 5 -10332488.336 1
  16120774.281   -38862844.853 7 -30152769.786 5
  19480696.602    -5628968.520 4  -4313073.487 1
 95 12 29  4 12 59.9840000  0  7 24 04 09 02 26 07 27
  19017337.149    -8316492.845 5  -6215645.191 1
  16712897.344   -29249606.419 6 -22279362.812 3
  17560122.633   -21540108.790 6 -15253091.521 2
  17225812.016   -23314096.763 7 -18094658.410 2
  19234836.391   -13488915.574 5 -10330939.040 1
  16117500.945   -38880044.442 7 -30166172.057 5
  19491305.570    -5573217.410 3  -4269631.081 1
 95 12 29  4 13 29.9840000  0  7 24 04 09 02 26 07 27
  18985297.383    -8484884.627 5  -6346859.562 1
  16688257.680   -29379083.938 7 -22380254.376 3
  17534840.859   -21672956.277 6 -15356609.051 2
  17222173.625   -23333228.787 7 -18109566.497 2
  19235250.586   -13486728.774 5 -10329235.043 1
  16114274.899   -38896993.649 7 -30179379.236 5
  19501926.391    -5517387.242 3  -4226127.089 1
 95 12 29  4 13 59.9840000  0  7 24 04 09 02 26 07 27
  18953274.383    -8653151.992 5  -6477976.977 1
  16663711.008   -29508082.545 7 -22480772.761 3
  17509632.094   -21805432.413 6 -15459837.214 2
  17218585.305   -23352083.338 7 -18124258.367 2
  19235705.141   -13484342.037 5 -10327375.271 1
  16111098.516   -38913681.803 7 -30192382.992 5
  19512570.234    -5461460.253 2  -4182547.639 1
 95 12 29  4 14 29.9840000  0  7 24 04 09 02 26 07 27
  18921273.953    -8821317.202 5  -6609014.780 1
  16639253.945   -29636600.491 7 -22580916.604 3
  17484495.180   -21937540.624 6 -15562778.681 2
  17215046.477   -23370665.470 7 -18138737.971 2
  19236197.492   -13481760.256 5 -10325363.517 1
  16107970.180   -38930129.743 7 -30205199.571 5
  19523230.117    -5405455.567 3  -4138907.690 1
 95 12 29  4 14 59.9840000  0  7 24 04 09 02 26 07 27
  18889292.609    -8989382.752 5  -6739974.929 1
  16614888.445   -29764641.829 7 -22680689.070 3
  17459422.883   -22069274.551 6 -15665428.494 2
  17211562.750   -23388980.527 7 -18153009.461 2
  19236721.656   -13478985.305 5 -10323201.209 1
  16104883.617   -38946339.237 7 -30217830.346 5
  19533898.406    -5349362.553 3  -4095198.848 1
 95 12 29  4 15 29.9840000  0  7 24 04 09 02 26 07 27
  18857324.797    -9157355.693 5  -6870862.932 1
  16590613.055   -29892207.324 7 -22780090.745 3
  17434429.086   -22200632.686 6 -15767785.484 2
  17208127.914   -23407040.547 6 -18167082.220 2
  19237288.274   -13476028.016 5 -10320896.847 1
  16101846.445   -38962306.308 7 -30230272.222 5
  19544595.375    -5293168.005 3  -4051410.906 1
 95 12 29  4 15 59.9840000  0  7 24 04 09 02 26 07 27
  18825378.649    -9325249.224 5  -7001689.046 1
  16566427.172   -30019308.269 7 -22879130.431 3
  17409502.125   -22331611.658 6 -15869847.023 2
  17204735.078   -23424863.037 6 -18180969.883 2
  19237884.852   -13472887.471 5 -10318449.688 1
  16098851.961   -38978043.976 7 -30242535.345 5
  19555308.828    -5236864.302 3  -4007537.912 1
 95 12 29  4 16 29.9840000  0  7 24 04 09 02 26 07 27
  18793445.234    -9493069.487 5  -7132458.063 1
  16542325.844   -30145964.429 7 -22977823.528 3
  17384656.367   -22462197.330 6 -15971602.095 2
  17201385.281   -23442472.464 6 -18194691.523 2
  19238510.672   -13469581.457 5 -10315873.583 1
  16095899.188   -38993559.064 7 -30254625.017 5
  19566044.070    -5180447.503 3  -3963576.816 1
 95 12 29  4 16 59.9840000  0  8 24 04 09 02 05 26 07 27
  18761530.281    -9660770.466 5  -7263134.145 1
  16518313.649   -30272151.802 7 -23076151.341 3
  17359885.945   -22592354.914 6 -16073023.593 2
  17198079.156   -23459838.773 6 -18208223.726 2
  20314946.992     -142183.431 3
  19239173.656   -13466098.640 5 -10313159.713 1
  16092996.555   -39008826.223 7 -30266521.503 5
  19576807.531    -5123883.040 3  -3919500.611 1
 95 12 29  4 17 29.9840000  0  8 24 04 09 02 05 26 07 27
  18729644.547    -9828339.945 5  -7393707.733 1
  16494390.992   -30397857.193 7 -23174103.584 3
  17335201.711   -22722080.550 6 -16174108.511 2
  17194822.266   -23476958.134 6 -18221563.497 2
  20287878.547     -284404.842 3
  19239876.242   -13462430.002 5 -10310301.054 1
  16090136.508   -39023848.565 7 -30278227.230 5
  19587598.133    -5067184.602 3  -3875320.045 1
 95 12 29  4 17 59.9840000  0  8 24 04 09 02 05 26 07 27
  18697783.156    -9995766.733 5  -7524170.161 1
  16470562.977   -30523072.368 7 -23271673.841 3
  17310597.688   -22851366.811 6 -16274851.051 2
  17191610.391   -23493829.435 6 -18234709.977 2
  20260804.305     -426659.673 3
  19240606.516   -13458567.166 5 -10307291.062 1
  16087322.414   -39038621.337 7 -30289738.482 5
  19598410.961    -5010367.091 3  -3831046.688 1
 95 12 29  4 18 29.9830000  0  8 24 04 09 02 05 26 07 27
  18665948.644   -10163051.079 5  -7654521.579 1
  16446827.167   -30647812.023 7 -23368873.562 3
  17286075.855   -22980224.031 6 -16375259.277 2
  17188446.292   -23510462.221 6 -18247670.600 2
  20233734.120     -568957.637 3        -0.44911
  19241378.909   -13454533.325 5 -10304147.815 1
  16084560.526   -39053155.346 7 -30301063.682 5
  19609239.933    -4953469.193 4  -3786710.698 1
 95 12 29  4 18 59.9830000  0  8 24 04 09 02 05 26 07 27
  18634144.956   -10330185.967 5  -7784756.543 1
  16423182.933   -30772061.591 7 -23465691.394 3
  17261635.050   -23108672.947 6 -16475349.348 2
  17185330.112   -23526831.858 6 -18260426.177 2
  20206650.691     -711284.392 3   -110904.439 1
  19242184.917   -13450297.566 5 -10300847.228 1
  16081839.276   -39067447.913 7 -30312200.752 5
  19620080.816    -4896496.998 3  -3742316.773 1
 95 12 29  4 19 29.9830000  0  8 24 04 09 02 05 26 07 27
  18602364.566   -10497192.747 5  -7914891.668 1
  16399631.925   -30895818.385 7 -23562125.257 3
  17237267.237   -23236722.809 6 -16575128.460 2
  17182263.128   -23542949.187 6 -18272985.150 2
  20179559.925     -853649.867 3   -221838.559 1
  19243025.495   -13445864.821 5 -10297393.153 1
  16079159.495   -39081512.124 7 -30323159.880 5
  19630930.386    -4839471.762 4  -3697881.576 1
 95 12 29  4 19 59.9830000  0  8 24 04 09 02 05 26 07 27
  18570607.433   -10664074.690 5  -8044929.547 1
  16376173.917   -31019093.899 7 -23658184.088 3
  17212977.198   -23364371.186 6 -16674594.731 2
  17179245.136   -23558801.523 6 -18285337.635 2
  20152456.597     -996057.811 3   -332805.784 1
  19243908.355   -13441253.382 5 -10293799.862 1
  16076528.792   -39095355.232 7 -30333946.717 5
  19641795.808    -4782384.493 4  -3653397.986 1
 95 12 29  4 20 29.9830000  0  8 24 04 09 02 05 26 07 27
  18538877.761   -10830817.679 5  -8174859.129 1
  16352808.784   -31141881.004 7 -23753862.347 3
  17188761.901   -23491620.953 6 -16773750.402 2
  17176284.409   -23574359.990 6 -18297461.134 2
  20125350.487    -1138493.198 3   -443794.410 1
  19244814.651   -13436459.438 5 -10290064.303 1
  16073937.331   -39108978.915 7 -30344562.579 5
  19652671.980    -4725214.995 4
 95 12 29  4 20 59.9830000  0  8 24 04 09 02 05 26 07 27
  18507175.917   -10997427.523 5  -8304684.958 1
  16329536.448   -31264179.567 7 -23849159.921 3
  17164619.776   -23618482.385 6 -16872603.465 2
  17173381.847   -23589627.017 6 -18309357.533 2
  20098238.659    -1280969.690 3   -554815.031 1
  19245762.066   -13431481.530 4 -10286185.452 1
  16071383.776   -39122385.080 7 -30355008.944 5
  19663571.948    -4667956.019 4
 95 12 29  4 21 29.9830000  0  8 24 04 09 02 05 26 07 27
  18475495.081   -11163895.818 5  -8434400.494 1
  16306355.487   -31385994.779 7 -23944080.861 3
  17140558.628   -23744922.502 6 -16971128.234 2
  17170532.448   -23604596.291 6 -18321021.916 2
  20071122.659    -1423485.873 3   -665866.596 1
  19246742.933   -13426335.184 4 -10282175.343 1
  16068876.292   -39135562.307 7 -30365276.915 5
  19674487.120    -4610598.863 4        -0.05011
 95 12 29  4 21 59.9830000  0  8 24 04 09 02 05 26 07 27
  18443848.964   -11330207.284 5  -8563993.826 1
  16283263.362   -31507345.815 7 -24038640.101 3
  17116577.073   -23870952.192 6 -17069333.187 2
  17167739.058   -23619283.191 6 -18332466.268 2
  20043994.003    -1566044.428 2   -776951.142 1
  19247748.995   -13421040.672 4 -10278049.756 1
  16066413.659   -39148516.259 7 -30375370.904 4
  19685415.472    -4553156.271 4     44760.462 1
 95 12 29  4 22 29.9830000  0  8 24 04 09 02 05 26 07 27
  18412227.925   -11496373.581 5  -8693474.023 1
  16260258.972   -31628231.798 7 -24132836.960 3
  17092668.347   -23996591.900 6 -17167234.266 2
  17164991.737   -23633715.022 6 -18343711.865 2
  20016854.276    -1708658.641 2   -888079.094 1
  19248785.581   -13415598.234 4 -10273808.902 1
  16063987.261   -39161255.936 7 -30385297.930 4
  19696358.175    -4495648.089 4     89572.008 1
 95 12 29  4 22 59.9830000  0  8 24 04 09 02 05 26 07 27
  18380637.464   -11662382.658 5  -8822831.727 1
  16237346.987   -31748629.604 7 -24226653.423 3
  17068844.339   -24121802.952 6 -17264801.315 2
  17162294.167   -23647887.027 6 -18354755.007 2
  19989706.526    -1851314.879 2   -999239.793 1
  19249854.136   -13409994.177 4 -10269442.127 1
  16061604.566   -39173773.938 7 -30395052.217 5
  19707318.034    -4438064.275 4    134442.484 1
 95 12 29  4 23 29.9830000  0  8 24 04 09 02 05 26 07 27
  18349074.026   -11828244.886 5  -8952075.003 1
  16214527.862   -31868548.318 7 -24320096.561 3
  17045098.144   -24246586.852 6 -17362035.526 2
  17159642.956   -23661805.443 6 -18365600.543 2
  19962554.589    -1994015.647 1  -1110435.175 1
  19250950.456   -13404247.256 4 -10264964.018 1
  16059261.948   -39186089.020 7 -30404648.386 4
  19718283.058    -4380425.371 3    179355.902 1
 95 12 29  4 23 59.9830000  0  7 24 04 09 02 26 07 27
  18317537.417   -11993974.689 5  -9081215.090 1
  16191800.292   -31987981.963 7 -24413161.720 3
  17021427.862   -24370964.792 6 -17458953.406 2
  17157044.605   -23675477.923 6 -18376254.444 1
  19252068.675   -13398365.920 4 -10260381.179 1
  16056957.636   -39198218.052 7 -30414099.585 4
  19729263.042    -4322738.301 2    224306.800 1
 95 12 29  4 24 29.9830000  0  6 24 04 09 02 26 07
  18286026.886   -12159568.478 5  -9210249.188 1
  16169173.761   -32106895.529 7 -24505821.627 3
  16997843.151   -24494895.388 6 -17555522.704 2
  17154494.417   -23688878.443 6 -18386696.428 2
  19253214.151   -13392328.927 4 -10255677.047 1
  16054686.159   -39210143.765 7 -30423392.346 4
 95 12 29  4 24 59.9830000  0  6 24 04 09 02 26 07
  18254543.964   -12325010.450 5  -9339165.001 1
  16146642.519   -32225285.493 7 -24598073.530 3
  16974350.292   -24618360.943 6 -17651729.635 2
  17151999.308   -23702002.760 6 -18396923.183 2
  19254396.581   -13386151.132 4 -10250863.198 1
  16052455.112   -39221860.241 7 -30432522.072 4
 95 12 29  4 25 29.9830000  0  6 24 04 09 02 26 07
  18223093.441   -12490278.026 5  -9467944.900 1
  16124215.526   -32343135.336 7 -24689904.570 3
  16950944.534   -24741366.504 6 -17747578.128 2
  17149552.769   -23714853.923 6 -18406937.092 1
  19255592.159   -13379838.034 3 -10245943.917 1
  16050268.534   -39233343.635 7 -30441470.170 4
 95 12 29  4 25 59.9830000  0  6 24 04 09 02 26 07
  18191681.081   -12655349.759 5  -9596572.217 1
  16101899.823   -32460429.452 7 -24781302.568 3
  16927623.675   -24863905.525 6 -17843063.081 2
  17147156.097   -23727445.771 6 -18416748.936 2
  19256820.003   -13373382.143 3 -10240913.372 1
  16048130.987   -39244583.011 7 -30450228.124 4
 95 12 29  4 26 29.9830000  0  6 24 04 09 02 26 07
  18160305.628   -12820234.957 5  -9725054.172 1
  16079676.651   -32577197.912 7 -24872290.960 3
  16904390.855   -24986012.411 6 -17938211.306 2
  17144803.448   -23739813.982 6 -18426386.524 2
  19258067.667   -13366807.391 3 -10235790.204 1
  16046034.003   -39255600.200 7 -30458812.951 4
 95 12 29  4 26 59.9830000  0  6 24 04 09 02 26 07
  18128970.284   -12984907.616 5  -9853370.524 1
  16057559.448   -32693434.419 7 -24962864.847 3
  16881231.316   -25107699.615 6 -18033032.508 2
  17142491.698   -23751947.780 6 -18435841.449 2
  19259351.120   -13360102.627 4 -10230565.739 1
  16043983.292   -39266389.585 7 -30467220.258 4
 95 12 29  4 27 29.9830000  0  8 24 04 09 02 05 26 07 27
  18097668.855   -13149393.065 5  -9981540.989 1
  16035533.784   -32809163.862 7 -25053043.622 3
  16858153.136   -25228987.729 6 -18127542.729 2
  17140228.550   -23763847.352 6 -18445113.866 1
  19745080.480          -0.06212
  19260650.026   -13353275.067 4 -10225245.549 1
  16041968.558   -39276978.660 7 -30475471.492 4
  19806442.245          -0.34312
 95 12 29  4 27 59.9830000  0  8 24 04 09 02 05 26 07 27
  18066402.472   -13313697.936 5 -10109570.756 1
  16013606.526   -32924393.561 7 -25142832.989 3
  16835150.120   -25349870.207 6 -18221736.869 2
  17138013.870   -23775486.945 6 -18454183.699 1
  19717868.378     -143000.694 3
  19261974.316   -13346312.276 4 -10219820.015 1
  16039989.792   -39287377.220 7 -30483574.269 4
  19817512.659       58154.783 3        -0.45111
 95 12 29  4 28 29.9830000  0  8 24 04 09 02 05 26 07 27
  18035164.855   -13477850.932 5 -10237482.166 1
  15991777.808   -33039123.420 7 -25232232.864 3
  16812221.120   -25470346.096 6 -18315614.191 2
  17135852.566   -23786855.947 6 -18463042.668 2
  19690645.214     -286073.595 3        -0.31211
  19263317.089   -13339226.793 4 -10214298.871 1
  16038043.425   -39297604.327 7 -30491543.445 4
  19828581.745      116338.009 2     45337.140 1
 95 12 29  4 28 59.9830000  0  8 24 04 09 02 05 26 07 27
  18003955.761   -13641858.311 5 -10365280.114 1
  15970040.230   -33153344.663 7 -25321236.414 3
  16789379.292   -25590387.513 6 -18409152.963 2
  17133743.370   -23797938.809 6 -18471678.692 1
  19663403.417     -429208.050 3   -111533.683 1
  19264692.667   -13332012.385 4 -10208677.269 1
  16036127.058   -39307648.364 7 -30499369.970 4
  19839661.722      174556.486 2     90702.135 1
 95 12 29  4 29 29.9830000  0  8 24 04 09 02 05 26 07 27
  17972770.722   -13805728.397 6 -10492971.082 1
  15948399.151   -33267059.642 7 -25409845.482 3
  16766622.503   -25709979.247 6 -18502341.322 2
  17131684.706   -23808733.386 6 -18480090.063 1
  19636155.995     -572405.948 4   -223116.417 1
  19266093.144   -13324672.015 4 -10202957.514 1
  16034259.011   -39317501.083 7 -30507047.413 4
  19850748.050      232794.303 2    136082.224 1
 95 12 29  4 29 59.9830000  0  8 24 04 09 02 05 26 07 27
  17941618.401   -13969433.213 5 -10620533.268 1
  15926861.839   -33380241.034 7 -25498038.757 3
  16743957.011   -25829094.363 6 -18595158.303 2
  17129687.667   -23819239.884 6 -18488276.964 1
  19608901.573     -715640.738 4   -334727.939 1
  19267516.378   -13317189.468 4 -10197126.950 1
  16032420.112   -39327138.382 7 -30514556.997 4
  19861833.714      291067.368 3    181489.769 1
 95 12 29  4 30 29.9830000  0  8 24 04 09 02 05 26 07 27
  17910503.487   -14132953.979 6 -10747952.043 1
  15905424.886   -33492892.671 7 -25585819.244 3
  16721383.831   -25947718.737 6 -18687592.883 2
  17127741.230   -23829465.802 6 -18496245.229 2
  19581639.394     -858894.067 4   -446353.927 1
  19268965.105   -13309566.669 4 -10191187.116 1
  16030627.566   -39336554.188 7 -30521893.994 4
  19872929.651      349380.916 3    226928.857 1
 95 12 29  4 30 59.9830000  0  8 24 04 09 02 05 26 07 27
  17879425.230   -14296274.532 6 -10875214.798 1
  15884085.183   -33605040.983 7 -25673207.525 3
  16698898.941   -26065870.071 6 -18779658.855 2
  17125851.823   -23839413.342 6 -18503996.587 2
  19554376.651    -1002162.559 4   -557991.703 1
  19270436.651   -13301819.820 4 -10185150.610 1
  16028878.448   -39345751.831 7 -30529060.986 4
  19884032.331      407726.419 3    272392.827 1
 95 12 29  4 31 29.9820000  0  8 24 04 09 02 05 26 07 27
  17848387.029   -14459372.912 6 -11002304.433 1
  15862843.615   -33716667.992 7 -25760189.603 3
  16676506.975   -26183539.355 6 -18871349.209 2
  17124007.490   -23849085.626 6 -18511533.452 1
  19527108.693    -1145439.279 4   -669635.888 1
  19271936.100   -13293954.226 4 -10179021.593 1
  16027168.287   -39354746.943 7 -30536070.164 4
  19895139.873      466095.932 4    317875.569 1
 95 12 29  4 31 59.9820000  0  8 24 04 09 02 05 26 07 27
  17817392.459   -14622249.518 6 -11129221.261 1
  15841701.358   -33827766.842 7 -25846760.128 3
  16654207.256   -26300725.869 6 -18962663.378 2
  17122218.303   -23858490.799 6 -18518862.174 2
  19499841.100    -1288739.853 4   -781298.657 1
  19273453.631   -13285984.559 5 -10172811.482 1
  16025493.178   -39363549.290 7 -30542929.138 4
  19906254.397      524497.268 3
 95 12 29  4 32 29.9820000  0  8 24 04 09 02 05 26 07 27
  17786438.459   -14784927.980 6 -11255983.692 1
  15820659.490   -33938343.938 7 -25932924.087 3
  16631992.600   -26417461.747 6 -19053626.405 2
  17120474.514   -23867647.703 6 -18525997.446 1
  19472561.748    -1432089.032 4   -892999.347 1
  19274981.592   -13277957.172 5 -10166556.384 1
  16023848.123   -39372188.820 7 -30549661.242 4
  19917366.959      582900.005 3
 95 12 29  4 32 59.9820000  0  8 24 04 09 02 05 26 07 27
  17755514.733   -14947415.263 6 -11382597.145 1
  15799722.936   -34048367.945 7 -26018657.069 3
  16609861.811   -26533762.246 6 -19144250.171 2
  17118777.748   -23876557.094 6 -18532939.855 1
  19445274.920    -1575495.743 4  -1004744.810 1
  19276514.147   -13269884.477 5 -10160265.989 1
  16022236.037   -39380660.944 7 -30556262.898 4
  19928480.084      641305.040 3
 95 12 29  4 33 29.9820000  0  8 24 04 09 02 05 26 07 27
  17724633.397   -15109707.658 6 -11509058.736 1
  15778894.108   -34157814.523 7 -26103940.107 3
  16587817.233   -26649609.081 6 -19234520.436 2
  17117130.248   -23885225.829 6 -18539694.733 1
  19417972.779    -1718956.285 4  -1116532.252 1
  19278061.772   -13261756.746 4 -10153932.694 1
  16020657.795   -39388962.500 7 -30562731.646 4
  19939593.264      699709.092 2
 95 12 29  4 33 59.9820000  0  8 24 04 09 02 05 26 07 27
  17693790.662   -15271782.129 6 -11635350.510 1
  15758179.475   -34266672.501 7 -26188764.492 3
  16565859.318   -26764996.269 6 -19324432.529 2
  17115533.959   -23893629.345 6 -18546242.951 1
  19390664.233    -1862447.490 4
  19279621.537   -13253553.242 5 -10147540.373 1
  16019112.178   -39397077.427 7 -30569054.964 4
  19950714.733      758132.869 1
 95 12 29  4 34 29.9820000  0  7 24 04 09 02 05 26 07
  17662988.733   -15433653.027 6 -11761483.666 1
  15737572.654   -34374969.765 7 -26273151.974 3
  16543983.334   -26879952.330 6 -19414008.689 2
  17113984.912   -23901767.727 6
  19363348.592    -2005982.459 4        -0.04411
  19281204.037   -13245269.270 4 -10141085.332 1
  16017599.053   -39405018.268 7
 95 12 29  4 34 59.9820000  0  7 24 04 09 02 05 26 07
  17632225.553   -15595307.099 6 -11887447.859 1
  15717069.350   -34482707.882 7 -26357103.737 3
  16522197.100   -26994449.999 6 -19503227.655 2
  17112489.928   -23909629.155 6
  19336036.733    -2149547.437 3   -111868.842 1
  19282798.029   -13236876.825 4 -10134545.804 1
  16016123.553   -39412787.571 7
 95 12 29  4 35 29.9820000  0  7 24 04 09 02 05 26 07
  17601506.889   -15756733.567 6 -12013234.703 1
  15696672.467   -34589899.082 7 -26440629.336 3
  16500499.858   -27108460.260 6 -19592066.822 2
  17111045.818   -23917209.681 6
  19308709.529    -2293133.633 3   -223754.193 1
  19284414.639   -13228367.342 4 -10127915.044 1
  16014672.006   -39420400.653 7
 95 12 29  4 35 59.9820000  0  7 24 04 09 02 05 26 07
  17570833.975   -15917921.681 6 -12138835.808 1
  15676379.139   -34696537.267 7 -26523724.017 3
  16478901.022   -27221975.736 7 -19680520.439 2
  17109661.404   -23924491.334 6 -18570291.345 1
  19281386.803    -2436731.615 3   -335648.713 1
  19286052.014   -13219736.246 3 -10121189.538 1
  16013257.256   -39427829.296 7 -30593017.473 4
 95 12 29  4 36 29.9820000  0  7 24 04 09 02 05 26 07
  17540204.811   -16078884.260 6 -12264261.178 1
  15656192.740   -34802619.156 7 -26606385.225 3
  16457394.897   -27334979.729 6 -19768575.504 2
  17108331.311   -23931476.706 6 -18575734.522 2
  19254057.193    -2580348.689 2   -447558.102 1
  19287720.990   -13210998.405 3 -10114380.844 1
  16011884.029   -39435063.318 7 -30598654.373 4
 95 12 29  4 36 59.9820000  0  7 24 04 09 02 05 26 07
  17509616.600   -16239628.176 6 -12389516.160 1
  15636112.490   -34908141.198 7 -26688610.184 3
  16435991.092   -27447467.083 6 -19856227.993 2
  17107049.959   -23938194.396 6 -18580969.107 1
  19226722.881    -2723989.772 2   -559486.183 1
  19289397.897   -13202182.830 3 -10107511.593 1
  16010540.279   -39442125.132 7 -30604157.084 4
 95 12 29  4 37 29.9820000  0  7 24 04 09 02 05 26 07
  17479070.279   -16400145.197 6 -12514594.346 1
  15616140.233   -35013102.793 7 -26770398.428 3
  16414683.904   -27559436.426 6 -19943476.830 2
  17105826.506   -23944634.239 6 -18585987.188 1
  19199384.170    -2867655.591 2   -671433.543 1
  19291089.904   -13193295.458 3 -10100586.393 1
  16009236.725   -39448983.249 7 -30609501.076 4
 95 12 29  4 37 59.9820000  0  7 24 04 09 02 05 26 07
  17448566.147   -16560445.346 6 -12639503.536 1
  15596268.123   -35117522.802 7 -26851764.669 3
  16393470.006   -27670915.756 6 -20030343.842 2
  17104652.990   -23950801.643 6 -18590792.970 1
  19172039.443    -3011348.801 2   -783402.255 1
  19292788.787   -13184346.854 3 -10093613.464 1
  16007968.201   -39455638.060 7 -30614686.648 4
 95 12 29  4 38 29.9820000  0  7 24 04 09 02 05 26 07
  17418103.287   -16720528.084 6 -12764243.317 1
  15576500.358   -35221409.484 7 -26932715.320 3
  16372345.842   -27781908.457 7 -20116831.669 2
  17103528.592   -23956701.967 6 -18595390.646 1
  19144692.420    -3155068.131 2   -895391.321 1
  19294503.951   -13175347.602 3 -10086601.089 1
  16006734.803   -39462124.405 7 -30619740.946 4
 95 12 29  4 38 59.9820000  0  7 24 04 09 02 05 26 07
  17387690.576   -16880354.673 6 -12888783.502 1
  15556836.404   -35324742.620 7 -27013234.642 3
  16351320.295   -27892407.064 6 -20202934.477 2
  17102465.498   -23962306.371 6 -18599757.727 1
  19117340.631    -3298779.046 2  -1007373.802 1
  19296232.264   -13166271.040 2 -10079528.472 1
  16005537.162   -39468415.754 7 -30624643.298 4
 95 12 29  4 39 29.9820000  0  7 24 04 09 02 05 26 07
  17357322.686   -17039935.937 6 -13013132.524 1
  15537272.740   -35427540.117 7 -27093336.580 4
  16330383.147   -28002441.714 6 -20288675.768 2
  17101451.248   -23967616.993 6 -18603895.891 1
  19089993.412    -3442492.836 2  -1119358.549 1
  19297974.912   -13157134.004 2 -10072408.719 1
  16004380.826   -39474505.952 7 -30629388.905 4
 95 12 29  4 39 59.9820000  0  7 24 04 09 02 05 26 07
  17327000.318   -17199278.879 6 -13137295.842 1
  15517814.717   -35529803.511 7 -27173022.336 3
  16309527.568   -28112033.954 7 -20374072.320 2
  17100495.373   -23972652.733 6 -18607819.853 1
  19062644.279    -3586224.304 3  -1231357.077 1
  19299713.123   -13147955.930 2 -10065256.991 1
  16003248.561   -39480428.009 7 -30634003.502 4
 95 12 29  4 40 29.9820000  0  7 24 04 09 02 05 26 07
  17296726.037   -17358377.449 6 -13261268.747 1
  15498462.108   -35631505.224 7 -27252270.419 3
  16288757.576   -28221167.406 7 -20459111.376 2
  17099586.740   -23977417.681 6 -18611532.816 1
  19035289.451    -3729978.312 3  -1343373.180 1
  19301470.498   -13138740.922 2 -10058076.503 1
  16002155.967   -39486185.777 7 -30638490.078 4
 95 12 29  4 40 59.9820000  0  7 24 04 09 02 05 26 07
  17266499.201   -17517218.042 6 -13385040.624 1
  15479218.709   -35732626.385 7 -27331066.121 3
  16268079.873   -28329832.222 6 -20543785.264 2
  17098733.811   -23981906.267 6 -18615030.436 1
  19007932.404    -3873751.922 3  -1455404.537 1
  19303236.522   -13129469.296 3 -10050851.864 1
  16001096.053   -39491760.643 7 -30642834.120 4
 95 12 29  4 41 29.9820000  0  7 24 04 09 02 05 26 07
  17236322.279   -17675797.884 6 -13508609.322 1
  15460086.076   -35833166.086 7 -27409408.738 3
  16247494.139   -28438011.437 7 -20628080.753 3
  17097933.318   -23986127.596 6 -18618319.801 1
  18980567.904    -4017559.348 4  -1567462.253 1
  19305010.451   -13120145.880 3 -10043586.890 1
  16000062.959   -39497174.584 7 -30647052.781 4
 95 12 29  4 41 59.9820000  0  7 24 04 09 02 05 26 07
  17206196.154   -17834113.809 6 -13631972.364 1
  15441064.068   -35933133.975 7 -27487305.782 3
  16227005.443   -28545686.191 7 -20711983.158 3
  17097179.006   -23990081.512 6 -18621400.786 1
  18953192.818    -4161401.872 4  -1679547.320 1
  19306795.014   -13110768.984 2 -10036280.210 1
  15999060.373   -39502456.845 7 -30651168.829 4
 95 12 29  4 42 29.9820000  0  7 24 04 09 02 05 26 07
  17176120.170   -17992165.268 6 -13755129.340 1
  15422150.358   -36032526.266 7 -27564754.313 3
  16206614.897   -28652836.773 7 -20795477.127 3
  17096476.193   -23993763.025 6 -18624269.524 1
  18925813.295    -4305267.952 4  -1791650.749 1
  19308590.256   -13101330.458 3 -10028925.574 1
  15998078.115   -39507600.412 7 -30655176.808 4
 95 12 29  4 42 59.9820000  0  7 24 04 09 02 05 26 07
  17146092.068   -18149963.349 6 -13878088.879 1
  15403340.936   -36131371.100 7 -27641776.259 3
  16186320.397   -28759477.509 6 -20878573.804 2
  17095829.787   -23997174.790 6 -18626928.063 1
  18898429.975    -4449174.227 4  -1903785.490 1
  19310392.170   -13091848.987 3 -10021537.427 1
  15997127.451   -39512608.676 7 -30659079.348 4
 95 12 29  4 43 29.9820000  0  7 24 04 09 02 05 26 07
  17116115.295   -18307490.345 6 -14000837.179 1
  15384640.334   -36229643.465 7 -27718352.111 3
  16166131.045   -28865582.431 7 -20961252.966 3
  17095235.272   -24000302.103 6 -18629364.941 1
  18871040.162    -4593097.106 4  -2015933.195 1
  19312210.670   -13082320.526 3 -10014112.646 1
  15996203.115   -39517460.193 7 -30662859.749 4
 95 12 29  4 43 59.9820000  0  7 24 04 09 02 05 26 07
  17086189.193   -18464755.505 6 -14123381.440 1
  15366050.272   -36327337.261 7 -27794477.143 3
  16146039.881   -28971164.025 7 -21043524.340 3
  17094694.139   -24003151.334 6 -18631585.146 1
  18843650.483    -4737034.947 4  -2128092.547 1
  19314026.443   -13072745.272 3 -10006651.403 1
  15995312.451   -39522146.885 7 -30666511.718 4
 95 12 29  4 44 29.9810000  0  7 24 04 09 02 05 26 07
  17056310.110   -18621770.948 6 -14245731.126 1
  15347567.775   -36424452.986 7 -27870151.727 3
  16126044.204   -29076246.263 7 -21125406.605 3
  17094192.939   -24005749.921 6 -18633610.048 1
  18816257.235    -4881013.309 4  -2240283.467 1
  19315855.962   -13063157.665 3  -9999180.565 1
  15994451.017   -39526676.704 7 -30670041.448 4
 95 12 29  4 44 59.9810000  0  7 24 04 09 02 05 26 07
  17026482.360   -18778515.063 6 -14367869.403 1
  15329199.626   -36520976.703 7 -27945365.008 3
  16106144.821   -29180822.918 7 -21206894.911 3
  17093750.892   -24008074.379 6 -18635421.335 1
  18788850.642    -5025027.927 4  -2352502.669 1
  19317684.314   -13053552.989 3  -9991696.410 1
  15993616.720   -39531044.818 7 -30673445.177 4
 95 12 29  4 45 29.9810000  0  7 24 04 09 02 05 26 07
  16996709.696   -18934968.884 6 -14489781.457 1
  15310949.790   -36616887.364 7 -28020100.577 3
  16086343.485   -29284868.221 7 -21287969.180 3
  17093366.853   -24010107.027 6 -18637005.241 1
  18761443.587    -5169053.720 5  -2464730.532 1
  19319518.384   -13043910.741 3  -9984182.976 1
  15992821.165   -39535245.474 7 -30676718.416 4
 95 12 29  4 45 59.9810000  0  7 24 04 09 02 05 26 07
  16966992.001   -19091131.043 6 -14611466.244 1
  15292812.915   -36712192.830 7 -28094364.571 3
  16066645.876   -29388376.667 7 -21368625.117 3
  17093041.673   -24011820.356 6 -18638340.327 2
  18734032.001    -5313089.279 4  -2576966.032 1
  19321358.353   -13034222.790 3  -9976633.941 1
  15992050.712   -39539283.477 7 -30679864.913 4
 95 12 29  4 46 29.9810000  0  7 24 04 09 02 05 26 07
  16937328.892   -19247015.157 6 -14732934.377 1
  15274789.454   -36806901.985 7 -28168163.898 3
  16047053.564   -29491346.326 7 -21448861.217 3
  17092773.493   -24013213.707 6 -18639426.078 1
  18706621.220    -5457140.057 4  -2689213.399 1
  19323208.103   -13024500.236 4  -9969057.906 1
  15991311.970   -39543167.563 7 -30682891.474 4
 95 12 29  4 46 59.9810000  0  7 24 04 09 02 05 26 07
  16907715.970   -19402632.539 6 -14854194.660 1
  15256878.517   -36901031.283 7 -28241511.401 3
  16027556.735   -29593782.134 7 -21528681.339 3
  17092573.282   -24014294.294 6 -18640268.114 2
  18679208.493    -5601200.355 4  -2801468.172 1
  19325069.657   -13014727.695 4  -9961442.956 1
  15990603.720   -39546901.261 7 -30685800.855 4
 95 12 29  4 47 29.9810000  0  7 24 04 09 02 05 26 07
  16878148.603   -19558000.648 6 -14975260.711 1
  15239073.126   -36994594.585 7 -28314417.860 3
  16008166.790   -29695691.762 7 -21608091.440 3
  17092422.751   -24015081.499 6 -18640881.544 2
  18651789.509    -5745272.659 4  -2913732.289 1
  19326944.525   -13004896.705 4  -9953782.398 1
  15989917.478   -39550483.677 7 -30688592.351 4
 95 12 29  4 47 59.9810000  0  7 24 04 09 02 05 26 07
  16848635.884   -19713110.059 6 -15096125.175 1
  15221375.259   -37087595.277 7 -28386885.924 3
  15988870.048   -29797091.686 7 -21687104.378 3
  17092323.032   -24015600.927 6 -18641286.313 1
  18624374.993    -5889350.178 4  -3026000.494 1
  19328820.251   -12995022.154 4  -9946087.954 1
  15989263.853   -39553921.752 7 -30691271.372 4
 95 12 29  4 48 29.9810000  0  7 24 04 09 02 05 26 07
  16819169.165   -19867950.259 6 -15216779.871 1
  15203785.704   -37180038.303 7 -28458919.441 3
  15969667.306   -29898000.817 7 -21765734.874 3
  17092269.110   -24015886.591 6
  18596956.071    -6033431.869 4  -3138271.922 1
  19330710.087   -12985128.503 4  -9938378.598 1
  15988635.900   -39557224.078 7 -30693844.616 3
 95 12 29  4 48 59.9810000  0  7 24 04 09 02 05 26 07
  16789760.556   -20022490.308 6 -15337200.682 1
  15186298.728   -37271922.974 7 -28530517.876 3
  15950560.282   -29998410.023 7 -21843975.819 3
  17092261.814   -24015923.620 6
  18569540.806    -6177506.586 4  -3250537.915 1
  19332589.915   -12975223.909 4  -9930660.749 1
  15988036.650   -39560391.500 7 -30696312.738 3
 95 12 29  4 49 29.9810000  0  7 24 04 09 02 05 26 07
  16760414.509   -20176714.361 6 -15457375.258 1
  15168921.900   -37363238.905 7 -28601673.140 3
  15931552.431   -30098306.328 7 -21921817.106 3
  17092303.821   -24015702.346 6
  18542126.228    -6321562.123 4  -3362788.986 1
  19334473.446   -12965329.619 4  -9922950.881 1
  15987458.525   -39563417.382 7 -30698670.564 3
 95 12 29  4 49 59.9810000  0  7 24 04 09 02 05 26 07
  16731124.939   -20330628.079 6 -15577308.019 1
  15151655.032   -37453990.588 7 -28672388.731 3
  15912635.454   -30197707.418 7 -21999272.505 3
  17092394.235   -24015233.046 6 -18640999.738 1
  18514711.376    -6465620.615 4  -3475042.346 1
  19336345.743   -12955480.101 4  -9915275.922 1
  15986907.564   -39566314.200 7 -30700927.820 3
 95 12 29  4 50 29.9810000  0  7 24 04 09 02 05 26 07
  16701897.954   -20484217.865 6 -15696988.359 1
  15134496.900   -37544144.580 7 -28742638.591 3
  15893820.978   -30296580.974 7 -22076316.845 3
  17092538.173   -24014470.691 6 -18640405.728 1
  18487299.454    -6609674.604 4  -3587292.178 1
  19338214.501   -12945655.655 4  -9907620.534 1
  15986387.150   -39569058.507 7 -30703066.238 3
 95 12 29  4 50 59.9810000  0  7 24 04 09 02 05 26 07
  16672729.759   -20637495.931 6 -15816425.806 1
  15117456.634   -37633694.145 7 -28812417.464 3
  15875109.157   -30394920.249 7 -22152944.856 3
  17092737.907   -24013412.460 6 -18639581.157 1
  18459884.415    -6753734.316 4  -3699546.487 1
  19340078.251   -12935853.221 3  -9899982.243 1
  15985891.962   -39571644.314 7 -30705081.152 3
 95 12 29  4 51 29.9810000  0  7 24 04 09 02 05 26 07
  16643619.329   -20790462.440 6 -15935620.479 1
  15100534.978   -37722625.002 7 -28881714.235 3
  15856496.228   -30492724.877 7 -22229156.256 3
  17092991.970   -24012070.572 6 -18638535.571 1
  18432472.329    -6897794.917 4  -3811801.504 1
  19341946.728   -12926059.311 3  -9892350.632 1
  15985436.993   -39574056.317 7 -30706960.635 3
 95 12 29  4 51 59.9810000  0  7 24 04 09 02 05 26 07
  16614569.829   -20943132.604 6 -16054584.235 2
  15083729.556   -37810937.918 7 -28950529.487 3
  15837983.017   -30590011.586 7 -22304964.091 3
  17093303.821   -24010449.074 6 -18637272.095 1
  18405052.790    -7041883.295 4  -3924078.138 1
  19343808.900   -12916284.851 3  -9884734.148 1
  15985005.782   -39576317.952 7 -30708722.944 3
 95 12 29  4 52 29.9810000  0  7 24 04 09 02 05 26 07
  16585572.423   -21095506.527 6 -16173317.160 2
  15067041.181   -37898633.877 7 -29018863.987 3
  15819571.532   -30686756.094 7 -22380349.426 3
  17093667.962   -24008528.968 6 -18635775.930 1
  18377633.048    -7185978.535 4  -4036360.128 1
  19345664.079   -12906513.231 3  -9877119.953 1
  15984602.267   -39578422.689 7 -30710363.003 3
 95 12 29  4 52 59.9810000  0  7 24 04 09 02 05 26 07
  16556641.837   -21247564.570 6 -16291803.938 2
  15050468.767   -37985720.842 7 -29086723.957 4
  15801270.228   -30782938.116 7 -22455296.461 3
  17094090.939   -24006309.996 6 -18634046.878 1
  18350212.728    -7330060.917 4  -4148632.086 1
  19347523.228   -12896730.295 3  -9869496.856 1
  15984232.470   -39580360.212 7 -30711872.752 3
 95 12 29  4 53 29.9810000  0  7 24 04 09 02 05 26 07
  16527757.751   -21399325.239 6 -16410058.998 2
  15034007.525   -38072223.016 7 -29154128.242 3
  15783071.860   -30878577.882 7 -22529820.961 3
  17094567.923   -24003800.597 6 -18632091.524 1
  18322798.360    -7474151.645 4  -4260910.570 1
  19349388.400   -12886954.423 2  -9861879.297 1
  15983893.735   -39582166.015 7 -30713279.873 3
 95 12 29  4 53 59.9810000  0  7 24 04 09 02 05 26 07
  16498936.235   -21550784.538 6 -16528079.225 1
  15017655.564   -38158148.787 7 -29221083.380 3
  15764978.423   -30973667.656 7 -22603916.897 3
  17095102.876   -24000987.917 6 -18629899.849 1
  18295378.798    -7618248.882 5  -4373194.111 1
  19351241.103   -12877184.351 2  -9854266.268 1
  15983569.540   -39583853.833 7 -30714595.053 3
 95 12 29  4 54 29.9810000  0  7 24 04 09 02 05 26 07
  16470174.556   -21701929.991 6 -16645854.899 2
  15001410.681   -38243512.129 7 -29287600.261 4
  15746987.642   -31068205.208 7 -22677582.534 3
  17095690.353   -23997891.779 6 -18627487.298 1
  18267953.517    -7762348.242 5  -4485479.304 1
  19353105.626   -12867418.589 2  -9846656.615 1
  15983271.728   -39585420.707 7 -30715815.995 3
 95 12 29  4 54 59.9810000  0  6 24 04 09 02 05 07
  16441472.970   -21852754.384 6 -16763380.394 2
  14985275.868   -38328299.497 7 -29353668.334 3
  15729098.650   -31162214.408 7 -22750836.457 3
  17096332.251   -23994533.707 6 -18624870.643 1
  18240530.478    -7906466.558 4  -4597779.294 1
  15982994.610   -39586873.725 7 -30716948.214 3
 95 12 29  4 55 29.9810000  0  6 24 04 09 02 05 07
  16412836.353   -22003238.771 6 -16880640.951 2
  14969259.001   -38412475.309 7 -29419259.870 4
  15711313.275   -31255675.809 7 -22823663.533 3
  17097029.392   -23990887.551 6 -18622029.505 1
  18213103.509    -8050586.025 5  -4710080.165 1
  15982744.228   -39588191.433 7 -30717975.003 3
 95 12 29  4 55 59.9810000  0  6 24 04 09 02 05 07
  16384264.556   -22153388.504 6 -16997640.747 2
  14953355.400   -38496052.584 7 -29484385.011 4
  15693629.329   -31348593.021 6 -22896066.558 3
  17097770.571   -23986972.627 6 -18618978.940 1
  18185676.946    -8194715.168 5  -4822388.570 1
  15982519.275   -39589383.837 7 -30718904.142 3
 95 12 29  4 56 29.9810000  0  6 24 04 09 02 05 07
  16355754.657   -22303213.572 6 -17114387.531 2
  14937567.650   -38579020.446 7 -29549035.284 4
  15676049.267   -31440976.344 7 -22968053.565 3
  17098561.439   -23982797.963 6 -18615725.977 1
  18158245.650    -8338863.976 5  -4934712.315 1
  15982317.017   -39590448.441 7 -30719733.706 3
 95 12 29  4 56 59.9810000  0  6 24 04 09 02 05 07
  16327304.829   -22452712.880 6 -17230880.489 2
  14921897.673   -38661370.438 7 -29613204.102 3
  15658574.071   -31532807.716 7 -23039610.487 3
  17099416.243   -23978328.814 6 -18612243.551 1
  18130815.134    -8483011.734 5  -5047035.236 1
  15982135.900   -39591393.668 7 -30720470.250 3
 95 12 29  4 57 29.9800000  0  6 24 04 09 02 05 07
  16298921.590   -22601870.038 6 -17347106.839 2
  14906341.356   -38743118.096 7 -29676903.569 4
  15641207.715   -31624069.023 7 -23110723.190 3
  17100327.324   -23973547.157 6 -18608517.606 1
  18103389.035    -8627135.394 5  -5159339.377 1
  15981974.871   -39592229.062 7 -30721121.209 3
 95 12 29  4 57 59.9800000  0  6 24 04 09 02 05 07
  16270601.777   -22750695.075 6 -17463074.388 2
  14890896.699   -38824272.100 7 -29740140.456 4
  15623947.895   -31714787.799 7 -23181413.156 3
  17101290.371   -23968466.452 6 -18604558.635 1
  18075968.418    -8771244.837 5  -5271632.438 1
  15981835.457   -39592963.870 7 -30721693.786 3
 95 12 29  4 58 29.9800000  0  7 24 04 09 02 05 26 07
  16242346.067   -22899177.633 6 -17578775.071 2
  14875568.387   -38904820.427 7 -29802905.375 4
  15606788.067   -31804957.150 7 -23251674.987 3
  17102316.332   -23963084.402 6 -18600364.843 1
  18048550.340    -8915322.626 5  -5383900.831 1
  19367753.277          -0.24312
  15981718.863   -39593591.475 7 -30722182.829 3
 95 12 29  4 58 59.9800000  0  7 24 04 09 02 05 26 07
  16214156.840   -23047310.309 6 -17694203.121 2
  14860353.785   -38984781.822 7 -29865212.952 4
  15589731.942   -31894573.743 7 -23321506.111 3
  17103395.246   -23957406.984 6 -18595940.909 1
  18021140.707    -9059367.190 5  -5496143.341 1
  19369558.442        9478.858 2
  15981623.692   -39594119.033 7 -30722593.911 4
 95 12 29  4 59 29.9800000  0  7 24 04 09 02 05 26 07
  16186037.184   -23195079.396 6 -17809347.853 2
  14845253.426   -39064139.838 7 -29927050.362 4
  15572785.535   -31983627.216 7 -23390898.432 3
  17104533.035   -23951443.533 6 -18591294.098 1
  17993733.652    -9203384.076 5  -5608364.274 1
  19371353.363       18934.441 2        -0.02711
  15981543.317   -39594513.364 7 -30722901.189 3
 95 12 29  4 59 59.9800000  0  7 24 04 09 02 05 26 07
  16157983.309   -23342515.026 6 -17924232.761 2
  14830264.715   -39142894.271 7 -29988417.445 4
  15555948.301   -32072130.449 7 -23459861.994 3
  17105717.637   -23945221.482 6 -18586445.782 1
  17966325.543    -9347409.516 5  -5720591.870 1
  19373150.692       28336.367 3      7326.142 1
  15981487.934   -39594783.307 7
 95 12 29  5  0 29.9800000  0  7 24 04 09 02 05 26 07
  16129988.543   -23489616.816 6 -18038857.525 2
  14815393.113   -39221046.854 7 -30049315.554 4
  15539211.246   -32160062.884 7 -23528380.783 3
  17106949.621   -23938730.958 5 -18581388.264 1
  17938912.590    -9491444.157 5  -5832826.650 1
  19374927.684       37684.476 3     14610.368 1
  15981462.551   -39594931.169 7
 95 12 29  5  0 59.9800000  0  7 24 04 09 02 05 26 07
  16102063.512   -23636364.216 6 -18153206.143 2
  14800638.238   -39298591.332 7 -30109739.816 4
  15522588.020   -32247424.459 7 -23596454.746 3
  17108238.488   -23931960.287 5 -18576112.449 1
  17911509.559    -9635487.377 5  -5945068.102 1
  19376695.871       46981.681 3     21854.931 1
  15981457.020   -39594944.400 7
 95 12 29  5  1 29.9800000  0  7 24 04 09 02 05 26 07
  16074206.723   -23782762.786 6 -18267282.944 2
  14785997.965   -39375519.846 7 -30169684.107 4
  15506069.332   -32334228.610 6 -23664094.349 3
  17109580.590   -23924918.256 5 -18570625.187 1
  17884097.902    -9779538.934 5  -6057316.057 1
  19378457.027       56232.433 3     29063.335 1
  15981481.371   -39594824.983 7
 95 12 29  5  1 59.9800000  0  7 24 04 09 02 05 26 07
  16046417.160   -23928795.696 6 -18381074.805 2
  14771480.145   -39451822.812 7 -30229140.958 4
  15489653.754   -32420482.587 6 -23731305.244 3
  17110966.418   -23917607.599 5 -18564928.606 1
  17856686.418    -9923579.503 5  -6169555.444 1
  19380211.199       65441.895 4     36239.517 1
  15981525.731   -39594577.385 7
 95 12 29  5  2 29.9800000  0  7 24 04 09 02 05 26 07
  16018694.137   -24074467.241 6 -18494585.088 2
  14757068.676   -39527537.398 7 -30288139.330 4
  15473344.348   -32506211.655 6 -23798107.124 3
  17112405.426   -23910054.498 5 -18559043.108 1
  17829278.926   -10067610.980 5  -6281787.763 1
  19381949.598       74585.431 4     43364.348 1
  15981596.660   -39594221.452 7 -30722673.736 3
 95 12 29  5  2 59.9800000  0  7 24 04 09 02 05 26 07
  15991049.387   -24219747.793 6 -18607790.702 2
  14742778.926   -39602644.271 7 -30346664.157 4
  15457131.152   -32591399.711 7 -23864487.437 3
  17113894.035   -23902242.962 5 -18552956.224 1
  17801878.184   -10211609.665 5  -6393994.516 1
  19383676.535       83672.521 4     50445.206 1
  15981692.629   -39593731.285 7 -30722291.791 3
 95 12 29  5  3 29.9800000  0  7 24 04 09 02 05 26 07
  15963473.692   -24364663.236 6 -18720711.816 2
  14728598.129   -39677156.786 7 -30404725.853 4
  15441025.277   -32676046.539 7 -23930446.007 3
  17115429.106   -23894190.758 5 -18546681.816 1
  17774476.567   -10355583.670 5  -6506182.032 1
  19385393.598       92680.316 4     57464.250 1
  15981808.402   -39593125.917 7 -30721820.082 3
 95 12 29  5  3 59.9800000  0  7 24 04 09 02 05 26 07
  15935966.223   -24509216.873 6 -18833351.003 2
  14714529.449   -39751089.401 7 -30462335.676 4
  15425022.543   -32760141.745 7 -23995974.742 3
  17117005.770   -23885894.118 5 -18540216.928 1
  17747084.356   -10499541.683 5  -6618357.090 1
  19387084.277      101576.647 4
  15981941.277   -39592414.612 7 -30721265.816 3
 95 12 29  5  4 29.9800000  0  7 24 04 09 02 05 26 07
  15908528.668   -24653399.030 6
  14700573.129   -39824433.112 7 -30519486.610 4
  15409128.457   -32843658.625 7 -24061052.841 3
  17118639.090   -23877310.302 5
  17719696.895   -10643470.142 5
  19388757.848      110378.018 3
  15982102.598   -39591577.927 7 -30720613.855 3
 95 12 29  5  4 59.9800000  0  7 24 04 09 02 05 26 07
  15881159.340   -24797223.589 6 -19057771.791 2
  14686727.598   -39897180.262 7 -30576172.695 4
  15393344.488   -32926604.566 7 -24125686.045 3
  17120327.598   -23868435.523 5 -18526612.894 1
  17692306.512   -10787387.389 5  -6842652.413 1
  19390418.863      119098.498 4
  15982281.043   -39590631.377 7 -30719876.286 3
 95 12 29  5  5 29.9800000  0  7 24 04 09 02 05 26 07
  15853856.090   -24940709.355 6 -19169578.870 2
  14673000.012   -39969339.094 7 -30632400.354 4
  15377667.762   -33008983.965 7 -24189877.794 3
  17122070.590   -23859273.474 5 -18519473.670 1
  17664923.488   -10931304.556 5  -6954795.631 1
  19392066.418      127740.704 5
  15982477.738   -39589593.937 7 -30719067.892 3
 95 12 29  5  5 59.9800000  0  7 24 04 09 02 05 26 07
  15826619.934   -25083835.610 6 -19281105.812 2
  14659379.598   -40040904.152 7 -30688165.327 4
  15362098.160   -33090799.014 7 -24253629.784 3
  17123871.793   -23849813.738 5 -18512102.486 1
  17637533.488   -11075221.703 5  -7066938.855 1
  19393696.957      136317.607 4
  15982692.770   -39588467.473 7 -30718190.140 3
 95 12 29  5  6 29.9800000  0  7 24 04 09 02 05 26 07
  15799454.692   -25226586.313 6 -19392340.114 2
  14645878.676   -40111845.715 7 -30743444.463 4
  15346641.043   -33172039.416 7 -24316933.998 3
  17125733.145   -23840038.531 5 -18504485.469 1
  17610150.465   -11219121.472 5  -7179068.528 1
  19395321.160      144863.380 4
  15982923.832   -39587241.276 7 -30717234.655 3
 95 12 29  5  6 59.9800000  0  7 24 04 09 02 05 26 07
  15772360.262   -25368972.138 6 -19503290.095 2
  14632497.785   -40182171.186 7 -30798243.524 4
  15331287.395   -33252716.796 7 -24379799.494 3
  17127646.277   -23829972.173 5 -18496641.593 1
  17582769.504   -11363017.180 5  -7291195.034 1
  19396936.856      153352.317 3
  15983173.160   -39585941.224 7 -30716221.636 3
 95 12 29  5  7 29.9800000  0  7 24 04 09 02 05 26 07
  15745339.481   -25510963.114 6 -19613932.403 2
  14619236.410   -40251865.539 7 -30852550.808 4
  15316043.762   -33332810.121 7 -24442209.880 3
  17129621.957   -23819601.058 5 -18488560.245 1
  17555392.356   -11506877.477 5  -7403293.954 1
  19398544.184      161768.017 4
  15983436.324   -39584543.354 7 -30715132.393 3
 95 12 29  5  7 59.9800000  0  7 24 04 09 02 05 26 07
  15718393.293   -25652568.201 6 -19724274.015 2
  14606088.348   -40320948.019 7 -30906381.308 4
  15300911.340   -33412339.971 7 -24504181.197 3
  17131648.988   -23808949.766 5 -18480260.575 1
  17528026.801   -11650704.878 5  -7515367.240 1
  19400119.207      170080.113 3
  15983721.512   -39583055.366 7 -30713972.924 3
 95 12 29  5  8 29.9800000  0  7 24 04 09 02 05 26 07
  15691515.176   -25793807.917 6 -19834330.916 2
  14593057.692   -40389424.763 7 -30959739.802 4
  15285886.574   -33491305.993 7 -24565713.170 3
  17133725.348   -23798023.295 5 -18471746.476 1
  17500665.895   -11794488.087 5  -7627406.098 1
  19401681.262      178271.601 3
  15984022.660   -39581471.228 7 -30712738.535 3
 95 12 29  5  8 59.9800000  0  6 24 04 09 02 05 07
  15664709.848   -25934674.539 6 -19944097.103 2
  14580143.207   -40457292.630 7 -31012623.850 4
  15270967.934   -33569707.194 7 -24626805.015 3
  17135857.199   -23786826.037 5 -18463021.381 1
  17473313.238   -11938218.308 5  -7739403.662 1
  15984345.387   -39579776.098 7 -30711417.658 3
 95 12 29  5  9 29.9800000  0  6 24 04 09 02 05 07
  15637974.512   -26075167.921 6 -20053572.448 2
  14567342.699   -40524565.030 7 -31065043.889 4
  15256153.145   -33647545.673 7 -24687458.387 3
  17138035.996   -23775367.602 5 -18454092.763 1
  17445971.785   -12081895.758 5  -7851360.113 1
  15984692.402   -39577968.240 7 -30710008.945 3
 95 12 29  5  9 59.9800000  0  6 24 04 09 02 05 07
  15611309.621   -26215295.963 6 -20162763.115 2
  14554653.699   -40591248.470 7 -31117005.014 4
  15241449.238   -33724822.751 7 -24747674.296 3
  17140266.613   -23763653.844 5 -18444965.175 1
  17418637.832   -12225530.247 5  -7963283.097 1
  15985051.129   -39576055.663 7 -30708518.632 3
 95 12 29  5 10 29.9790000  0  6 24 04 09 02 05 07
  15584717.741   -26355036.828 6 -20271652.084 2
  14542079.726   -40657327.134 7 -31168494.875 4
  15226849.944   -33801532.650 7 -24807448.248 3
  17142544.804   -23751678.168 5 -18435633.506 1
  17391312.546   -12369131.106 5  -8075179.868 1
  15985435.968   -39574050.419 7 -30706956.111 2
 95 12 29  5 10 59.9790000  0  6 24 04 09 02 05 07
  15558204.827   -26494367.195 6 -20380221.184 2
  14529620.210   -40722799.819 7 -31219512.546 4
  15212359.398   -33877672.998 7 -24866778.394 3
  17144878.999   -23739427.891 5 -18426087.880 1
  17363990.851   -12512707.935 5  -8187057.919 1
  15985837.359   -39571953.753 7 -30705322.354 2
 95 12 29  5 11 29.9790000  0  6 24 04 09 02 05 07
  15531769.491   -26633287.886 6 -20488471.068 2
  14517271.085   -40787697.458 7 -31270082.131 4
  15197978.390   -33953250.222 7 -24925669.744 3
  17147256.960   -23726919.522 5 -18416341.130 1
  17336670.616   -12656271.133 5  -8298925.339 1
  15986248.468   -39569791.610 7 -30703637.572 2
 95 12 29  5 11 59.9790000  0  6 24 04 09 02 05 07
  15505416.999   -26771772.591 6 -20596381.212 2
  14505039.109   -40851975.663 7 -31320169.036 4
  15183707.155   -34028244.956 7 -24984107.205 3
  17149691.999   -23714121.681 5 -18406368.819 1
  17309358.390   -12799796.646 5  -8410763.399 1
  15986677.273   -39567537.372 7 -30701881.018 2
 95 12 29  5 12 29.9790000  0  6 24 04 09 02 05 07
  15479150.171   -26909796.899 6 -20703932.610 2
  14492930.491   -40915607.796 7 -31369752.510 4
  15169550.226   -34102642.917 7 -25042079.647 3
  17152185.866   -23701001.065 5 -18396144.996 1
  17282059.148   -12943260.534 5  -8522553.443 1
  15987127.460   -39565162.823 7 -30700030.717 2
 95 12 29  5 12 59.9790000  0  6 24 04 09 02 05 07
  15452964.468   -27047404.523 6 -20811159.317 3
  14480936.273   -40978631.273 7 -31418861.709 4
  15155501.507   -34176470.706 7 -25099607.800 3
  17154743.116   -23687591.873 5 -18385696.317 1
  17254765.710   -13086683.046 5  -8634311.236 1
  15987600.468   -39562674.406 7 -30698091.692 2
 95 12 29  5 13 29.9790000  0  6 24 04 09 02 05 07
  15426853.398   -27184609.724 6 -20918072.447 3
  14469063.749   -41041035.131 7 -31467488.084 4
  15141560.234   -34249728.609 7 -25156691.887 3
  17157345.030   -23673895.314 5 -18375023.699 1
  17227482.093   -13230064.517 5  -8746037.058 1
  15988095.702   -39560070.792 6 -30696062.904 2
 95 12 29  5 13 59.9790000  0  6 24 04 09 02 05 07
  15400818.069   -27321438.768 6 -21024692.469 3
  14457303.546   -41102826.785 7 -31515637.412 4
  15127724.835   -34322435.024 7 -25213346.243 3
  17160003.421   -23659926.860 5 -18364139.220 1
  17200202.030   -13373426.962 5  -8857748.042 1
  15988609.280   -39557365.009 7 -30693954.498 2
 95 12 29  5 14 29.9790000  0  6 24 04 09 02 05 07
  15374850.374   -27457898.901 6 -21131025.030 3
  14445656.468   -41164030.751 7 -31563328.819 4
  15113994.319   -34394592.713 7 -25269573.021 3
  17162713.444   -23645699.253 5 -18353052.799 1
  17172922.273   -13516778.238 5  -8969450.334 1
  15989142.218   -39554571.205 7 -30691777.506 2
 95 12 29  5 14 59.9790000  0  6 24 04 09 02 05 07
  15348955.851   -27593975.421 6 -21237058.683 3
  14434123.187   -41224640.260 7 -31610557.001 4
  15100375.069   -34466166.682 7 -25325344.949 3
  17165474.757   -23631207.865 5 -18341760.829 1
  17145650.109   -13660099.655 5  -9081129.344 1
  15989689.171   -39551692.785 6 -30689534.587 2
 95 12 29  5 15 29.9790000  0  6 24 04 09 02 05 07
  15323134.390   -27729667.242 6 -21342792.557 3
  14422699.460   -41284660.324 7 -31657325.876 4
  15086867.726   -34537157.948 7 -25380662.821 3
  17168277.913   -23616456.924 5 -18330266.604 1
  17118379.155   -13803394.453 5  -9192787.620 1
  15990251.249   -39548754.876 7 -30687245.313 2
 95 12 29  5 15 59.9790000  0  6 24 04 09 02 05 07
  15297387.648   -27864965.250 6 -21448219.570 3
  14411389.609   -41344098.744 7 -31703641.522 4
  15073470.374   -34607565.104 7 -25435525.548 3
  17171131.898   -23601457.426 5 -18318578.711 1
  17091118.351   -13946654.128 5  -9304418.532 1
  15990822.351   -39545758.244 6 -30684910.276 2
 95 12 29  5 16 29.9790000  0  6 24 04 09 02 05 07
  15271715.671   -27999870.572 6 -21553340.585 3
  14400188.569   -41402958.275 7 -31749506.090 4
  15060181.288   -34677390.691 7 -25489935.105 3
  17174029.015   -23586226.815 5 -18306710.728 1
  17063865.202   -14089883.140 5  -9416025.543 1
  15991398.327   -39542715.097 6 -30682538.990 2
 95 12 29  5 16 59.9790000  0  6 24 04 09 02 05 07
  15246126.616   -28134346.105 6 -21658126.713 3
  14389105.366   -41461208.515 7 -31794895.880 4
  15047009.101   -34746604.996 7 -25543868.337 3
  17176976.546   -23570740.330 5 -18294643.356 1
  17036617.843   -14233053.118 5  -9527586.549 1
  15991993.343   -39539588.804 6 -30680102.925 2
 95 12 29  5 17 29.9790000  0  6 24 04 09 02 05 07
  15220616.749   -28268402.319 6 -21762586.085 3
  14378133.382   -41518864.673 7 -31839822.752 4
  15033944.569   -34815251.125 7 -25597358.832 3
  17179966.085   -23555020.660 5 -18282394.288 1
  17009379.288   -14376186.722 5  -9639119.207 1
  15992607.280   -39536382.194 6 -30677604.265 2
 95 12 29  5 17 59.9790000  0  6 24 04 09 02 05 07
  15195187.991   -28402035.584 6 -21866715.893 3
  14367273.577   -41575934.034 7 -31884292.376 4
  15020986.788   -34883345.028 7 -25650419.021 3
  17183003.569   -23539075.375 5 -18269969.426 1
  16982149.382   -14519291.720 5  -9750629.580 1
  15993228.663   -39533099.641 6 -30675046.431 2
 95 12 29  5 18 29.9790000  0  6 24 04 09 02 05 07
  15169838.984   -28535236.108 6 -21970508.508 3
  14356527.241   -41632409.592 7 -31928299.306 4
  15008137.312   -34950878.773 7 -25703042.723 3
  17186082.398   -23522883.846 5 -18257352.658 1
  16954923.796   -14662368.532 5  -9862117.996 1
  15993868.273   -39529737.238 6 -30672426.381 2
 95 12 29  5 18 59.9790000  0  6 24 04 09 02 05 07
  15144576.851   -28667986.987 6 -22073950.750 3
  14345891.749   -41688286.127 7 -31971839.453 4
  14995394.210   -35017856.544 7 -25755233.205 3
  17189218.077   -23506412.479 5 -18244517.853 1
  16927704.788   -14805400.824 5  -9973571.719 1
  15994525.194   -39526287.926 6 -30669738.601 2
 95 12 29  5 19 29.9790000  0  6 24 04 09 02 05 07
  15119403.093   -28800281.148 6 -22177037.094 3
  14335374.163   -41743558.714 7 -32014908.994 4
  14982749.640   -35084289.553 7 -25806999.190 3
  17192409.866   -23489653.640 5 -18231459.031 1
  16900496.741   -14948385.719 5 -10084988.516 1
  15995195.468   -39522759.633 6 -30666989.295 2
 95 12 29  5 19 59.9790000  0  6 24 04 09 02 05 07
  15094313.124   -28932128.989 6 -22279775.665 3
  14324972.530   -41798231.551 7 -32057511.202 4
  14970209.741   -35150177.182 7 -25858340.204 3
  17195651.726   -23472607.232 5 -18218176.147 1
  16873296.694   -15091327.046 5 -10196371.375 1
  15995881.405   -39519165.960 6 -30664189.035 2
 95 12 29  5 20 29.9790000  0  6 24 04 09 02 05 07
  15069305.280   -29063544.101 6 -22382177.046 3
  14314678.116   -41852320.122 7 -32099658.133 4
  14957776.335   -35215527.062 7 -25909262.196 3
  17198946.601   -23455286.919 5 -18204679.824 1
  16846100.398   -15234231.223 5 -10307725.271 1
  15996574.163   -39515519.629 6 -30661347.746 2
 95 12 29  5 20 59.9790000  0  6 24 04 09 02 05 07
  15044385.202   -29194500.729 6 -22484221.159 3
  14304500.109   -41905795.973 7 -32141327.626 4
  14945451.265   -35280309.356 7 -25959741.915 3
  17202296.046   -23437673.649 5 -18190955.234 1
  16818923.148   -15377057.675 6 -10419018.605 1
  15997283.671   -39511788.234 6 -30658440.163 2
 95 12 29  5 21 29.9790000  0  6 24 04 09 02 05 07
  15019544.749   -29325034.733 6 -22585935.964 3
  14294440.234   -41958677.689 7 -32182534.152 4
  14933228.890   -35344523.999 7 -26009779.304 3
  17205701.179   -23419799.338 5 -18177027.237 1
  16791756.530   -15519822.114 6 -10530263.629 1
  15998007.702   -39507984.668 6 -30655476.348 2
 95 12 29  5 21 59.9790000  0  6 24 04 09 02 05 07
  14994782.859   -29455161.135 6 -22687333.157 3
  14284488.077   -42010968.855 7 -32223280.504 4
  14921126.694   -35408139.385 7 -26059349.745 3
  17209151.788   -23401660.926 5 -18162893.422 1
  16764603.210   -15662514.819 6 -10641452.748 1
  15998742.648   -39504107.659 6 -30652455.304 2
 95 12 29  5 22 29.9790000  0  6 24 04 09 02 05 07
  14970099.859   -29584878.696 6 -22788411.773 3
  14274648.546   -42062673.562 7 -32263569.884 4
  14909137.101   -35471137.546 7 -26108439.225 3
  17212653.155   -23383259.268 5 -18148554.503 1
  16737463.280   -15805124.667 6 -10752577.312 1
  15999500.773   -39500149.247 6 -30649370.832 2
 95 12 29  5 22 59.9790000  0  6 24 04 09 02 05 07
  14945488.226   -29714201.143 6 -22889182.509 3
  14264921.944   -42113794.839 7 -32303404.645 4
  14897263.546   -35533519.207 7 -26157048.316 3
  17216203.898   -23364593.691 5 -18134009.915 1
  16710340.632   -15947663.299 6 -10863646.376 1
  16000267.859   -39496110.010 6 -30646223.379 2
 95 12 29  5 23 29.9790000  0  6 24 04 09 02 05 07
  14920957.077   -29843117.882 6 -22989637.100 3
  14255303.359   -42164336.572 7 -32342787.805 4
  14885511.913   -35595283.335 7 -26205176.216 3
  17219806.109   -23345664.673 5 -18119260.057 1
  16683229.359   -16090137.637 6 -10974665.341 1
  16001048.327   -39491998.746 6 -30643019.803 2
 95 12 29  5 23 59.9780000  0  6 24 04 09 02 05 07
  14896505.572   -29971611.704 6 -23089762.144 3
  14245792.369   -42214318.475 7 -32381734.738 4
  14873873.401   -35656453.492 7 -26252841.271 3
  17223456.643   -23326491.511 5 -18104319.965 1
  16656126.377   -16232565.358 6 -11085647.976 1
  16001843.697   -39487832.948 6 -30639773.724 2
 95 12 29  5 24 29.9780000  0  6 24 04 09 02 05 07
  14872140.096   -30099656.770 6 -23189537.506 3
  14236387.471   -42263736.520 7 -32420242.302 4
  14862338.182   -35717056.271 7 -26300064.219 3
  17227151.276   -23307083.907 5 -18089197.178 1
  16629031.213   -16374953.673 6 -11196599.914 1
  16002645.182   -39483615.981 6 -30636487.788 2
 95 12 29  5 24 59.9780000  0  6 24 04 09 02 05 07
  14847865.486   -30227219.115 7 -23288936.733 3
  14227096.197   -42312573.247 7 -32458296.896 4
  14850913.697   -35777089.055 7 -26346843.015 3
  17230887.619   -23287430.632 5 -18073882.984 1
  16601943.651   -16517291.905 6 -11307512.819 1
  16003459.854   -39479343.025 6 -30633158.206 2
 95 12 29  5 25 29.9780000  0  6 24 04 09 02 05 07
  14823686.049   -30354287.171 6 -23387950.799 3
  14217910.908   -42360837.247 7 -32495905.204 4
  14839598.815   -35836566.087 7 -26393188.760 3
  17234675.166   -23267541.065 5 -18058384.623 1
  16574866.854   -16659579.477 6 -11418386.255 1
  16004277.455   -39475024.183 6 -30629792.888 2
 95 12 29  5 25 59.9780000  0  6 24 04 09 02 05 07
  14799601.729   -30480851.243 7 -23486572.123 3
  14208839.877   -42408503.231 7 -32533047.525 4
  14828387.924   -35895478.685 7 -26439094.683 3
  17238509.377   -23247395.660 5 -18042686.926 1
  16547801.690   -16801798.461 6 -11529206.235 1
  16005111.908   -39470644.256 6 -30626379.959 2
 95 12 29  5 26 29.9780000  0  6 24 04 09 02 05 07
  14775607.760   -30606935.498 6 -23584819.589 3
  14199886.635   -42455561.291 7 -32569716.136 4
  14817282.447   -35953822.226 7 -26484557.186 3
  17242391.533   -23226983.333 4 -18026781.254 1
  16520754.619   -16943943.146 6 -11639968.324 1
  16005957.361   -39466210.422 6 -30622925.025 2
 95 12 29  5 26 59.9780000  0  6 24 04 09 02 05 07
  14751697.611   -30732585.477 7 -23682728.661 3
  14191043.604   -42502020.789 7 -32605918.340 4
  14806290.088   -36011592.384 7 -26529572.903 3
  17246331.619   -23206290.382 5 -18010656.892 1
  16493718.111   -17086022.457 6 -11750679.461 1
  16006808.526   -39461731.189 6 -30619434.713 2
 95 12 29  5 27 29.9780000  0  6 24 04 09 02 05 07
  14727865.174   -30857825.814 6 -23780318.535 3
  14182315.002   -42547885.175 7 -32641656.821 4
  14795403.580   -36068805.593 7 -26574154.631 3
  17250318.893   -23185321.094 4 -17994317.206 1
  16466693.986   -17228042.531 6 -11861344.449 1
  16007670.854   -39457211.596 6 -30615912.963 2
 95 12 29  5 27 59.9780000  0  6 24 04 09 02 05 07
  14704111.088   -30982649.080 7 -23877583.411 3
  14173707.494   -42593132.336 7 -32676914.342 4
  14784627.057   -36125428.872 7 -26618276.674 3
  17254365.690   -23164058.164 4 -17977748.719 1
  16439682.674   -17369981.359 6 -11971946.124 1
  16008543.151   -39452622.937 6 -30612337.388 2
 95 12 29  5 28 29.9780000  0  6 24 04 09 02 05 07
  14680436.549   -31107058.590 7 -23974525.875 3
  14165207.760   -42637789.317 7 -32711711.988 4
  14773965.705   -36181471.084 7 -26661945.943 3
  17258465.565   -23142523.227 4 -17960968.284 1
  16412686.940   -17511837.115 6 -12082483.069 1
  16009429.807   -39447958.852 6 -30608703.038 2
 95 12 29  5 28 59.9780000  0  6 24 04 09 02 05 07
  14656844.065   -31231043.889 7 -24071137.783 3
  14156818.096   -42681882.081 7 -32746069.983 4
  14763401.174   -36236958.387 7 -26705182.814 3
  17262607.736   -23120750.245 4 -17944002.358 1
  16385706.611   -17653626.054 6 -12192967.946 1
  16010337.619   -39443214.280 6 -30605005.971 2
 95 12 29  5 29 29.9780000  0  6 24 04 09 02 05 07
  14633337.502   -31354571.404 7 -24167392.982 3
  14148532.526   -42725420.476 7 -32779996.001 4
  14752949.604   -36291899.827 7 -26747994.339 3
  17266794.268   -23098761.747 4 -17926868.510 1
  16358735.916   -17795352.537 6 -12303404.159 1
  16011254.916   -39438375.143 6 -30601235.222 2
 95 12 29  5 29 59.9780000  0  6 24 04 09 02 05 07
  14609923.627   -31477615.374 7 -24263271.392 3
  14140354.354   -42768398.499 7 -32813485.366 4
  14742605.229   -36346262.593 7 -26790354.946 3
  17271020.744   -23076544.573 4 -17909556.450 1
  16331784.010   -17936989.993 6 -12413770.992 1
  16012193.815   -39433432.734 6 -30597383.993 2
 95 12 29  5 30 29.9780000  0  6 24 04 09 02 05 07
  14586597.557   -31600182.830 7 -24358778.485 3
  14132281.088   -42810830.194 7 -32846549.021 4
  14732363.479   -36400071.095 7 -26832283.659 3
  17275290.604   -23054105.531 4 -17892071.512 1
  16304847.479   -18078548.738 6 -12524076.503 1
  16013149.002   -39428417.737 6 -30593476.208 2
 95 12 29  5 30 59.9780000  0  6 24 04 09 02 05 07
  14563364.846   -31722277.750 7 -24453917.371 3
  14124310.799   -42852704.182 7 -32879178.098 4
  14722234.252   -36453316.684 7 -26873773.745 3
  17279607.268   -23031435.294 4 -17874406.424 1
  16277923.151   -18220030.613 6 -12634322.105 1
  16014112.744   -39423353.715 6 -30589530.220 2
 95 12 29  5 31 29.9780000  0  6 24 04 09 02 05 07
  14540223.619   -31843885.342 7 -24548676.522 3
  14116454.807   -42893993.717 7 -32911351.762 4
  14712213.299   -36505968.816 7 -26914801.385 3
  17283967.807   -23008492.101 4 -17856528.624 1
  16251022.447   -18361398.884 6 -12744479.188 1
  16015084.213   -39418243.710 6 -30585548.395 2
 95 12 29  5 31 59.9780000  0  6 24 04 09 02 05 07
  14517172.174   -31965028.559 7 -24643073.821 3
  14108706.752   -42934706.741 7 -32943076.188 4
  14702305.346   -36558038.386 7 -26955375.089 3
  17288386.799   -22985284.125 4 -17838444.514 1
  16224139.236   -18502658.141 6 -12854551.331 1
  16016060.088   -39413118.180 6 -30581554.483 2
 95 12 29  5 32 29.9780000  0  6 24 04 09 02 05 07
  14494209.791   -32085695.735 7 -24737100.177 3
  14101070.143   -42974833.609 7 -32974343.876 4
  14692507.682   -36609532.173 7 -26995500.123 3
  17292852.299   -22961814.842 4 -17820156.790 1
  16197281.057   -18643808.415 6 -12964538.552 1
  16017041.846   -39407960.393 6 -30577535.434 2
 95 12 29  5 32 59.9780000  0  6 24 04 09 02 05 07
  14471336.244   -32205890.535 7 -24830758.456 3
  14093546.127   -43014386.602 7 -33005164.388 4
  14682813.619   -36660463.320 7 -27035186.755 3
  17297364.236   -22938099.638 4 -17801677.418 1
  16170439.127   -18784864.899 6 -13074452.684 1
  16018030.416   -39402767.917 6 -30573489.350 2
 95 12 29  5 33 29.9780000  0  6 24 04 09 02 05 07
  14448558.549   -32325596.901 7 -24924036.129 3
  14086128.455   -43053356.168 7 -33035530.276 4
  14673231.651   -36710829.570 7 -27074433.183 3
  17301926.549   -22914139.091 4 -17783006.877 1
  16143615.549   -18925830.297 6 -13184295.841 1
  16019030.744   -39397519.644 6 -30569399.797 2
 95 12 29  5 33 59.9780000  0  6 24 04 09 02 05 07
  14425871.268   -32444810.355 7 -25016929.718 3
  14078826.104   -43091732.006 7 -33065433.526 4
  14663754.971   -36760625.720 7 -27113235.385 3
  17306528.463   -22889940.877 4 -17764151.129 1
  16116805.830   -19066709.986 6 -13294072.215 1
  16020044.463   -39392186.682 6 -30565244.241 1
 95 12 29  5 34 29.9780000  0  6 24 04 09 02 05 07
  14403281.901   -32563531.010 7 -25109439.307 3
  14071635.791   -43129516.085 7 -33094875.667 4
  14654387.463   -36809848.382 7 -27151590.712 3
  17311182.361   -22865496.688 4 -17745103.750 1
  16090011.682   -19207508.564 6 -13403785.383 1
  16021077.010   -39386758.377 6 -30561014.402 2
 95 12 29  5 34 59.9780000  0  6 24 04 09 02 05 07
  14380778.369   -32681778.264 7 -25201580.012 3
  14064554.283   -43166726.993 7 -33123871.172 4
  14645130.322   -36858501.433 7 -27189502.192 3
  17315878.416   -22840813.019 4 -17725869.721 1
  16063232.002   -19348244.209 6 -13513449.508 1
  16022120.088   -39381259.389 6 -30556729.480 1
 95 12 29  5 35 29.9780000  0  6 24 04 09 02 05 07
  14358367.447   -32799544.808 7 -25293346.143 3
  14057584.815   -43203356.641 7 -33152413.750 4
  14635982.377   -36906560.142 7 -27226950.545 3
  17320624.252   -22815876.235 4 -17706438.485 1
  16036467.283   -19488905.311 6 -13623055.557 1
  16023183.893   -39375685.814 6 -30552386.442 1
 95 12 29  5 35 59.9780000  0  6 24 04 09 02 05 07
  14336047.471   -32916839.968 7 -25384744.960 3
  14050719.682   -43239428.311 7 -33180521.541 4
  14626951.541   -36954032.677 7 -27263942.132 3
  17325417.424   -22790682.020 4 -17686806.653 1
  16009714.135   -19629485.231 6 -13732598.338 1
  16024259.033   -39370041.240 6 -30547988.073 1
 95 12 29  5 36 29.9780000  0  6 24 04 09 02 05 07
  14313819.135   -33033655.302 7 -25475769.887 3
  14043961.338   -43274944.218 7 -33208196.271 4
  14618028.096   -37000905.649 7 -27300466.535 3
  17330261.151   -22765219.990 4 -17666966.115 1
  15982979.830   -19769963.976 6 -13842062.299 1
  16025344.854   -39364334.132 6 -30543540.975 1
 95 12 29  5 36 59.9770000  0  6 24 04 09 02 05 07
  14291682.568   -33149977.802 7 -25566410.780 3
  14037313.552   -43309887.797 7 -33235425.031 4
  14609225.036   -37047172.314 7 -27336518.492 3
  17335155.544   -22739493.382 4 -17646919.426 1
  15956274.903   -19910309.126 6 -13951422.144 1
  16026443.435   -39358556.664 6 -30539039.053 1
 95 12 29  5 37 29.9770000  0  6 24 04 09 02 05 07
  14269641.825   -33265812.950 7 -25656671.927 3
  14030768.919   -43344268.279 7 -33262215.015 4
  14600535.755   -37092854.518 7 -27372115.016 3
  17340102.443   -22713511.398 5 -17626673.741 1
  15929592.958   -20050518.847 6 -14060676.464 1
  16027555.318   -39352708.646 6 -30534482.156 1
 95 12 29  5 37 59.9770000  0  6 24 04 09 02 05 07
  14247687.661   -33381167.477 7 -25746558.557 3
  14024334.239   -43378093.912 7 -33288572.646 4
  14591945.583   -37137979.876 7 -27407277.645 3
  17345095.857   -22687285.098 5 -17606237.698 1
  15902938.685   -20190588.942 6 -14169821.994 1
  16028680.427   -39346794.963 6 -30529874.097 1
 95 12 29  5 38 29.9770000  0  6 24 04 09 02 05 07
  14225829.833   -33496035.158 7 -25836065.833 3
  14018006.466   -43411342.299 7 -33314480.479 4
  14583468.271   -37182536.012 7 -27441996.719 3
  17350130.607   -22660807.311 5 -17585605.663 1
  15876311.552   -20330515.883 6 -14278855.967 1
  16029818.489   -39340821.910 6 -30525219.780 1
 95 12 29  5 38 59.9770000  0  6 24 04 09 02 05 07
  14204064.536   -33610417.691 7 -25925195.070 3
  14011786.255   -43444022.084 7 -33339945.240 4
  14575097.771   -37226529.606 7 -27476277.452 3
  17355218.177   -22634081.304 5 -17564780.217 1
  15849708.177   -20470319.100 6 -14387793.535 1
  16030964.974   -39334790.415 6 -30520519.919 1
 95 12 29  5 39 29.9770000  0  6 24 04 09 02 05 07
  14182391.013   -33724310.293 7 -26013942.541 3
  14005672.622   -43476158.820 7 -33364986.855 4
  14566830.607   -37269962.963 7 -27510121.640 3
  17360353.716   -22607101.136 5 -17543756.734 1
  15823122.974   -20610020.986 6 -14496652.143 2
  16032122.646   -39328709.380 6 -30515781.458 1
 95 12 29  5 39 59.9770000  0  6 24 04 09 02 05 07
  14160817.591   -33837689.034 7 -26102289.600 3
  13999664.747   -43507728.222 7 -33389586.385 4
  14558678.935   -37312806.627 7 -27543506.333 3
  17365539.107   -22579842.957 4 -17522516.622 1
  15796560.810   -20749605.611 6 -14605419.375 1
  16033290.802   -39322559.318 6 -30510989.212 1
 95 12 29  5 40 29.9770000  0  6 24 04 09 02 05 07
  14139338.036   -33950554.627 7 -26190236.802 3
  13993762.466   -43538740.841 7 -33413752.055 4
  14550639.239   -37355063.044 7 -27576433.416 3
  17370775.513   -22552326.681 4 -17501075.371 1
  15770020.177   -20889083.344 6 -14714103.323 1
  16034475.568   -39316350.012 6 -30506150.795 1
 95 12 29  5 40 59.9770000  0  6 24 04 09 02 05 07
  14117961.864   -34062894.349 7 -26277774.239 3
  13987965.068   -43569209.117 7 -33437493.570 4
  14542702.989   -37396753.798 7 -27608919.728 3
  17376055.849   -22524565.944 4 -17479443.658 1
  15743498.208   -21028450.856 6 -14822701.380 2
  16035668.122   -39310073.973 6 -30501260.385 1
 95 12 29  5 41 29.9770000  0  6 24 04 09 02 05 07
  14096681.474   -34174714.578 7 -26364906.875 3
  13982271.310   -43599142.843 7 -33460818.551 4
  14534870.989   -37437907.364 7 -27640987.451 3
  17381381.130   -22496582.162 3 -17457638.130 1
  15716999.489   -21167708.250 6 -14931213.628 2
  16036871.755   -39303757.216 6 -30496338.248 1
 95 12 29  5 41 59.9770000  0  6 24 04 09 02 05 07
  14075503.271   -34286010.818 7 -26451631.207 3
  13976681.083   -43628504.651 7 -33483697.879 4
  14527147.989   -37478505.804 7 -27672622.611 3
  17386750.185   -22468380.607 3 -17435662.932 1
  15690523.435   -21306832.271 6 -15039621.954 2
  16038081.693   -39297397.376 6 -30491382.537 1
 95 12 29  5 42 29.9770000  0  7 24 04 09 02 05 20 07
  14054422.044   -34396792.798 7 -26537954.823 3
  13971200.724   -43657298.417 7 -33506134.577 4
  14519530.411   -37518538.208 7 -27703816.706 3
  17392159.614   -22439958.749 3 -17413516.055 1
  15664074.474   -21445822.577 6 -15147926.085 2
  18220616.880          -0.42713
  16039298.239   -39291007.399 6 -30486403.343 1
 95 12 29  5 42 59.9770000  0  7 24 04 09 02 05 20 07
  14033438.294   -34507059.762 7 -26623877.115 3
  13965832.528   -43685516.484 7 -33528122.680 4
  14512020.388   -37557981.307 6 -27734551.595 3
  17397607.880   -22411303.494 2 -17391187.322 1
  15637654.372   -21584672.159 6 -15256120.560 2
  18190799.122     -156707.770 3
  16040518.513   -39284589.637 6 -30481402.487 1
 95 12 29  5 43 29.9770000  0  7 24 04 09 02 05 20 07
  14012551.341   -34616818.084 7 -26709403.074 3
  13960575.028   -43713146.364 7 -33549652.451 4
  14504633.974   -37596809.557 6 -27764807.391 3
  17403112.044   -22382403.738 3 -17368668.092 1
  15611257.411   -21723379.007 6 -15364203.814 2
  18160977.505     -313426.768 4
  16041745.208   -39278138.899 6 -30476375.944 1
 95 12 29  5 43 59.9770000  0  7 24 04 09 02 05 20 07
  13991759.443   -34726076.930 7 -26794539.825 3
  13955426.599   -43740190.932 7 -33570726.143 4
  14497364.575   -37635018.226 6 -27794580.388 3
  17408662.060   -22353250.853 2 -17345951.591 1
  15584889.771   -21861956.575 6 -15472186.331 2
  18131156.411     -470142.455 3
  16042985.286   -39271627.951 6 -30471302.486 1
 95 12 29  5 44 29.9770000  0  7 24 04 09 02 05 20 07
  13971068.341   -34834823.194 7 -26879277.163 3
  13950390.263   -43766667.927 7 -33591357.565 4
  14490207.060   -37672626.061 6 -27823885.191 3
  17414260.278   -22323833.302 3 -17323028.849 1
  15558542.247   -22000401.419 6 -15580065.428 2
  18101332.372     -626843.893 4        -0.02811
  16044239.880   -39265029.450 6 -30466160.801 1
 95 12 29  5 44 59.9770000  0  7 24 04 09 02 05 20 07
  13950472.974   -34943049.496 7 -26963609.339 3
  13945457.825   -43792588.324 7 -33611555.276 4
  14483157.724   -37709658.915 6 -27852741.988 3
  17419902.130   -22294152.446 3 -17299900.949 1
  15532223.466   -22138715.990 6 -15687843.017 2
  18071521.247     -783526.715 4   -122090.545 1
  16045517.318   -39258321.394 6 -30460933.753 1
 95 12 29  5 45 29.9770000  0  7 24 04 09 02 05 20 07
  13929979.622   -35050749.731 7 -27047531.586 3
  13940627.919   -43817972.272 7 -33631334.974 4
  14476216.263   -37746133.836 6 -27881164.009 3
  17425603.630   -22264209.036 3 -17276568.465 1
  15505925.193   -22276895.818 6 -15795515.608 2
  18041702.825     -940201.350 4   -244174.689 1
  16046814.833   -39251504.799 6 -30455622.136 1
 95 12 29  5 45 59.9770000  0  7 24 04 09 02 05 20 07
  13909585.614   -35157917.021 7 -27131038.554 3
  13935895.794   -43842839.401 7 -33650711.956 4
  14469380.200   -37782066.096 6 -27909163.178 3
  17431347.482   -22234020.188 3 -17253044.739 1
  15479660.263   -22414934.373 6 -15903078.112 2
  18011886.286    -1096894.031 4   -366272.875 1
  16048128.419   -39244592.739 6 -30450236.116 1
 95 12 29  5 46 29.9770000  0  7 24 04 09 02 05 20 07
  13889286.458   -35264577.597 7 -27214150.680 3
  13931254.997   -43867217.864 7 -33669708.159 4
  14462643.263   -37817482.750 6 -27936760.577 3
  17437139.489   -22203613.317 4 -17229351.087 1
  15453418.997   -22552833.701 6 -16010532.138 2
  17982059.325    -1253647.920 4   -488418.754 1
  16049452.005   -39237640.202 6 -30444818.557 1
 95 12 29  5 46 59.9770000  0  7 24 04 09 02 05 20 07
  13869091.575   -35370708.358 7 -27296849.964 3
  13926715.107   -43891076.717 7 -33688299.469 4
  14456008.028   -37852349.038 7 -27963929.122 3
  17442965.091   -22172962.271 4 -17205467.211 1
  15427208.443   -22690562.104 6 -16117852.970 2
  17952220.653    -1410445.387 4   -610598.622 1
  16050783.864   -39230643.123 6 -30439366.294 1
 95 12 29  5 47 29.9770000  0  7 24 04 09 02 05 20 07
  13848998.841   -35476302.051 7 -27379130.751 3
  13922276.989   -43914397.091 7 -33706471.186 4
  14449477.778   -37886655.474 7 -27990661.411 3
  17448844.239   -22142080.184 4 -17181403.214 1
  15401036.669   -22828103.375 6 -16225027.983 2
  17922370.333    -1567291.895 3   -732816.647 1
  16052119.224   -39223618.866 6 -30433892.858 1
 95 12 29  5 47 59.9770000  0  7 24 04 09 02 05 20 07
  13829002.958   -35581379.193 7 -27461009.028 3
  13917945.568   -43937161.547 7 -33724209.731 4
  14443051.685   -37920422.725 7 -28016973.555 3
  17454762.286   -22110972.666 4 -17157163.600 1
  15374898.185   -22965464.097 6 -16332062.311 2
  17892515.950    -1724189.361 3   -855074.411 1
  16053465.849   -39216564.374 6 -30428395.860 1
 95 12 29  5 48 29.9770000  0  7 24 04 09 02 05 20 07
  13809103.302   -35685954.807 7 -27542496.510 3
  13913721.044   -43959369.589 7 -33741514.691 4
  14436727.818   -37953655.876 7 -28042869.521 3
  17460727.841   -22079630.981 4
  15348789.021   -23102655.489 6 -16438964.690 2
  17862650.997    -1881128.413 2   -977364.569 1
  16054812.872   -39209481.673 6 -30422876.884 1
 95 12 29  5 48 59.9770000  0  7 24 04 09 02 05 20 07
  13789300.575   -35790016.050 7 -27623583.184 3
  13909599.239   -43981030.507 7 -33758393.329 4
  14430507.239   -37986346.455 7 -28068342.706 3
  17466734.107   -22048060.468 4
  15322714.286   -23239685.245 6 -16545741.123 2
  17832784.747    -2038088.229 2  -1099670.902 1
  16056162.544   -39202363.698 6 -30417330.424 1
 95 12 29  5 49 29.9770000  0  7 24 04 09 02 05 20 07
  13769592.919   -35893576.659 7 -27704279.747 3
  13905574.818   -44002164.997 7 -33774861.755 4
  14424390.825   -38018502.729 7 -28093399.540 3
  17472783.903   -22016272.958 4
  15296663.818   -23376580.283 6 -16652412.580 2
  17802908.388    -2195066.967 1  -1221991.969 1
  16057529.849   -39195210.594 6 -30411756.581 1
 95 12 29  5 49 59.9770000  0  6 24 04 09 02 05 07
  13749978.997   -35996643.308 7 -27784591.411 3
  13901649.685   -44022791.017 7 -33790933.981 4
  14418373.302   -38050130.304 7 -28118044.406 3
  17478876.693   -21984261.170 4        -0.42011
  15270633.997   -23513359.830 6 -16758994.041 2
  16058896.325   -39188020.587 6 -30406153.987 1
 95 12 29  5 50 29.9760000  0  6 24 04 09 02 05 07
  13730466.945   -36099188.156 7 -27864496.474 3
  13897819.516   -44042918.592 7 -33806617.805 4
  14412458.305   -38081196.099 7 -28142251.536 3
  17485005.610   -21952032.264 4     25113.030 1
  15244634.289   -23650007.544 6 -16865472.775 2
  16060271.742   -39180790.543 6 -30400520.192 1
 95 12 29  5 50 59.9760000  0  6 24 04 09 02 05 07
  13711052.391   -36201206.931 7 -27943991.617 3
  13894086.570   -44062541.070 7 -33821908.044 4
  14406655.383   -38111695.749 7 -28166017.496 3
  17491181.836   -21919599.790 4     50385.067 1
  15218655.414   -23786524.408 6 -16971849.548 2
  16061658.555   -39173513.082 6 -30394849.448 1
 95 12 29  5 51 29.9760000  0  6 24 04 09 02 05 07
  13691734.492   -36302728.810 7 -28023099.558 3
  13890449.063   -44081660.746 7 -33836806.490 4
  14400951.445   -38141663.357 7 -28189368.885 3
  17497382.578   -21886993.173 4     75792.824 1
  15192700.602   -23922916.080 6 -17078128.769 2
  16063049.610   -39166198.303 6 -30389149.624 1
 95 12 29  5 51 59.9760000  0  6 24 04 09 02 05 07
  13672514.008   -36403733.286 7 -28101804.336 3
  13886911.469   -44100250.310 7 -33851291.869 4
  14395354.844   -38171073.806 7 -28212286.124 3
  17503629.117   -21854195.016 4    101349.782 1
  15166778.156   -24059129.183 6 -17184268.855 2
  16064447.399   -39158837.181 6 -30383413.693 1
 95 12 29  5 52 29.9760000  0  6 24 04 09 02 05 07
  13653389.922   -36504233.259 7 -28180115.990 3
  13883470.641   -44118327.750 7 -33865378.183 4
  14389865.250   -38199924.740 7 -28234767.381 3
  17509899.141   -21821225.448 3    127040.356 1
  15140891.110   -24195168.702 6 -17290273.674 2
  16065854.899   -39151440.862 6 -30377650.340 1
 95 12 29  5 52 59.9760000  0  7 24 04 09 02 05 20 07
  13634357.789   -36604240.882 7 -28258043.996 3
  13880129.688   -44135891.210 7 -33879063.996 4
  14384477.820   -38228240.155 7 -28256831.355 3
  17516206.914   -21788078.989 2    152868.734 1
  15115036.125   -24331042.898 6 -17396149.663 2
  17593819.930          -0.23413
  16067269.945   -39144020.046 6 -30371867.889 1
 95 12 29  5 53 29.9760000  0  7 24 04 09 02 05 20 07
  13615420.727   -36703762.449 7 -28335593.256 3
  13876881.274   -44152954.451 7 -33892360.026 4
  14379190.227   -38256021.870 7 -28278479.451 3
  17522548.805   -21754730.246 2    178854.741 1
  15089210.961   -24466754.306 6 -17501898.813 2
  17563935.406     -157060.766 4        -0.04311
  16068684.602   -39136586.863 6 -30366075.811 1
 95 12 29  5 53 59.9760000  0  7 24 04 09 02 05 20 07
  13596577.930   -36802777.112 7 -28412747.527 3
  13873726.891   -44169531.585 7 -33905277.276 4
  14374011.227   -38283255.651 7 -28299700.582 3
  17528943.336   -21721160.781 2    205012.715 1
  15063415.102   -24602313.318 6 -17607529.205 2
  17534040.430     -314152.700 4   -122409.371 1
  16070096.813   -39129147.386 6 -30360278.824 1
 95 12 29  5 54 29.9760000  0  7 24 04 09 02 05 20 07
  13577835.274   -36901272.031 7 -28489496.809 3
  13870664.430   -44185616.683 7 -33917811.116 4
  14368929.836   -38309954.421 7 -28320504.829 3
  17535372.641   -21687358.515 1    231352.135 1
  15037645.320   -24737734.239 6 -17713051.993 2
  17504142.047     -471255.912 4   -244827.460 1
  16071518.469   -39121677.302 6 -30354457.992 1
 95 12 29  5 54 59.9760000  0  6 24 04 09 05 20 07
  13559188.508   -36999259.049 7 -28565850.317 3
  13867694.891   -44201219.439 7 -33929969.103 4
  14363944.078   -38336156.504 7 -28340922.047 3
  15011904.141   -24873015.626 6 -17818466.065 2
  17474244.102     -628379.035 4   -367261.041 1
  16072944.219   -39114183.191 6 -30348618.434 1
 95 12 29  5 55 29.9760000  0  6 24 04 09 05 20 07
  13540645.024   -37096715.418 7 -28641790.335 3
  13864819.289   -44216339.197 7 -33941750.736 4
  14359052.188   -38361850.502 7 -28360943.349 3
  14986188.149   -25008136.995 6 -17923755.442 2
  17444340.211     -785519.316 4   -489708.035 1
  16074379.680   -39106644.316 6 -30342744.003 1
 95 12 29  5 55 59.9760000  0  7 24 04 09 05 20 07 16
  13522198.555   -37193641.282 7 -28717316.969 3
  13862033.899   -44230983.171 7 -33953161.624 4
  14354254.016   -38387051.973 7 -28380580.871 3
  14960506.008   -25143102.199 6 -18028923.134 2
  17414434.766     -942687.790 5
  16075828.297   -39099046.283 6 -30336823.467 1
  18193598.414          -0.25314
 95 12 29  5 56 29.9760000  0  7 24 04 09 05 20 07 16
  13503856.047   -37290035.379 7 -28792429.241 3
  13859341.977   -44245126.869 7 -33964182.689 4
  14349554.453   -38411755.628 7 -28399830.485 3
  14934857.180   -25277887.755 6 -18133950.840 2
  17384523.820    -1099879.811 5
  16077288.164   -39091362.027 6 -30330835.739 1
  18165586.453     -147209.723 4
 95 12 29  5 56 59.9760000  0  7 24 04 09 05 20 07 16
  13485615.844   -37385893.449 7 -28867123.832 3
  13856746.461   -44258767.305 7 -33974811.597 4
  14344951.539   -38435943.441 7 -28418678.137 3
  14909246.016   -25412477.978 7 -18238826.338 2
  17354608.180    -1257091.347 4
  16078765.774   -39083609.920 6 -30324795.144 1
  18137543.578     -294577.686 4
 95 12 29  5 57 29.9760000  0  7 24 04 09 05 20 07 16
  13467474.211   -37481221.120 7 -28941405.122 3
  13854243.992   -44271913.082 7 -33985055.058 4
  14340451.524   -38459605.256 7 -28437115.925 3
  14883667.672   -25546894.715 7 -18343566.654 2
  17324685.578    -1414317.619 4
  16080248.867   -39075810.211 6 -30318717.468 1
  18109465.219     -442119.309 4
 95 12 29  5 57 59.9760000  0  7 24 04 09 05 20 07 16
  13449436.938   -37576011.651 7 -29015267.865 3
  13851841.742   -44284530.855 7 -33994887.091 4
  14336053.883   -38482715.626 7 -28455124.012 3
  14858124.125   -25681131.194 7 -18448166.507 2
  17294771.719    -1571515.922 4
  16081744.360   -39067955.264 6 -30312596.737 1
  18081360.469     -589816.200 4        -0.34711
 95 12 29  5 58 29.9760000  0  7 24 04 09 05 20 07 16
  13431497.688   -37670275.918 7 -29088720.518 3
  13849542.047   -44296620.258 7 -34004307.400 4
  14331760.805   -38505269.288 7 -28472698.298 3
  14832612.633   -25815188.475 7 -18552626.729 3
  17264859.180    -1728684.965 3        -0.39211
  16083242.406   -39060073.917 6 -30306455.443 1
  18053225.852     -737671.887 5   -115212.565 1
 95 12 29  5 58 59.9760000  0  7 24 04 09 05 20 07 16
  13413657.914   -37764022.330 7 -29161769.672 3
  13847337.891   -44308215.468 7 -34013342.626 4
  14327570.649   -38527274.888 7 -28489845.527 3
  14807136.469   -25949068.640 7 -18656948.930 2
  17234959.039    -1885828.336 4   -122449.781 1
  16084742.149   -39052191.480 6 -30300313.293 1
  18025057.625     -885697.687 5
 95 12 29  5 59 29.9760000  0  7 24 04 09 05 20 07 16
  13395917.555   -37857256.153 7 -29234419.399 3
  13845220.688   -44319328.593 7 -34022002.206 4
  14323488.219   -38548737.158 7 -28506569.390 3
  14781694.563   -26082769.047 7 -18761131.066 2
  17205055.492    -2042954.378 3   -244885.650 1
  16086245.070   -39044299.873 6 -30294164.001 1
  17996855.719    -1033888.629 4
 95 12 29  5 59 59.9760000  0  7 24 04 09 05 20 07 16
  13378268.320   -37949995.374 7 -29306683.715 3
  13843196.758   -44329967.053 7 -34030291.913 4
  14319505.985   -38569674.653 7 -28522884.325 3
  14756286.688   -26216282.091 7 -18865167.205 3
  17175158.899    -2200083.956 3   -367324.280 1
  16087749.961   -39036398.537 6 -30288007.143 1
  17968625.922    -1182234.542 4        -0.49411
 95 12 29  6  0 29.9760000  0  7 24 04 09 05 20 07 16
  13360714.531   -38042249.123 7 -29378569.742 3
  13841258.399   -44340165.552 7 -34038238.795 4
  14315614.164   -38590109.336 6 -28538807.466 3
  14730916.899   -26349601.438 7 -18969052.408 2
  17145255.070    -2357231.670 3   -489777.018 1
  16089255.141   -39028494.797 6 -30281848.396 1
  17940366.820    -1330730.745 3   -115711.820 1
 95 12 29  6  0 59.9760000  0  8 24 04 09 02 05 20 07 16
  13343256.461   -38133994.719 7 -29450059.810 3
  13839397.844   -44349925.290 7 -34045843.782 4
  14311823.485   -38610039.324 6 -28554337.340 3
  17622658.617          -0.95913
  14705584.203   -26482721.498 7 -19072782.328 3
  17115345.445    -2514386.728 2   -612235.499 1
  16090761.242   -39020567.494 6 -30275671.287 1
  17912084.680    -1479366.618 3   -231531.997 1
 95 12 29  6  1 29.9760000  0  8 24 04 09 02 05 20 07 16
  13325897.125   -38225212.146 7 -29521138.307 3
  13837632.602   -44359210.706 7 -34053079.171 4
  14308127.602   -38629460.512 6 -28569470.734 3
  17629622.695       36602.440 4
  14680292.086   -26615639.960 7 -19176355.150 2
  17085447.078    -2671532.826 3   -734686.987 1
  16092275.414   -39012595.857 6 -30269459.641 1
  17883779.594    -1628117.531 3   -347441.770 1
 95 12 29  6  1 59.9760000  0  8 24 04 09 02 05 20 07 16
  13308641.875   -38315895.865 7 -29591800.935 3
  13835955.235   -44368024.337 7 -34059946.935 4
  14304524.328   -38648388.537 6 -28584219.851 3
  17636623.360       73385.154 4        -0.16311
  14655035.188   -26748374.053 7 -19279784.315 2
  17055544.781    -2828671.125 3   -857132.397 1
  16093800.516   -39004582.000 6 -30263215.096 1
  17855449.313    -1776980.247 2   -463438.647 1
 95 12 29  6  2 29.9760000  0  8 24 04 09 02 05 20 07 16
  13291489.938   -38406026.579 7 -29662032.650 3
  13834365.805   -44376372.892 7 -34066452.299 4
  14301019.430   -38666820.868 6 -28598582.712 3
  17643661.156      110361.923 4     28812.935 1
  14629810.328   -26880922.517 7 -19383068.830 3
  17025641.235    -2985795.121 3   -979566.666 1
  16095336.367   -38996515.379 5 -30256929.427 1
  17827098.320    -1925954.162 2   -579522.173 1
 95 12 29  6  2 59.9760000  0  8 24 04 09 02 05 20 07 16
  13274442.774   -38495608.212 7 -29731836.508 3
  13832868.852   -44384253.469 7 -34072593.002 4
  14297601.375   -38684769.423 6 -28612568.600 3
  17650726.758      147516.153 3     57764.314 1
  14604619.977   -27013293.096 7 -19486214.736 2
  16995739.719    -3142911.524 3  -1101995.037 1
  16096877.586   -38988402.420 5 -30250607.653 1
  17798728.164    -2075060.616 2   -695709.040 1
 95 12 29  6  3 29.9760000  0  7 24 04 09 02 05 20 07
  13257499.414   -38584647.155 7 -29801217.489 3
  13831457.891   -44391654.699 7 -34078360.193 4
  14294280.516   -38702239.185 6 -28626181.413 3
  17657837.039      184859.012 3
  14579467.758   -27145471.093 7 -19589210.581 3
  16965850.875    -3300011.485 3  -1224410.567 1
  16098432.641   -38980243.420 5 -30244250.004 1
 95 12 29  6  3 59.9750000  0  7 24 04 09 02 05 20 07
  13240662.987   -38673123.053 7 -29870159.738 3
  13830141.487   -44398579.599 7 -34083756.224 4
  14291049.417   -38719199.463 6 -28639397.217 3
  17664984.253      222419.501 3
  14554358.948   -27277420.697 7 -19692028.450 3
  16935959.855    -3457068.310 4  -1346792.499 1
  16099998.652   -38972018.879 5 -30237841.286 1
 95 12 29  6  4 29.9750000  0  7 24 04 09 02 05 20 07
  13223928.402   -38761061.815 7 -29938683.439 3
  13828909.183   -44405042.410 7 -34088792.181 4
  14287920.230   -38735658.595 6 -28652222.519 3
  17672168.987      260195.137 3
  14529292.042   -27409152.147 7 -19794676.331 3
  16906084.753    -3614087.892 4  -1469145.405 1
  16101570.878   -38963752.907 5 -30231400.288 1
 95 12 29  6  4 59.9750000  0  6 24 04 09 05 20 07
  13207293.081   -38848484.972 7 -30006805.370 3
  13827767.339   -44411051.861 7 -34093474.867 4
  14284877.222   -38751634.241 6 -28664671.091 3
  14504263.698   -27540678.681 7 -19897164.534 3
  16876211.800    -3771071.609 5  -1591470.364 1
  16103146.448   -38955480.099 5 -30224953.950 1
 95 12 29  6  5 29.9750000  0  6 24 04 09 05 20 07
  13190755.105   -38935390.316 7 -30074523.812 3
  13826706.027   -44416621.243 7 -34097814.643 4
  14281930.417   -38767130.353 6 -28676745.984 3
  14479273.261   -27672006.839 7 -19999498.160 3
  16846340.402    -3928034.665 5  -1713779.236 1
  16104720.183   -38947208.804 5 -30218508.806 1
 95 12 29  6  5 59.9750000  0  6 24 04 09 05 20 07
  13174317.386   -39021768.618 7 -30141831.564 3
  13825734.034   -44421745.132 7 -34101807.284 4
  14279074.089   -38782130.420 6 -28688434.359 3
  14454320.605   -27803127.854 7 -20101670.380 3
  16816476.277    -4084973.334 5  -1836069.103 1
  16106298.722   -38938920.925 5 -30212050.727 1
 95 12 29  6  6 29.9750000  0  6 24 04 09 05 20 07
  13157975.987   -39107645.060 7 -30208748.264 3
  13824840.652   -44426436.832 7 -34105463.157 4
  14276309.612   -38796665.045 6 -28699760.053 3
  14429404.683   -27934060.179 7 -20203695.566 3
  16786612.433    -4241910.399 5  -1958357.714 1
  16107874.198   -38930628.185 5 -30205588.868 1
 95 12 29  6  6 59.9750000  0  6 24 04 09 05 20 07
  13141732.730   -39193007.494 7 -30275264.434 3
  13824028.214   -44430694.617 7 -34108780.912 4
  14273636.308   -38810724.640 6 -28710715.588 3
  14404526.612   -28064793.655 7 -20305565.808 3
  16756748.308    -4398852.905 5  -2080650.565 1
  16109456.261   -38922299.464 5 -30199098.959 1
 95 12 29  6  7 29.9750000  0  6 24 04 09 05 20 07
  13125585.456   -39277855.050 7 -30341379.412 3
  13823304.659   -44434518.032 7 -34111760.189 4
  14271051.198   -38824294.709 6 -28721289.670 3
  14379688.862   -28195318.513 7 -20407273.488 3
  16726882.261    -4555797.823 5  -2202945.308 1
  16111058.605   -38913899.986 5 -30192553.925 1
 95 12 29  6  7 59.9750000  0  6 24 04 09 05 20 07
  13109537.112   -39362190.384 7 -30407095.242 3
  13822661.573   -44437886.795 7 -34114385.214 4
  14268565.261   -38837356.651 6 -28731467.812 3
  14354893.198   -28325617.366 7 -20508805.056 3
  16697022.456    -4712714.731 5  -2325218.234 1
  16112677.089   -38905401.829 5 -30185932.004 1
 95 12 29  6  8 29.9750000  0  6 24 04 09 05 20 07
  13093588.253   -39446003.802 7 -30472404.386 3
  13822107.800   -44440796.290 7 -34116652.357 4
  14266179.769   -38849905.804 6 -28741246.381 3
  14330143.409   -28455679.395 7 -20610152.095 3
  16667170.511    -4869587.043 5  -2447456.390 1
  16114311.487   -38896810.935 5 -30179237.805 1
 95 12 29  6  8 59.9750000  0  6 24 04 09 05 20 07
  13077735.847   -39529305.809 7 -30537315.033 3
  13821639.112   -44443247.710 7 -34118562.558 4
  14263885.698   -38861950.228 6 -28750631.658 3
  14305437.933   -28585506.749 7 -20711316.264 3
  16637326.808    -5026422.012 5  -2569665.473 1
  16115957.464   -38888161.215 5 -30172497.775 1
 95 12 29  6  9 29.9750000  0  6 24 04 09 05 20 07
  13061983.339   -39612086.732 7 -30601819.636 3
  13821265.823   -44445230.841 7 -34120107.853 4
  14261688.120   -38873496.670 6 -28759628.889 3
  14280781.253   -28715080.255 7 -20812282.639 3
  16607491.761    -5183198.607 5  -2691829.058 1
  16117611.073   -38879475.661 5 -30165729.813 1
 95 12 29  6  9 59.9750000  0  6 24 04 09 05 20 07
  13046333.987   -39694332.558 7 -30665907.286 3
  13820975.214   -44446749.503 7 -34121291.227 4
  14259583.839   -38884546.037 6 -28768238.800 3
  14256175.058   -28844390.936 7 -20913044.203 3
  16577669.120    -5339911.888 5  -2813943.321 1
  16119263.878   -38870790.448 5 -30158962.130 1
 95 12 29  6 10 29.9750000  0  7 24 04 09 05 20 07 16
  13030784.855   -39776036.509 7 -30729572.692 3
  13820771.019   -44447821.563 7 -34122126.602 4
  14257576.237   -38895104.806 6 -28776466.419 3
  14231614.941   -28973446.338 7 -21013606.856 3
  16547859.409    -5496570.772 5  -2936015.170 1
  16120909.667   -38862138.156 5 -30152220.106 1
  17370123.487          -0.93013
 95 12 29  6 10 59.9750000  0  7 24 04 09 05 20 07 16
  13015338.620   -39857217.466 7 -30792830.574 3
  13820646.808   -44448479.688 7 -34122639.423 4
  14255656.597   -38905209.334 6 -28784340.081 3
  14207099.917   -29102277.620 7 -21113994.865 3
  16518049.316    -5653198.419 4  -3058062.684 1
  16122543.386   -38853529.759 5 -30145512.275 1
  17341395.612     -150967.246 3
 95 12 29  6 11 29.9750000  0  7 24 04 09 05 20 07 16
  12999991.878   -39937858.557 7 -30855667.780 3
  13820595.331   -44448747.197 7
  14253820.011   -38914862.561 6 -28791862.093 3
  14182625.964   -29230895.409 7 -21214216.519 3
  16488250.745    -5809787.020 4  -3180079.781 1
  16124181.519   -38844942.172 5 -30138820.658 1
  17312644.433     -302033.674 3
 95 12 29  6 11 59.9750000  0  7 24 04 09 05 20 07 16
  12984748.011   -40017962.772 7 -30918086.639 3
  13820611.862   -44448639.362 7
  14252069.769   -38924060.647 6 -28799029.440 3
  14158186.511   -29359316.063 7 -21314284.554 3
  16458463.667    -5966339.666 4  -3302068.854 1
  16125816.628   -38836350.885 5 -30132126.158 1
  17283876.308     -453217.026 2
 95 12 29  6 12 29.9750000  0  7 24 04 09 05 20 07 16
  12969612.253   -40097505.540 7 -30980068.011 3
  13820709.456   -44448139.892 7
  14250405.152   -38932802.541 6 -28805841.307 3
  14133790.261   -29487522.016 7 -21414185.298 3
  16428686.292    -6122827.568 4  -3424007.489 1
  16127464.198   -38827699.777 5 -30125385.050 1
  17255088.589     -604520.511 3
 95 12 29  6 12 59.9750000  0  7 24 04 09 05 20 07 16
  12954582.987   -40176481.649 7 -31041607.827 3
  13820879.644   -44447241.046 7 -34121674.241 4
  14248829.011   -38941082.800 6 -28812293.467 3
  14109436.628   -29615499.658 7 -21513908.131 3
  16398918.245    -6279244.227 4  -3545890.596 1
  16129128.573   -38818955.749 5 -30118571.533 1
  17226276.284     -755930.323 3
 95 12 29  6 13 29.9750000  0  7 24 04 09 05 20 07 16
  12939656.816   -40254917.758 7 -31102726.864 3
  13821124.995   -44445957.694 7 -34120674.220 4
  14247343.511   -38948904.692 6 -28818388.456 3
  14085126.198   -29743254.280 7 -21613457.184 3
  16369165.159    -6435602.651 4  -3667728.320 1
  16130803.636   -38810150.706 5 -30111710.470 1
  17197443.112     -907439.297 3
 95 12 29  6 13 59.9750000  0  7 24 04 09 05 20 07 16
  12924830.737   -40332826.101 7 -31163434.655 3
  13821448.894   -44444259.602 7 -34119351.038 4
  14245939.941   -38956257.023 6 -28824117.550 3
  14060861.995   -29870771.222 7 -21712821.030 3
  16339425.769    -6591902.960 4  -3789520.748 1
  16132492.777   -38801284.275 5 -30104801.580 1
  17168593.878    -1059020.930 3
 95 12 29  6 14 29.9750000  0  7 24 04 09 05 20 07 16
  12910104.612   -40410214.624 7 -31223737.389 3
  13821854.792   -44442124.030 7 -34117686.954 4
  14244628.058   -38963146.027 6 -28829485.609 3
  14036643.386   -29998040.916 7 -21811992.217 3
  16309691.956    -6748148.826 4  -3911270.769 1
  16134182.034   -38792365.374 5 -30097851.803 1
  17139738.433    -1210664.451 3
 95 12 29  6 14 59.9750000  0  7 24 04 09 05 20 07 16
  12895474.198   -40487097.440 7 -31283646.067 3
  13822348.581   -44439535.436 7 -34115669.875 4
  14243407.487   -38969564.843 6 -28834487.295 2
  14012471.487   -30125058.854 7 -21910967.234 3
  16279967.542    -6904340.113 4  -4032978.234 1
  16135886.886   -38783414.852 5 -30090877.375 1
  17110868.277    -1362359.820 3
 95 12 29  6 15 29.9750000  0  7 24 04 09 05 20 07 16
  12880939.620   -40563480.817 7 -31343165.573 3
  13822924.394   -44436493.733 7 -34113299.710 4
  14242271.972   -38975531.913 6 -28839136.969 2
  13988347.527   -30251825.496 7 -22009746.434 3
  16250256.597    -7060480.652 4  -4154646.177 1
  16137595.667   -38774453.041 5 -30083894.170 1
  17081993.534    -1514123.838 3        -0.30811
 95 12 29  6 15 59.9750000  0  7 24 04 09 05 20 07 16
  12866497.487   -40639372.777 7 -31402302.158 3
  13823588.269   -44433012.859 7 -34110587.336 4
  14241218.027   -38981074.045 6 -28843455.529 2
  13964269.636   -30378355.069 7 -22108340.906 3
  16220551.980    -7216591.539 4  -4276291.000 1
  16139301.761   -38765479.671 5 -30076901.949 1
  17053098.566    -1665975.372 3   -118326.122 1
 95 12 29  6 16 29.9750000  0  7 24 04 09 05 20 07 16
  12852154.136   -40714751.680 7 -31461038.954 3
  13824334.230   -44429094.052 7 -34107533.718 4
  14240250.464   -38986176.407 6 -28847431.409 2
  13940242.487   -30504628.013 7 -22206735.400 3
  16190850.456    -7372656.073 5  -4397899.711 1
  16141016.441   -38756486.845 5 -30069894.574 1
  17024182.847    -1817909.094 3   -236715.996 1
 95 12 29  6 16 59.9740000  0  7 24 04 09 05 20 07 16
  12837912.100   -40789594.139 7 -31519357.743 3
  13825158.272   -44424756.038 7 -34104153.451 4
  14239362.912   -38990822.463 6 -28851051.723 2
  13916265.912   -30630623.500 7 -22304913.701 3
  16161167.350    -7528655.552 5  -4519457.733 1
  16142728.889   -38747470.816 5 -30062869.114 1
  16995261.795    -1969903.959 3   -355153.453 1
 95 12 29  6 17 29.9740000  0  7 24 04 09 05 20 07 16
  12823769.264   -40863912.070 7 -31577267.809 3
  13826058.397   -44420041.556 7 -34100479.825 4
  14238563.834   -38995029.180 6 -28854329.681 2
  13892337.779   -30756362.062 7 -22402891.801 3
  16131485.670    -7684615.981 5  -4640985.337 1
  16144450.748   -38738432.214 5 -30055826.058 1
  16966325.233    -2121976.918 3   -473651.832 1
 95 12 29  6 17 59.9740000  0  7 24 04 09 05 20 07 16
  12809728.772   -40937699.650 7 -31634764.619 3
  13827024.100   -44414960.249 7 -34096520.357 4
  14237846.678   -38998780.291 6 -28857252.634 2
  13868462.139   -30881833.442 7 -22500661.707 3
  16101822.240    -7840516.147 5  -4762465.971 1
  16146179.272   -38729352.915 5 -30048751.302 1
  16937376.194    -2274097.596 3   -592187.405 1
 95 12 29  6 18 29.9740000  0  7 24 04 09 05 20 07 16
  12795792.162   -41010935.820 7 -31691831.757 3
  13828059.022   -44409507.577 7 -34092271.518 4
  14237222.959   -39002073.313 6 -28859818.631 2
  13844638.936   -31007023.515 7 -22598212.417 3
  16072170.514    -7996325.707 5  -4883876.013 1
  16147916.131   -38720233.109 5 -30041644.984 1
  16908419.951    -2426259.413 3   -710755.012 1
 95 12 29  6 18 59.9740000  0  7 24 04 09 05 20 07 16
  12781960.162   -41083617.819 7 -31748467.072 3
  13829168.873   -44403684.957 7 -34087734.410 4
  14236677.092   -39004926.915 6 -28862042.222 2
  13820870.381   -31131935.096 7 -22695546.109 3
  16042543.256    -8152038.637 5  -5005210.753 1
  16149654.850   -38711061.114 5 -30034497.988 1
  16879462.240    -2578451.200 3   -829345.984 1
 95 12 29  6 19 29.9740000  0  7 24 04 09 05 20 07 16
  12768233.561   -41155759.508 7 -31804681.366 3
  13830348.967   -44397487.212 7 -34082904.985 4
  14236217.959   -39007353.541 6 -28863933.109 2
  13797152.037   -31256575.323 7 -22792668.363 3
  16012925.858    -8307663.034 5  -5126476.507 1
  16151414.326   -38701839.954 5 -30027312.675 1
  16850489.053    -2730674.226 3   -947961.308 1
 95 12 29  6 19 59.9740000  0  7 24 04 09 05 20 07 16
  12754605.053   -41227379.052 7 -31860488.798 3
  13831600.381   -44390910.934 7 -34077780.609 4
  14235833.561   -39009369.686 6 -28865504.129 2
  13773482.342   -31380962.936 7 -22889593.774 3
  15983322.865    -8463213.290 5  -5247684.501 1
  16153168.295   -38692598.474 5 -30020111.545 1
  16821519.045    -2882945.784 3  -1066614.444 1
 95 12 29  6 20 29.9740000  0  7 24 04 09 05 20 07 16
  12741077.225   -41298464.680 7 -31915880.190 3
  13832928.037   -44383936.082 7 -34072345.656 4
  14235532.225   -39010959.729 6 -28866743.144 2
  13749859.467   -31505089.173 7 -22986315.504 3
  15953738.412    -8618688.522 5  -5368834.021 1
  16154933.264   -38683338.014 5 -30012895.622 1
  16792529.897    -3035260.096 3  -1185300.935 1
 95 12 29  6 20 59.9740000  0  7 24 04 09 05 20 07 16
  12727647.944   -41369032.941 7 -31970868.442 3
  13834331.256   -44376563.164 7 -34066600.521 4
  14235317.303   -39012093.483 6 -28867626.616 2
  13726291.358   -31628947.007 7 -23082828.117 3
  15924167.131    -8774095.074 5  -5489930.045 1
  16156700.334   -38674043.265 5 -30005652.980 1
  16763541.647    -3187604.105 4  -1304010.557 1
 95 12 29  6 21 29.9740000  0  7 24 04 09 05 20 07 16
  12714313.772   -41439104.766 7 -32025469.853 3
  13835806.467   -44368815.145 7 -34060563.099 4
  14235183.233   -39012778.095 6 -28868160.075 2
  13702772.592   -31752543.850 7 -23179137.346 3
  15894606.623    -8929434.865 5  -5610974.039 1
  16158467.975   -38664735.586 5 -29998400.260 1
  16734542.319    -3339998.341 4  -1422759.322 1
 95 12 29  6 21 59.9740000  0  7 24 04 09 05 20 07 16
  12701075.319   -41508674.847 7 -32079680.295 3
  13837348.920   -44360696.518 7 -34054236.894 4
  14235139.350   -39013016.374 6
  13679304.069   -31875871.157 7 -23275236.544 3
  15865063.772    -9084693.198 5  -5731954.549 1
  16160249.154   -38655402.957 5 -29991128.096 1
  16705530.350    -3492449.594 4  -1541552.504 1
 95 12 29  6 22 29.9740000  0  7 24 04 09 05 20 07 16
  12687932.897   -41577736.239 7 -32133494.358 3
  13838963.084   -44352220.082 7 -34047631.875 4
  14235174.904   -39012817.214 6
  13655889.233   -31998916.884 7 -23371116.333 3
  15835532.326    -9239867.362 5  -5852869.475 1
  16162031.272   -38646035.692 5 -29983828.961 1
  16676506.904    -3644964.268 5  -1660395.100 1
 95 12 29  6 22 59.9740000  0  7 24 04 09 05 20 07 16
  12674888.733   -41646291.022 7 -32186913.657 3
  13840642.162   -44343396.903 7 -34040756.669 4
  14235287.295   -39012218.441 6 -28867723.955 2
  13632527.029   -32121676.082 7 -23466772.851 3
  15806019.881    -9394950.764 5  -5973713.707 1
  16163820.225   -38636626.994 5 -29976497.523 1
  16647479.475    -3797547.987 5  -1779291.545 1
 95 12 29  6 23 29.9740000  0  7 24 04 09 05 20 07 16
  12661940.381   -41714321.782 7 -32239924.631 3
  13842389.522   -44334211.806 7
  14235475.686   -39011249.708 6 -28866969.104 2
  13609223.576   -32244146.125 7 -23562204.052 3
  15776527.147    -9549942.160 5  -6094486.226 1
  16165615.311   -38627179.462 5
  16618425.092    -3950194.049 5  -1898236.563 1
 95 12 29  6 23 59.9740000  0  7 24 04 09 05 20 07 16
  12649093.397   -41781841.709 7 -32292537.558 3
  13844207.061   -44324663.811 7 -34026159.444 4
  14235726.092   -39009924.733 6 -28865936.659 2
  13585968.069   -32366346.745 7 -23657425.315 3
  15747044.287    -9704885.866 5  -6215221.581 1
  16167413.319   -38617723.802 5
  16589364.803    -4102914.185 5  -2017239.283 1
 95 12 29  6 24 29.9740000  0  7 24 04 09 05 20 07 16
  12636345.850   -41848829.771 7 -32344736.039 3
  13846098.404   -44314721.671 7 -34018412.320 4
  14236052.686   -39008209.717 6 -28864600.282 2
  13562769.756   -32488263.308 7 -23752425.233 3
  15717568.936    -9859761.557 5  -6335903.944 1
  16169225.154   -38608243.205 5        -0.33711
  16560294.045    -4255670.783 5  -2136270.400 1
 95 12 29  6 24 59.9740000  0  7 24 04 09 05 20 07 16
  12623696.381   -41915305.610 7 -32396535.390 3
  13848064.592   -44304398.667 7 -34010368.415 4
  14236455.944   -39006097.703 6 -28862954.562 2
  13539620.803   -32609908.177 7 -23847213.438 4
  15688110.912   -10014575.652 5  -6456538.302 1
  16171027.240   -38598752.938 5      7394.667 1
  16531222.733    -4408449.485 5  -2255318.767 1
 95 12 29  6 25 29.9740000  0  7 24 04 09 05 20 07 16
  12611144.897   -41981253.732 7 -32447923.526 3
  13850101.779   -44293686.372 7 -34002021.165 4
  14236939.654   -39003547.805 6 -28860967.638 2
  13516526.600   -32731264.726 7 -23941776.986 4
  15658665.311   -10169303.504 5  -6577105.446 1
  16172838.326   -38589247.816 5     14801.243 1
  16502151.678    -4561215.314 4  -2374357.054 1
 95 12 29  6 25 59.9740000  0  7 24 04 09 05 20 07 16
  12598694.201   -42046689.948 7 -32498912.786 3
  13852208.795   -44282615.922 7 -33993394.835 4
  14237508.061   -39000560.430 6 -28858639.830 2
  13493487.498   -32852335.068 7 -24036117.511 3
  15629244.576   -10323929.860 5  -6697593.526 1
  16174645.569   -38579731.726 5     22216.367 1
  16473083.584    -4713972.617 4  -2493388.748 1
 95 12 29  6 26 29.9740000  0  7 24 04 09 05 20 07 16
  12586337.147   -42111629.949 7 -32549515.379 3
  13854376.319   -44271227.444 7 -33984520.688 4
  14238154.615   -38997163.219 6 -28855992.659 2
  13470504.483   -32973112.156 7 -24130229.519 4
  15599840.865   -10478432.495 5  -6817985.198 1
  16176460.498   -38570191.743 5     29650.116 1
  16444016.686    -4866718.809 5  -2612411.775 1
 95 12 29  6 26 59.9740000  0  7 24 04 09 05 20 07 16
  12574074.389   -42176066.597 7 -32599725.743 3
  13856599.201   -44259529.506 7 -33975405.415 4
  14238879.381   -38993368.501 6 -28853035.737 2
  13447582.686   -33093572.462 7 -24224094.696 4
  15570468.701   -10632803.059 5  -6938273.924 1
  16178283.686   -38560622.217 5     37106.884 1
  16414950.779    -5019456.037 5  -2731427.792 1
 95 12 29  6 27 29.9740000  0  7 24 04 09 05 20 07 16
  12561910.639   -42239985.854 7 -32649532.949 3
  13858890.092   -44247509.603 7 -33966039.248 3
  14239674.162   -38989190.369 6 -28849780.058 2
  13424721.944   -33213710.246 7 -24317708.551 4
  15541116.569   -10787029.907 5  -7058450.688 1
  16180112.631   -38551011.777 5     44595.520 1
  16385887.858    -5172188.931 5  -2850440.521 1
 95 12 29  6 27 59.9740000  0  7 24 04 09 05 20 07 16
  12549846.592   -42303383.400 7 -32698933.632 3
  13861240.748   -44235146.243 7 -33956405.466 3
  14240545.014   -38984624.623 6 -28846222.342 2
  13401922.139   -33333515.658 7 -24411063.422 4
  15511793.897   -10941124.129 5  -7178524.106 1
  16181955.545   -38541340.899 5     52131.257 1
  16356824.076    -5324918.418 4  -2969450.517 1
 95 12 29  6 28 29.9740000  0  7 24 04 09 05 20 07 16
  12537879.678   -42366265.939 7 -32747933.004 3
  13863659.162   -44222439.993 7 -33946504.485 3
  14241484.740   -38979675.967 6 -28842366.253 2
  13379184.756   -33453009.621 7 -24504175.601 4
  15482490.381   -11095112.635 5  -7298515.152 1
  16183804.686   -38531622.812 5     59703.759 1
  16327754.990    -5477671.056 4  -3088478.596 1
 95 12 29  6 28 59.9740000  0  8 24 04 09 06 05 20 07 16
  12526014.444   -42428623.945 7 -32796523.655 3
  13866145.920   -44209377.419 7 -33936325.856 3
  14242502.779   -38974332.313 6 -28838202.380 2
  17555298.194          -0.95412
  13356500.795   -33572204.020 7 -24597054.351 4
  15453206.733   -11248995.111 5  -7418423.570 1
  16185658.811   -38521868.856 5     67304.238 1
  16298684.092    -5630449.483 4  -3207526.728 1
 95 12 29  6 29 29.9740000  0  8 24 04 09 06 05 20 07 16
  12514244.498   -42490477.830 7 -32844721.483 3
  13868694.459   -44195969.580 7 -33925878.188 3
  14243594.178   -38968599.259 6 -28833735.070 2
  17530589.951     -129839.731 2
  13333874.084   -33691117.830 7 -24689714.459 4
  15423945.498   -11402782.108 5  -7538257.602 1
  16187523.654   -38512098.406 5     74917.559 1
  16269608.256    -5783243.176 4  -3326586.791 1
 95 12 29  6 29 59.9740000  0  8 24 04 09 06 05 20 07 16
  12502571.053   -42551822.900 7 -32892522.828 3
  13871313.475   -44182219.012 7 -33915163.461 3
  14244761.358   -38962463.077 6 -28828953.631 2
  17505892.529     -259649.815 2
  13311300.451   -33809733.728 7 -24782142.432 4
  15394700.108   -11556465.661 5  -7658011.016 1
  16189385.358   -38502303.872 5     82549.642 1
  16240533.061    -5936037.509 4  -3445647.301 1
 95 12 29  6 30 29.9730000  0  8 24 04 09 06 05 20 07 16
  12490990.204   -42612674.856 7 -32939939.935 3
  13873989.837   -44168150.932 7 -33904201.323 3
  14246000.837   -38955947.242 6 -28823876.366 2
  17481195.462     -389424.790 3
  13288788.236   -33928044.006 7 -24874332.261 4
  15365477.040   -11710031.068 5  -7777672.378 1
  16191246.821   -38492503.649 5     90186.166 1
  16211457.181    -6088830.515 4  -3564706.761 1
 95 12 29  6 30 59.9730000  0  8 24 04 09 06 05 20 07 16
  12479505.173   -42673031.363 7 -32986970.969 3
  13876728.673   -44153760.495 7 -33892988.000 3
  14247310.236   -38949060.153 6 -28818509.805 2
  17456511.806     -519159.886 3
  13266334.556   -34046033.797 7 -24966272.353 4
  15336277.907   -11863473.875 5  -7897238.203 1
  16193115.806   -38482689.264 5     97833.725 1
  16182388.712    -6241588.654 4  -3683739.049 1
 95 12 29  6 31 29.9730000  0  8 24 04 09 06 05 20 07 16
  12468115.384   -42732885.506 7 -33033610.557 3
  13879531.212   -44139036.910 7 -33881515.075 3
  14248689.407   -38941805.735 6 -28812857.023 2
  17431828.439     -648845.206 2
  13243947.400   -34163685.388 7 -25057948.918 4
  15307101.759   -12016796.993 5  -8016710.757 1
  16194994.782   -38472843.229 5    105505.954 1
  16153326.853    -6394291.755 4  -3802728.466 1
 95 12 29  6 31 59.9730000  0  8 24 04 09 06 05 20 07 16
  12456819.564   -42792242.910 7 -33079863.070 3
  13882392.282   -44123993.951 7 -33869793.291 3
  14250135.134   -38934207.710 6 -28806936.507 2
  17407161.126     -778489.528 3        -0.05111
  13221621.243   -34281012.760 7 -25149372.839 4
  15277945.306   -12170011.521 5  -8136098.691 1
  16196867.384   -38462963.854 5    113204.156 1
  16124274.384    -6546971.372 4  -3921699.554 1
 95 12 29  6 32 29.9730000  0  8 24 04 09 06 05 20 07 16
  12445619.564   -42851096.285 7 -33125722.838 3
  13885315.376   -44108632.419 7 -33857823.268 3
  14251647.525   -38926269.413 6 -28800750.840 2
  17382496.103     -908089.770 3   -100987.226 1
  13199355.712   -34398014.769 7 -25240543.233 4
  15248813.267   -12323106.232 5  -8255393.268 1
  16198759.603   -38453048.227 5    120930.617 1
  16095226.173    -6699615.238 5  -4040642.814 1
 95 12 29  6 32 59.9730000  0  8 24 04 09 06 05 20 07 16
  12434521.470   -42909431.061 7 -33171178.499 3
  13888298.298   -44092960.597 7 -33845611.461 3
  14253222.564   -38917992.657 6 -28794301.441 2
  17357837.665    -1037672.989 3   -201961.219 1
  13177147.650   -34514713.843 7 -25331477.575 4
  15219699.767   -12476090.991 5  -8374602.166 1
  16200657.603   -38443093.790 5    128687.302 1
  16066188.251    -6852219.553 5  -4159555.253 1
 95 12 29  6 33 29.9730000  0  8 24 04 09 06 05 20 07 16
  12423517.040   -42967244.435 7 -33216227.879 3
  13891337.439   -44076989.826 7 -33833166.707 3
  14254862.743   -38909365.879 6 -28787579.296 2
  17333185.079    -1167247.810 3   -302928.523 1
  13154999.556   -34631102.452 7 -25422169.999 4
  15190607.876   -12628972.468 5  -8493730.582 1
  16202550.298   -38433096.441 5    136477.436 1
  16037153.782    -7004798.214 5  -4278447.703 1
 95 12 29  6 33 59.9730000  0  8 24 04 09 06 05 20 07 16
  12412613.173   -43024551.596 7 -33260882.805 3
  13894428.134   -44060751.426 7 -33820513.414 3
  14256569.720   -38900389.784 6 -28780584.951 2
  17308521.337    -1296828.006 3   -403900.136 1
  13132910.134   -34747188.384 7 -25512626.565 4
  15161538.032   -12781747.726 5
  16204458.298   -38423076.038 5    144285.542 1
  16008121.665    -7157368.264 5
 95 12 29  6 34 29.9730000  0  8 24 04 09 06 05 20 07 16
  12401806.900   -43081338.251 7 -33305132.137 3
  13897570.642   -44044227.341 7 -33807637.507 3
  14258349.939   -38891042.647 6 -28773301.489 2
  17283866.275    -1426393.843 3   -504860.469 1
  13110884.196   -34862938.931 7 -25602821.797 4
  15132486.845   -12934401.039 5
  16206384.196   -38413020.065 5    152121.345 1
  15979095.423    -7309900.328 5
 95 12 29  6 34 59.9730000  0  8 24 04 09 06 05 20 07 16
  12391098.337   -43137610.741 7 -33348980.829 3
  13900775.103   -44027404.825 7 -33794529.056 3
  14260201.454   -38881317.424 6 -28765723.407 2
  17259217.626    -1555934.737 2   -605801.378 1
  13088920.861   -34978346.646 7 -25692749.884 4
  15103461.892   -13086938.483 5
  16208298.634   -38402921.655 4    159990.229 1
  15950075.361    -7462402.935 5
 95 12 29  6 35 29.9730000  0  8 24 04 09 06 05 20 07 16
  12380484.462   -43193387.355 7 -33392443.112 3
  13904033.478   -44010268.367 7 -33781175.977 3
  14262124.032   -38871210.671 6
  17234575.259    -1685425.988 3   -706703.580 1
  13067026.900   -35093400.430 7 -25782402.175 4
  15074457.923   -13239347.762 5
  16210216.673   -38392792.958 4
  15921057.626    -7614890.119 5
 95 12 29  6 35 59.9730000  0  8 24 04 09 06 05 20 07 16
  12369960.931   -43248688.013 7 -33435534.528 3
  13907357.384   -43992807.434 7 -33767570.058 3
  14264117.978   -38860738.940 6 -28749688.261 2
  17209938.931    -1814869.892 2   -807568.931 1
  13045198.220   -35208117.047 7 -25871791.750 4
  15045483.454   -13391618.946 5  -9088000.514 1
  16212151.353   -38382649.507 3    175786.662 1
  15892038.751    -7767375.372 5  -4872663.586 1
 95 12 29  6 36 29.9730000  0  8 24 04 09 06 05 20 07 16
  12359526.853   -43303522.746 7 -33478262.888 3
  13910743.626   -43975010.869 7 -33753702.613 3
  14266174.759   -38849927.726 6 -28741263.943 2
  17185319.454    -1944272.212 3   -908401.810 1
  13023429.642   -35322507.599 7 -25960927.242 4
  15016530.407   -13543754.595 5  -9206547.772 1
  16214087.126   -38372491.961 3    183701.590 1
  15863022.907    -7919856.584 5  -4991480.072 1
 95 12 29  6 36 59.9730000  0  8 24 04 09 06 05 20 07 16
  12349182.454   -43357878.096 7 -33520617.699 3
  13914193.251   -43956868.531 7 -33739565.725 3
  14268300.298   -38838764.762 6 -28732565.552 2
  17160706.611    -2073626.812 2  -1009197.562 1
  13001723.025   -35436576.882 7 -26049812.394 4
  14987612.150   -13695727.910 5  -9324968.537 1
  16216018.556   -38362305.965 3    191638.680 1
  15834009.243    -8072323.632 5  -5110285.550 1
 95 12 29  6 37 29.9730000  0  8 24 04 09 06 05 20 07 16
  12338930.462   -43411751.530 7 -33562596.991 3
  13917711.181   -43938398.837 7 -33725173.761 3
  14270485.040   -38827261.137 6 -28723601.696 2
  17136089.743    -2202952.638 2  -1109970.869 1
  12980078.767   -35550322.583 7 -26138445.407 4
  14958725.275   -13847530.822 5  -9443256.522 1
  16217974.525   -38352092.505 3    199597.182 1
  15804999.946    -8224768.335 5  -5229073.612 1
 95 12 29  6 37 59.9730000  0  7 24 04 09 05 20 07 16
  12328771.892   -43465138.749 7 -33604197.418 3
  13921281.103   -43919630.764 7 -33710549.290 3
  14272739.134   -38815432.317 6 -28714384.442 2
  12958495.423   -35663743.853 7 -26226825.615 4
  14929867.884   -13999173.126 5  -9561419.351 1
  16219909.181   -38341840.834 3    207585.455 1
  15776002.361    -8377169.695 5  -5347827.906 1
 95 12 29  6 38 29.9730000  0  7 24 04 09 05 20 07 16
  12318706.142   -43518035.195 7 -33645415.419 3
  13924904.720   -43900595.800 7 -33695716.853 3
  14275048.728   -38803287.990 6 -28704921.352 2
  12936973.478   -35776835.560 7 -26314949.024 4
  14901038.337   -14150666.445 5  -9679466.091 1
  16221874.431   -38331554.761 3    215600.557 1
  15747008.407    -8529519.656 5  -5466542.156 1
 95 12 29  6 38 59.9730000  0  7 24 04 09 05 20 07 16
  12308734.212   -43570435.518 7 -33686246.828 3
  13928573.196   -43881310.711 7 -33680689.515 3
  14277425.384   -38790815.861 6 -28695202.823 2
  12915520.884   -35889569.351 7 -26402793.528 4
  14872240.509   -14302001.637 6  -9797389.603 1
  16223832.665   -38321237.071 3    223640.289 1
  15718032.454    -8681799.781 5  -5585201.968 1
 95 12 29  6 39 29.9730000  0  7 24 04 09 05 20 07 16
  12298857.204   -43622343.350 7 -33726694.486 3
  13932291.681   -43861779.348 7 -33665470.279 3
  14279858.493   -38778021.505 6 -28685233.201 2
  12894140.384   -36001932.137 7 -26490348.942 4
  14843472.571   -14453173.241 6  -9915185.652 1
  16225804.571   -38310894.052 3    231699.759 1
  15689074.243    -8833979.659 5  -5703783.675 1
 95 12 29  6 39 59.9730000  0  7 24 04 09 05 20 07 16
  12289071.939   -43673768.760 7 -33766766.224 3
  13936056.587   -43841986.896 7 -33650047.584 3
  14282352.634   -38764909.012 6 -28675015.682 2
  12872830.798   -36113912.070 7 -26577606.035 4
  14814737.946   -14604180.165 6 -10032853.381 1
  16227778.743   -38300528.724 4    239776.613 1
  15660134.275    -8986042.976 5  -5822274.544 1
 95 12 29  6 40 29.9730000  0  7 24 04 09 05 20 07 16
  12279374.806   -43724721.560 7 -33806469.703 3
  13939873.282   -43821929.911 7 -33634418.768 3
  14284909.478   -38751477.172 6 -28664549.322 2
  12851591.939   -36225521.353 7 -26664574.306 4
  14786035.790   -14755020.834 6 -10150391.562 1
  16229755.657   -38290148.002 4    247865.481 1
  15631218.001    -9138005.449 5  -5940686.839 1
 95 12 29  6 40 59.9730000  0  7 24 04 09 05 20 07 16
  12269769.446   -43775200.533 7 -33845803.961 3
  13943741.814   -43801594.268 7 -33618572.814 3
  14287528.931   -38737719.320 6 -28653828.914 2
  12830423.548   -36336760.853 7 -26751254.432 4
  14757362.603   -14905689.484 6 -10267795.686 1
  16231739.634   -38279742.166 5    255973.898 1
  15602320.314    -9289858.746 5  -6059014.069 1
 95 12 29  6 41 29.9730000  0  7 24 04 09 05 20 07 16
  12260254.446   -43825201.902 7 -33884766.060 3
  13947670.345   -43780969.272 7 -33602501.390 3
  14290207.392   -38723636.445 6 -28642855.257 2
  12809324.806   -36447637.858 7 -26837652.100 4
  14728720.243   -15056200.278 6 -10385076.825 1
  16233718.720   -38269304.983 5    264106.734 1
  15573442.275    -9441611.196 5  -6177262.712 1
 95 12 29  6 41 59.9730000  0  7 24 04 09 05 20 07 16
  12250831.782   -43874715.837 7 -33923348.345 3
  13951648.501   -43760054.624 7 -33586204.266 3
  14292946.954   -38709229.073 6 -28631628.741 2
  12788293.884   -36558158.947 7 -26923772.422 4
  14700108.228   -15206557.659 6 -10502238.416 1
  16235722.267   -38258822.354 5    272275.001 1
  15544579.486    -9593294.447 5  -6295457.427 1
 95 12 29  6 42 29.9730000  0  7 24 04 09 05 20 07 16
  12241502.736   -43923736.055 7 -33961545.912 3
  13955678.946   -43738872.755 7 -33569698.913 3
  14295753.978   -38694495.788 6 -28620148.269 1
  12767329.900   -36668326.871 7 -27009617.557 4
  14671523.759   -15356769.206 6 -10619286.362 1
  16237716.884   -38248303.448 5    280471.532 1
  15515724.564    -9744922.635 5  -6413609.239 1
 95 12 29  6 42 59.9730000  0  7 24 04 09 05 20 07 16
  12232270.064   -43972252.810 7 -33999351.177 3
  13959762.517   -43717412.745 7 -33552976.837 3
  14298619.579   -38679438.501 6 -28608415.321 2
  12746434.509   -36778128.469 7 -27095177.243 4
  14642968.657   -15506833.680 6 -10736219.709 1
  16239723.728   -38237736.176 5    288705.756 1
  15486885.462    -9896475.587 5  -6531702.431 1
 95 12 29  6 43 29.9730000  0  7 24 04 09 05 20 07 16
  12223135.306   -44020263.283 7 -34036761.928 3
  13963899.775   -43695671.004 7 -33536035.218 3
  14301544.954   -38664065.415 6 -28596436.284 1
  12725610.939   -36887550.981 7 -27180441.534 4
  14614445.196   -15656732.694 6 -10853024.124 1
  16241755.384   -38227105.230 5    296989.585 1
  15458061.361   -10047958.409 5  -6649740.964 1
 95 12 29  6 43 59.9720000  0  7 24 04 09 05 20 07 16
  12214093.113   -44067778.005 7 -34073786.383 3
  13968084.817   -43673671.797 7 -33518892.981 3
  14304525.004   -38648393.484 6 -28584224.386 1
  12704861.528   -36996599.137 7 -27265414.125 4
  14585953.067   -15806455.580 6 -10969691.295 1
  16243787.449   -38216418.378 5    305316.987 1
  15429243.317   -10199373.159 5  -6767726.483 1
 95 12 29  6 44 29.9720000  0  7 24 04 09 05 20 07 16
  12205145.520   -44114797.779 7 -34110425.162 3
  13972323.184   -43651409.864 7 -33501546.023 3
  14307562.606   -38632422.119 6 -28571779.160 1
  12684181.465   -37105269.992 7 -27350092.708 4
  14557494.051   -15956007.841 6 -11086225.518 1
  16245832.684   -38205672.333 5    313690.540 1
  15400447.895   -10350703.016 5  -6885645.826 1
 95 12 29  6 44 59.9720000  0  7 24 04 09 05 20 07 16
  12196293.754   -44161318.628 7 -34146675.172 3
  13976609.895   -43628879.020 7 -33483989.523 3
  14310657.778   -38616164.998 6 -28559111.287 2
  12663576.113   -37213552.779 7 -27434468.903 4
  14529073.903   -16105355.162 6 -11202600.040 1
  16247889.121   -38194860.341 5    322115.482 1
  15371669.504   -10501941.110 5  -7003493.675 1
 95 12 29  6 45 29.9720000  0  8 24 04 09 06 05 20 07 16
  12187530.871   -44207365.713 7 -34182556.011 3
  13980945.488   -43606106.527 7 -33466244.723 2
  14313801.481   -38599646.117 6 -28546239.458 2
  16742962.215          -0.22813
  12643041.528   -37321461.283 7 -27518553.457 4
  14500690.801   -16254506.360 6 -11318821.735 1
  16249947.512   -38184023.686 5    330559.616 1
  15342902.317   -10653109.952 5  -7121287.567 1
 95 12 29  6 45 59.9720000  0  8 24 04 09 06 05 20 07 16
  12178860.918   -44252921.722 7 -34218054.202 3
  13985328.879   -43583063.861 7 -33448289.406 3
  14317000.129   -38582834.465 6 -28533139.479 1
  16718426.246     -128951.239 3
  12622582.106   -37428977.429 7 -27602332.273 4
  14472348.035   -16403456.179 6 -11434886.523 1
  16252017.668   -38173165.743 5    339020.289 1
  15314155.590   -10804170.144 5  -7238996.805 1
 95 12 29  6 46 29.9720000  0  8 24 04 09 06 05 20 07 16
  12170280.278   -44298015.648 7 -34253192.322 3
  13989764.629   -43559758.064 7 -33430129.049 3
  14320250.754   -38565754.724 6 -28519830.610 1
  16693896.496     -257882.862 3        -0.16111
  12602193.137   -37536124.757 7 -27685823.693 4
  14444037.004   -16552223.865 6 -11550809.384 1
  16254087.903   -38162317.095 5    347473.783 1
  15285429.496   -10955136.176 5  -7356632.649 1
 95 12 29  6 46 59.9720000  0  8 24 04 09 06 05 20 07 16
  12161785.684   -44342656.393 7 -34287977.316 3
  13994249.863   -43536187.172 7 -33411762.119 2
  14323554.488   -38548395.562 6 -28506303.997 1
  16669354.973     -386797.457 3   -100453.094 1
  12581876.574   -37642896.371 7 -27769022.353 4
  14415764.809   -16700801.888 6 -11666584.455 1
  16256143.699   -38151478.462 5    355919.450 1
  15256721.621   -11105998.440 5  -7474187.653 1
 95 12 29  6 47 29.9720000  0  8 24 04 09 06 05 20 07 16
  12153376.973   -44386846.922 7 -34322411.486 3
  13998786.746   -43512342.800 7 -33393182.097 2
  14326915.192   -38530728.279 6 -28492537.290 1
  16644829.887     -515683.163 3   -200883.525 1
  12561629.668   -37749283.416 7 -27851921.354 4
  14387524.621   -16849203.097 6 -11782221.739 1
  16258210.254   -38140634.838 5    364369.019 1
  15228038.559   -11256731.634 5  -7591642.073 1
 95 12 29  6 47 59.9720000  0  8 24 04 09 06 05 20 07 16
  12145053.785   -44430579.382 7 -34356488.724 3
  14003375.403   -43488229.585 7 -33374392.579 2
  14330337.653   -38512742.593 6 -28478522.483 1
  16620314.067     -644525.236 3   -301279.930 1
  12541458.707   -37855286.382 7 -27934521.069 4
  14359324.059   -16997410.142 6 -11897707.740 1
  16260277.465   -38129755.291 5    372846.570 1
  15199382.184   -11407319.886 5  -7708983.545 1
 95 12 29  6 48 29.9720000  0  8 24 04 09 06 05 20 07 16
  12136815.707   -44473874.546 7 -34390225.210 3
  14008006.129   -43463890.899 7 -33355427.372 2
  14333818.051   -38494458.706 6 -28464275.312 1
  16595802.793     -773339.081 4   -401654.363 1
  12521357.410   -37960915.654 7 -28016829.591 4
  14331156.106   -17145418.208 6 -12013038.691 1
  16262350.942   -38118842.084 5    381350.352 1
  15170748.762   -11557790.225 5  -7826233.146 1
 95 12 29  6 48 59.9720000  0  8 24 04 09 06 05 20 07 16
  12128665.613   -44516700.679 7 -34423596.223 3
  14012682.137   -43439321.061 6 -33336282.048 2
  14337361.840   -38475840.413 6 -28449767.563 1
  16571295.590     -902107.634 4   -501993.544 1
  12501335.512   -38066134.704 7 -28098818.460 4
  14303036.559   -17293192.221 6 -12128187.261 1
  16264445.199   -38107856.707 4    389910.349 1
  15142144.684   -11708111.994 5  -7943366.976 1
 95 12 29  6 49 29.9720000  0  8 24 04 09 06 05 20 07 16
  12120602.301   -44559068.097 7 -34456609.790 3
  14017394.934   -43414551.220 7 -33316980.875 2
  14340961.699   -38456920.399 6 -28435024.703 1
  16546795.137    -1030846.692 3   -602309.679 1
  12481387.098   -38170956.242 7 -28180497.580 4
  14274959.793   -17440739.421 6 -12243159.093 1
  16266540.379   -38096813.160 4    398515.665 1
  15113560.629   -11858308.997 5  -8060403.573 1
 95 12 29  6 49 59.9720000  0  8 24 04 09 06 05 20 07 16
  12112629.035   -44600974.294 7 -34489263.964 3
  14022143.856   -43389606.327 7 -33297543.298 2
  14344613.707   -38437733.333 6 -28420073.744 1
  16522303.871    -1159568.106 3
  12461515.246   -38275389.059 7 -28261873.801 4
  14246924.965   -17588069.841 6 -12357962.005 1
  16268659.309   -38085728.687 4    407152.862 1
  15084999.379   -12008402.712 5  -8177359.699 1
 95 12 29  6 50 29.9720000  0  8 24 04 09 06 05 20 07 16
  12104746.020   -44642400.350 7 -34521544.003 3
  14026927.653   -43364462.009 7 -33277950.327 2
  14348314.129   -38418271.583 6 -28404908.771 1
  16497818.098    -1288260.438 3        -0.35311
  12441721.051   -38379407.818 7 -28342927.383 4
  14218930.981   -17735182.395 6 -12472595.160 1
  16270776.574   -38074608.564 3    415817.821 1
  15056460.371   -12158374.790 5  -8294221.038 1
 95 12 29  6 50 59.9720000  0  8 24 04 09 06 05 20 07 16
  12096956.551   -44683339.800 7 -34553444.867 3
  14031750.410   -43339114.846 7 -33258199.291 2
  14352063.856   -38398572.760 6 -28389559.042 1
  16473331.371    -1416940.344 3   -100270.422 1
  12422003.684   -38483021.570 7 -28423665.373 4
  14190971.067   -17882100.691 6 -12587076.931 1
  16272892.309   -38063463.889 3    424501.949 1
  15027944.192   -12308219.861 5  -8410983.410 1
 95 12 29  6 51 29.9720000  0  8 24 04 09 06 05 20 07 16
  12089257.153   -44723797.525 7 -34584970.364 3
  14036614.371   -43313551.594 7 -33238279.878 2
  14355855.598   -38378658.284 6 -28374041.275 1
  16448840.910    -1545610.490 3   -200532.853 1
  12402361.449   -38586239.558 7 -28504094.972 4
  14163049.012   -18028841.193 6 -12701420.176 1
  16275020.004   -38052300.617 2    433200.575 1
  14999456.426   -12457935.523 5  -8527644.948 1
 95 12 29  6 51 59.9720000  0  8 24 04 09 06 05 20 07 16
  12081649.535   -44763774.294 7 -34616121.090 3
  14041524.137   -43287752.952 7 -33218177.040 2
  14359684.965   -38358515.758 6 -28358345.782 1
  16424364.301    -1674265.833 3   -300783.764 1
  12382793.949   -38689073.537 7 -28584225.347 4
  14135153.371   -18175411.616 6 -12815630.888 1
  16277140.082   -38041127.420 2    441906.914 1
  14970992.707   -12607514.022 5  -8644199.604 1
 95 12 29  6 52 29.9720000  0  8 24 04 09 06 05 20 07 16
  12074131.606   -44803280.960 7 -34646905.501 3
  14046483.699   -43261692.697 6 -33197870.351 2
  14363566.215   -38338129.381 6 -28342460.287 1
  16399883.418    -1802898.244 3   -401016.840 1
  12363301.629   -38791506.017 7 -28664042.862 4
  14107301.707   -18321782.507 6 -12929686.132 1
  16279283.918   -38029919.569 2    450640.232 1
  14942560.074   -12756935.871 5  -8760632.198 1
 95 12 29  6 52 59.9720000  0  7 24 04 09 06 05 20 16
  12066701.496   -44842326.900 7 -34677330.904 3
  14051491.379   -43235376.453 7 -33177364.194 2
  14367493.692   -38317492.008 6 -28326379.215 1
  16375411.660    -1931507.254 3   -501231.634 1
  12343885.942   -38893536.316 7 -28743546.990 4
  14079488.215   -18467946.674 6 -13043580.279 1
  14914153.215   -12906207.062 5  -8876947.392 1
 95 12 29  6 53 29.9720000  0  7 24 04 09 06 05 20 16
  12059354.785   -44880932.999 7 -34707413.576 3
  14056544.059   -43208821.736 6 -33156672.209 2
  14371471.848   -38296574.603 6 -28310079.953 1
  16350940.246    -2060086.226 2   -601423.051 1
  12324548.199   -38995156.319 7 -28822731.409 4
  14051714.426   -18613892.998 6 -13157304.686 1
  14885774.301   -13055330.640 5  -8993147.584 1
 95 12 29  6 53 59.9720000  0  8 24 04 09 06 05 20 07 16
  12052088.699   -44919115.868 7 -34737166.458 3
  14061638.645   -43182054.413 7 -33135814.561 2
  14375505.973   -38275383.008 6 -28293567.030 1
  16326474.387    -2188633.291 3   -701589.604 1
  12305290.098   -39096355.627 7 -28901588.010 4
  14023983.653   -18759620.899 6 -13270858.893 1
  16285739.824          -0.98412
  14857425.082   -13204313.558 5  -9109238.165 1
 95 12 29  6 54 29.9720000  0  8 24 04 09 06 05 20 07 16
  12044904.223   -44956872.639 7 -34766587.317 3
  14066771.035   -43155085.428 7 -33114799.768 2
  14379590.184   -38253931.443 6 -28276851.531 1
  16302023.457    -2317140.857 3   -801725.356 1
  12286118.223   -39197104.589 7 -28980093.697 4
  13996295.707   -18905121.226 6 -13384235.776 1
  16287914.340       11437.104 3        -0.40711
  14829101.801   -13353147.111 5  -9225212.347 1
 95 12 29  6 54 59.9720000  0  8 24 04 09 06 05 20 07 16
  12037797.910   -44994215.102 7 -34795685.339 3
  14071934.684   -43127954.604 6 -33093658.875 2
  14383713.512   -38232254.398 6 -28259960.344 1
  16277578.637    -2445638.598 2   -901853.460 1
  12267026.770   -39297430.214 7 -29058269.504 4
  13968647.090   -19050425.057 6 -13497459.538 1
  16290104.434       22892.949 3      8926.169 1
  14800804.973   -13501849.013 6  -9341083.956 1
 95 12 29  6 55 29.9720000  0  8 24 04 09 06 05 20 07 16
  12030775.004   -45031117.098 7 -34824440.143 3
  14077130.731   -43100636.681 6 -33072372.185 2
  14387883.074   -38210347.866 6 -28242890.322 1
  16253126.699    -2574102.571 2  -1001955.234 1
  12248022.551   -39397300.562 7 -29136090.550 4
  13941039.660   -19195498.346 6 -13610503.663 1
  16292270.567       34376.134 3     17874.069 1
  14772541.098   -13650377.876 6  -9456820.720 1
 95 12 29  6 55 59.9720000  0  8 24 04 09 06 05 20 07 16
  12023837.465   -45067579.494 7 -34852852.393 3
  14082367.887   -43073122.630 6 -33050932.671 2
  14392089.692   -38188241.851 6 -28225664.867 1
  16228686.106    -2702542.788 2  -1102038.509 1
  12229102.348   -39496727.823 7 -29213566.330 4
  13913476.082   -19340332.547 6 -13723361.479 1
  16294475.590       45892.742 4     26847.986 1
  14744310.668   -13798733.579 6  -9572422.551 1
 95 12 29  6 56 29.9720000  0  8 24 04 09 06 05 20 07 16
  12016982.098   -45103607.864 7 -34880926.449 3
  14087639.809   -43045420.699 6 -33029346.752 2
  14396332.699   -38165948.450 6 -28208293.389 1
  16204246.043    -2830976.569 2  -1202116.778 1
  12210260.801   -39595739.686 7 -29290718.433 4
  13885963.863   -19484919.639 6 -13836026.759 1
  16296669.028       57436.907 4     35843.379 1
  14716106.840   -13946920.906 5  -9687893.186 1
 95 12 29  6 56 59.9720000  0  8 24 04 09 06 05 20 07 16
  12010212.801   -45139177.013 7 -34908642.663 3
  14092948.762   -43017516.289 6 -33007603.061 2
  14400614.082   -38143440.335 6 -28190754.615 1
  16179814.332    -2959393.905 2  -1302182.193 1
  12191498.668   -39694338.204 7 -29367548.447 4
  13858504.879   -19629224.507 6 -13948472.112 1
  16298877.684       69016.806 5     44866.607 1
  14687950.457   -14094911.795 6  -9803210.752 1
 95 12 29  6 57 29.9710000  0  8 24 04 09 06 05 20 07 16
  12003529.648   -45174297.306 7 -34936009.125 3
  14098295.429   -42989415.068 6 -32985706.013 2
  14404939.937   -38120716.430 6 -28173047.693 1
  16155376.234    -3087793.511 2  -1402233.810 1
  12172813.710   -39792524.920 7 -29444057.582 4
  13831096.570   -19773248.236 6 -14060698.398 1
  16301084.195       80638.316 5     53922.308 1
  14659822.882   -14242712.444 6  -9918380.080 1
 95 12 29  6 57 59.9710000  0  8 24 04 09 06 05 20 07 16
  11996931.070   -45208967.701 7 -34963025.017 3
  14103683.280   -42961113.118 6 -32963652.556 2
  14409308.507   -38097754.017 6 -28155154.914 1
  16130953.202    -3216174.163 2  -1502270.682 1
  12154205.398   -39890310.210 7 -29520253.905 4
  13803741.804   -19917000.305 6 -14172713.000 1
  16303309.577       92307.226 5     63014.917 1
  14631730.593   -14390348.371 6 -10033421.043 1
 95 12 29  6 58 29.9710000  0  8 24 04 09 06 05 20 07 16
  11990421.820   -45243177.003 7 -34989681.616 3
  14109101.585   -42932631.212 6 -32941458.865 2
  14413724.249   -38074552.842 6 -28137076.085 1
  16106517.593    -3344541.053 2  -1602296.805 1
  12135675.929   -39987689.146 7 -29596133.593 4
  13776434.234   -20060503.669 6 -14284533.807 1
  16305535.546      104007.383 5     72131.859 1
  14603666.249   -14537823.436 6 -10148336.652 1
 95 12 29  6 58 59.9710000  0  8 24 04 09 06 05 20 07 16
  11983996.796   -45276936.338 7 -35015987.587 3
  14114554.445   -42903969.876 6 -32919125.363 2
  14418182.413   -38051128.950 6 -28118823.717 1
  16082091.702    -3472919.250 3  -1702331.708 1
  12117223.570   -40084652.194 7 -29671689.217 4
  13749170.070   -20203780.306 6 -14396177.949 1
  16307764.968      115731.696 5     81267.628 1
  14575630.484   -14685156.245 6 -10263141.423 1
 95 12 29  6 59 29.9710000  0  8 24 04 09 06 05 20 07 16
  11977656.241   -45310261.406 7 -35041955.175 3
  14120046.085   -42875118.721 6 -32896643.946 2
  14422679.898   -38027482.193 6 -28100397.684 1
  16057660.210    -3601293.127 3  -1802363.281 1
  12098857.296   -40181168.320 7 -29746896.587 4
  13721947.952   -20346831.711 6 -14507646.577 1
  16310005.874      127502.165 5
  14547622.546   -14832338.559 6 -10377828.930 1
 95 12 29  6 59 59.9710000  0  8 24 04 09 06 05 20 07 16
  11971396.405   -45343157.403 7 -35067588.417 3
  14125573.695   -42846072.773 6 -32874010.740 2
  14427222.710   -38003626.407 6 -28081808.766 1
  16033234.304    -3729659.394 3  -1902388.922 1
  12080575.562   -40277235.472 7 -29821754.102 4
  13694772.765   -20489643.758 6 -14618928.700 1
  16312253.452      139322.583 5        -0.43911
  14519646.210   -14979352.004 6 -10492384.842 1
 95 12 29  7  0 29.9710000  0  8 24 04 09 06 05 20 07 16
  11965218.405   -45375626.340 7 -35092888.888 3
  14131138.523   -42816828.855 6 -32851223.271 2
  14431797.874   -37979570.308 6 -28063063.774 1
  16008804.390    -3858019.864 3  -2002410.039 1
  12062382.499   -40372845.100 7 -29896255.110 4
  13667642.296   -20632207.579 6 -14730017.399 1
  16314516.421      151198.066 5
  14491709.257   -15126163.425 6 -10606783.349 1
 95 12 29  7  0 59.9710000  0  8 24 04 09 06 05 20 07 16
  11959113.437   -45407704.619 7 -35117884.948 3
  14136741.179   -42787387.790 6 -32828282.189 2
  14436411.890   -37955324.618 6 -28044171.031 1
  15984387.484    -3986369.664 3  -2102422.831 1
  12044273.109   -40468011.689 7 -29970410.895 4
  13640563.304   -20774522.804 6 -14840912.374 1
  16316778.702      163118.324 5        -0.41711
  14463810.984   -15272771.811 6 -10721023.641 1
 95 12 29  7  1 29.9710000  0  8 24 04 09 06 05 20 07 16
  11953082.827   -45439396.503 7 -35142579.923 3
  14142376.577   -42757764.430 6 -32805199.057 2
  14441063.476   -37930890.802 6 -28025131.702 1
  15959965.070    -4114686.463 4  -2202409.907 1
  12026244.140   -40562753.325 7 -30044235.542 4
  13613527.273   -20916586.767 6 -14951611.573 1
  16319057.812      175074.749 5      9316.263 1
  14435954.265   -15419159.842 6 -10835092.232 1
 95 12 29  7  1 59.9710000  0  8 24 04 09 06 05 20 07 16
  11947131.913   -45470668.610 7 -35166947.788 3
  14148050.757   -42727950.282 6 -32781967.254 2
  14445749.405   -37906254.618 6 -28005934.671 1
  15935555.827    -4242963.589 4  -2302366.094 1
  12008294.765   -40657074.659 7 -30117732.683 4
  13586542.741   -21058389.387 6 -15062107.128 1
  16321342.093      187064.586 4     18658.936 1
  14408139.827   -15565317.894 6 -10948981.615 1
 95 12 29  7  2 29.9710000  0  8 24 04 09 06 05 20 07 16
  11941261.054   -45501517.705 7 -35190986.045 3
  14153758.866   -42697960.245 6 -32758598.399 2
  14450476.101   -37881411.389 6 -27986576.311 1
  15911152.874    -4371212.478 4  -2402300.270 1
  11990427.913   -40750967.206 7 -30190895.707 4
  13559607.257   -21199937.107 6 -15172404.061 2
  16323625.960      199078.680 4
  14380367.991   -15711259.558 6 -11062702.386 1
 95 12 29  7  2 59.9710000  0  8 24 04 09 06 05 20 07 16
  11935465.671   -45531966.894 7 -35214712.685 3
  14159493.890   -42667818.584 6 -32735111.393 2
  14455242.132   -37856381.942 6 -27967072.850 1
  15886745.015    -4499457.009 4  -2502231.054 1
  11972640.320   -40844443.492 7 -30263734.370 4
  13532718.234   -21341243.010 6 -15282512.554 2
  16325913.507      211099.926 4
  14352631.820   -15857010.353 6 -11176274.430 1
 95 12 29  7  3 29.9710000  0  7 24 04 09 06 05 20 16
  11929755.218   -45561980.736 7 -35238100.098 3
  14165258.257   -42637520.309 6 -32711502.353 2
  14460040.788   -37831152.906 6 -27947413.861 1
  15862347.296    -4627686.422 4  -2602150.031 1
  11954937.624   -40937472.706 7 -30336224.666 4
  13505879.796   -21482280.101 6 -15392411.589 2
  14324938.866   -16002550.892 6 -11289682.643 1
 95 12 29  7  3 59.9710000  0  7 24 04 09 06 05 20 16
  11924125.296   -45591567.081 7 -35261154.392 3
  14171053.945   -42607078.273 6 -32687781.287 2
  14464879.468   -37805730.115 6 -27927603.900 1
  15837938.530    -4755919.056 4  -2702071.548 1
  11937322.140   -41030036.318 7 -30408352.156 4
  13479091.202   -21623053.917 6 -15502105.481 2
  14297278.726   -16147898.030 6 -11402940.137 1
